ftp/pub/palmer/observations_modified/2019/September/original_files/AR190908_BASE.txt
Download
Sample DateTime Unit Id WS Avg 2min WD Avg 2min WGS 10min WGD 10min Air Temp Rel Humidity Dew Point Pyranometer Quantum Air Pressure Snow Level Rainfall PW Current Visibility CBase 1 CBase 2 CBase 3 Vert Vis
2019/09/08 00:00:00 BASE 7.61 329 8.18 331 -1.3 100 -1.3 0 0 977.9 NA 0.0000 9999 430 0 0 0
2019/09/08 00:01:00 BASE 7.56 329 8.18 331 -1.3 100 -1.3 0 0 977.9 NA 0.0000 9999 590 0 0 0
2019/09/08 00:02:00 BASE 7.58 328 8.18 327 -1.4 100 -1.4 0 0 977.9 NA 0.0000 9999 790 0 0 0
2019/09/08 00:03:00 BASE 7.56 328 8.18 327 -1.4 100 -1.4 0 0 977.9 NA 0.0000 9999 820 0 0 0
2019/09/08 00:04:00 BASE 7.33 328 8.18 327 -1.4 100 -1.4 0 0 977.9 NA 0.0000 9999 850 0 0 0
2019/09/08 00:05:00 BASE 6.93 328 8.18 327 -1.4 100 -1.4 0 0 977.9 NA 0.0000 9999 920 0 0 0
2019/09/08 00:06:00 BASE 6.49 327 8.18 327 -1.5 100 -1.5 0 0 977.9 NA 0.0000 9999 1020 0 0 0
2019/09/08 00:07:00 BASE 6.43 327 8.18 327 -1.5 100 -1.5 0 0 977.9 NA 0.0000 9999 980 0 0 0
2019/09/08 00:08:00 BASE 6.41 328 8.18 327 -1.5 100 -1.5 0 0 977.9 NA 0.0000 9999 950 0 0 0
2019/09/08 00:09:00 BASE 6.49 329 8.18 327 -1.5 100 -1.5 0 0 977.9 NA 0.0000 9999 980 0 0 0
2019/09/08 00:10:00 BASE 6.69 330 8.18 327 -1.5 100 -1.5 0 0 977.8 NA 0.0000 9999 980 0 0 0
2019/09/08 00:11:00 BASE 6.76 332 8.18 327 -1.5 100 -1.5 0 0 977.8 NA 0.0000 9999 950 0 0 0
2019/09/08 00:12:00 BASE 6.88 336 7.92 324 -1.5 100 -1.5 0 0 977.8 NA 0.0000 9999 820 0 0 0
2019/09/08 00:13:00 BASE 6.78 337 7.56 320 -1.5 100 -1.5 0 0 977.9 NA 0.0000 9999 920 0 0 0
2019/09/08 00:14:00 BASE 6.42 334 7.41 339 -1.5 100 -1.5 0 0 977.9 NA 0.0000 9999 950 0 0 0
2019/09/08 00:15:00 BASE 6.14 333 7.41 339 -1.5 100 -1.5 0 0 977.9 NA 0.0000 9999 1020 0 0 0
2019/09/08 00:16:00 BASE 6.13 333 7.41 339 -1.5 100 -1.5 0 0 977.9 NA 0.0000 9999 1020 0 0 0
2019/09/08 00:17:00 BASE 6.16 333 7.41 339 -1.5 100 -1.5 0 0 977.9 NA 0.0000 9999 850 0 0 0
2019/09/08 00:18:00 BASE 5.81 336 7.41 339 -1.5 100 -1.5 0 0 977.9 NA 0.0000 9999 360 1080 0 0
2019/09/08 00:19:00 BASE 5.73 338 7.41 339 -1.5 100 -1.5 0 0 977.9 NA 0.0000 9999 330 1020 0 0
2019/09/08 00:20:00 BASE 6.04 339 7.41 339 -1.5 100 -1.5 0 0 977.9 NA 0.0000 9999 1080 0 0 0
2019/09/08 00:21:00 BASE 6.25 338 7.41 339 -1.5 100 -1.5 0 0 977.9 NA 0.0000 9999 1310 0 0 0
2019/09/08 00:22:00 BASE 6.14 337 7.10 334 -1.5 100 -1.5 0 0 977.9 NA 0.0000 9999 1050 0 0 0
2019/09/08 00:23:00 BASE 5.96 336 6.89 341 -1.5 100 -1.5 0 0 977.9 NA 0.0000 9999 300 1440 0 0
2019/09/08 00:24:00 BASE 5.65 335 6.89 341 -1.5 100 -1.5 0 0 977.9 NA 0.0000 9999 300 660 0 0
2019/09/08 00:25:00 BASE 5.62 336 6.89 341 -1.5 100 -1.5 0 0 977.9 NA 0.0000 9999 260 1280 0 0
2019/09/08 00:26:00 BASE 6.12 334 7.10 330 -1.5 100 -1.5 0 0 977.8 NA 0.0000 9999 1080 0 0 0
2019/09/08 00:27:00 BASE 6.84 332 7.77 334 -1.5 100 -1.5 0 0 977.8 NA 0.0000 9999 980 1510 0 0
2019/09/08 00:28:00 BASE 7.11 333 7.77 334 -1.5 100 -1.5 0 0 977.8 NA 0.0000 9999 300 1510 0 0
2019/09/08 00:29:00 BASE 6.83 332 7.77 334 -1.5 100 -1.5 0 0 977.8 NA 0.0000 9999 660 1510 0 0
2019/09/08 00:30:00 BASE 6.81 333 7.77 334 -1.5 100 -1.5 0 0 977.8 NA 0.0000 9999 720 0 0 0
2019/09/08 00:31:00 BASE 6.92 333 7.77 334 -1.5 100 -1.5 0 0 977.7 NA 0.0000 9999 750 1670 0 0
2019/09/08 00:32:00 BASE 6.86 333 7.77 334 -1.5 100 -1.5 0 0 977.8 NA 0.0000 9999 890 1670 0 0
2019/09/08 00:33:00 BASE 6.68 332 7.77 334 -1.5 100 -1.5 0 0 977.8 NA 0.0000 9999 560 0 0 0
2019/09/08 00:34:00 BASE 6.64 331 7.77 334 -1.5 100 -1.5 0 0 977.8 NA 0.0000 9999 720 1900 0 0
2019/09/08 00:35:00 BASE 6.70 330 7.77 334 -1.5 100 -1.5 0 0 977.7 NA 0.0000 9999 750 2230 0 0
2019/09/08 00:36:00 BASE 6.87 330 7.77 334 -1.5 100 -1.5 0 0 977.7 NA 0.0000 9999 920 2200 0 0
2019/09/08 00:37:00 BASE 6.96 329 7.67 336 -1.5 100 -1.5 0 0 977.7 NA 0.0000 9999 820 2300 0 0
2019/09/08 00:38:00 BASE 6.96 327 7.51 332 -1.5 100 -1.5 0 0 977.7 NA 0.0000 9999 490 2460 0 0
2019/09/08 00:39:00 BASE 6.93 326 7.51 332 -1.5 100 -1.5 0 0 977.7 NA 0.0000 9999 390 0 0 0
2019/09/08 00:40:00 BASE 6.40 323 7.51 332 -1.5 100 -1.5 0 0 977.8 NA 0.0000 9999 360 920 0 0
2019/09/08 00:41:00 BASE 6.25 320 7.51 332 -1.5 100 -1.5 0 0 977.8 NA 0.0000 9999 360 0 0 0
2019/09/08 00:42:00 BASE 6.63 317 7.51 332 -1.5 100 -1.5 0 0 977.8 NA 0.0000 9999 260 0 0 0
2019/09/08 00:43:00 BASE 6.72 315 7.51 332 -1.5 100 -1.5 0 0 977.8 NA 0.0000 7000 230 0 0 0
2019/09/08 00:44:00 BASE 6.85 314 7.51 332 -1.5 100 -1.5 0 0 977.7 NA 0.0000 6000 0 0 0 1050
2019/09/08 00:45:00 BASE 7.02 313 7.51 332 -1.6 100 -1.6 0 0 977.7 NA 0.0000 BR 5000 0 0 0 920
2019/09/08 00:46:00 BASE 6.96 314 7.31 310 -1.6 100 -1.6 0 0 977.7 NA 0.0000 BR 5000 0 0 0 920
2019/09/08 00:47:00 BASE 6.51 313 7.31 310 -1.7 100 -1.7 0 0 977.7 NA 0.0000 UP BR 5000 0 0 0 850
2019/09/08 00:48:00 BASE 6.20 313 7.31 310 -1.7 100 -1.7 0 0 977.7 NA 0.0000 UP BR 7000 0 0 0 920
2019/09/08 00:49:00 BASE 6.24 313 7.31 310 -1.8 100 -1.8 0 0 977.7 NA 0.0000 UP BR 9999 0 0 0 1020
2019/09/08 00:50:00 BASE 6.08 313 7.31 310 -1.8 100 -1.8 0 0 977.8 NA 0.0000 UP BR 9999 0 0 0 660
2019/09/08 00:51:00 BASE 5.63 312 7.31 310 -1.8 100 -1.8 0 0 977.8 NA 0.0000 UP BR 9999 0 0 0 620
2019/09/08 00:52:00 BASE 5.32 311 7.31 310 -1.8 100 -1.8 0 0 977.8 NA 0.0000 UP BR 9999 0 0 0 590
2019/09/08 00:53:00 BASE 5.43 312 7.31 310 -1.8 100 -1.8 0 0 977.7 NA 0.0000 UP BR 9999 0 0 0 560
2019/09/08 00:54:00 BASE 5.63 314 7.31 310 -1.8 100 -1.8 0 0 977.7 NA 0.0000 UP BR 9999 0 0 0 520
2019/09/08 00:55:00 BASE 5.85 315 7.20 315 -1.8 100 -1.8 0 0 977.7 NA 0.0000 UP BR 9000 0 0 0 520
2019/09/08 00:56:00 BASE 5.85 314 6.94 311 -1.7 100 -1.7 0 0 977.7 NA 0.0000 UP BR 8000 0 0 0 2070
2019/09/08 00:57:00 BASE 5.64 315 6.74 310 -1.7 100 -1.7 0 0 977.7 NA 0.0000 9999 0 0 0 1970
2019/09/08 00:58:00 BASE 5.78 316 6.43 308 -1.7 100 -1.7 0 0 977.7 NA 0.0000 9999 0 0 0 1710
2019/09/08 00:59:00 BASE 5.71 316 6.33 323 -1.7 100 -1.7 0 0 977.7 NA 0.0000 9999 160 1250 0 0
2019/09/08 01:00:00 BASE 5.21 316 6.33 323 -1.7 100 -1.7 0 0 977.7 NA 0.0000 9999 200 0 0 0
2019/09/08 01:01:00 BASE 5.05 316 6.33 323 -1.7 100 -1.7 0 0 977.7 NA 0.0000 9999 230 850 0 0
2019/09/08 01:02:00 BASE 5.15 315 6.33 323 -1.8 100 -1.8 0 0 977.7 NA 0.0000 UP 9999 300 920 0 0
2019/09/08 01:03:00 BASE 5.31 314 6.33 323 -1.8 100 -1.8 0 0 977.7 NA 0.0000 UP 9999 490 0 0 0
2019/09/08 01:04:00 BASE 5.32 314 6.33 323 -1.8 100 -1.8 0 0 977.7 NA 0.0000 UP 9999 460 0 0 0
2019/09/08 01:05:00 BASE 5.02 313 6.33 323 -1.8 100 -1.8 0 0 977.7 NA 0.0000 UP 9999 390 0 0 0
2019/09/08 01:06:00 BASE 5.06 312 6.33 323 -1.8 100 -1.8 0 0 977.7 NA 0.0000 UP 9999 1020 0 0 0
2019/09/08 01:07:00 BASE 5.28 312 6.33 323 -1.8 100 -1.8 0 0 977.7 NA 0.0000 UP 9999 330 1380 0 0
2019/09/08 01:08:00 BASE 5.00 311 6.07 312 -1.8 100 -1.8 0 0 977.7 NA 0.0000 UP 9999 850 0 0 0
2019/09/08 01:09:00 BASE 4.73 309 5.76 315 -1.8 100 -1.8 0 0 977.7 NA 0.0000 UP 9999 890 0 0 0
2019/09/08 01:10:00 BASE 5.02 308 5.76 315 -1.8 100 -1.8 0 0 977.7 NA 0.0000 UP 9999 430 1670 0 0
2019/09/08 01:11:00 BASE 5.33 310 5.76 315 -1.8 100 -1.8 0 0 977.6 NA 0.0000 UP 9999 1540 0 0 0
2019/09/08 01:12:00 BASE 5.32 310 5.86 306 -1.8 100 -1.8 0 0 977.6 NA 0.0000 UP 9999 1080 1670 0 0
2019/09/08 01:13:00 BASE 5.45 310 6.02 313 -1.8 100 -1.8 0 0 977.6 NA 0.0000 UP 9999 820 1740 0 0
2019/09/08 01:14:00 BASE 5.41 311 6.02 313 -1.8 100 -1.8 0 0 977.6 NA 0.0000 UP 9999 820 1770 0 0
2019/09/08 01:15:00 BASE 5.18 308 6.02 313 -1.8 100 -1.8 0 0 977.6 NA 0.0000 UP 9999 230 950 0 0
2019/09/08 01:16:00 BASE 5.09 305 6.12 304 -1.8 100 -1.8 0 0 977.6 NA 0.0000 9999 200 850 0 0
2019/09/08 01:17:00 BASE 5.30 304 6.28 305 -1.9 100 -1.9 0 0 977.6 NA 0.0000 9999 890 0 0 0
2019/09/08 01:18:00 BASE 5.60 304 6.28 305 -1.9 100 -1.9 0 0 977.6 NA 0.0000 9999 620 0 0 0
2019/09/08 01:19:00 BASE 5.57 304 6.28 305 -1.9 100 -1.9 0 0 977.6 NA 0.0000 9999 560 0 0 0
2019/09/08 01:20:00 BASE 5.59 305 6.28 305 -1.9 100 -1.9 0 0 977.6 NA 0.0000 9999 690 0 0 0
2019/09/08 01:21:00 BASE 5.61 305 6.33 308 -1.9 100 -1.9 0 0 977.5 NA 0.0000 9999 490 0 0 0
2019/09/08 01:22:00 BASE 5.74 307 6.33 308 -1.9 100 -1.9 0 0 977.5 NA 0.0000 9999 590 0 0 0
2019/09/08 01:23:00 BASE 5.66 305 6.33 308 -1.9 100 -1.9 0 0 977.5 NA 0.0000 9999 460 0 0 0
2019/09/08 01:24:00 BASE 5.66 303 6.48 304 -1.9 100 -1.9 0 0 977.6 NA 0.0000 9999 430 0 0 0
2019/09/08 01:25:00 BASE 5.72 303 6.53 306 -1.9 100 -1.9 0 0 977.6 NA 0.0000 9999 590 0 0 0
2019/09/08 01:26:00 BASE 5.61 302 6.53 306 -1.9 100 -1.9 0 0 977.6 NA 0.0000 9999 430 0 0 0
2019/09/08 01:27:00 BASE 5.77 301 6.53 306 -1.9 100 -1.9 0 0 977.5 NA 0.0000 UP 9999 620 0 0 0
2019/09/08 01:28:00 BASE 5.97 299 6.58 301 -1.9 100 -1.9 0 0 977.5 NA 0.0000 UP 9999 660 0 0 0
2019/09/08 01:29:00 BASE 6.23 297 6.58 291 -1.9 100 -1.9 0 0 977.5 NA 0.0000 UP 9999 850 0 0 0
2019/09/08 01:30:00 BASE 6.69 295 7.41 294 -1.9 100 -1.9 0 0 977.5 NA 0.0000 UP 9999 950 0 0 0
2019/09/08 01:31:00 BASE 6.75 296 7.41 294 -1.9 100 -1.9 0 0 977.5 NA 0.0000 UP 9999 1050 0 0 0
2019/09/08 01:32:00 BASE 6.16 297 7.41 294 -1.9 100 -1.9 0 0 977.5 NA 0.0000 UP 9999 1020 0 0 0
2019/09/08 01:33:00 BASE 5.74 297 7.41 294 -1.9 100 -1.9 0 0 977.6 NA 0.0000 UP 9999 1020 0 0 0
2019/09/08 01:34:00 BASE 5.50 297 7.41 294 -1.9 100 -1.9 0 0 977.6 NA 0.0000 9999 1020 0 0 0
2019/09/08 01:35:00 BASE 5.55 297 7.41 294 -1.9 100 -1.9 0 0 977.5 NA 0.0000 9999 980 0 0 0
2019/09/08 01:36:00 BASE 5.56 297 7.41 294 -1.9 100 -1.9 0 0 977.5 NA 0.0000 9999 1120 0 0 0
2019/09/08 01:37:00 BASE 5.27 298 7.41 294 -1.9 100 -1.9 0 0 977.6 NA 0.0000 9999 950 0 0 0
2019/09/08 01:38:00 BASE 5.18 297 7.41 294 -1.9 100 -1.9 0 0 977.6 NA 0.0000 9999 950 0 0 0
2019/09/08 01:39:00 BASE 5.18 299 7.41 294 -1.9 100 -1.9 0 0 977.5 NA 0.0000 9999 750 0 0 0
2019/09/08 01:40:00 BASE 5.09 300 6.84 300 -1.9 100 -1.9 0 0 977.5 NA 0.0000 9999 750 0 0 0
2019/09/08 01:41:00 BASE 5.15 301 6.22 296 -1.9 100 -1.9 0 0 977.4 NA 0.0000 9999 1080 0 0 0
2019/09/08 01:42:00 BASE 5.47 300 6.12 301 -1.9 100 -1.9 0 0 977.4 NA 0.0000 9999 1120 0 0 0
2019/09/08 01:43:00 BASE 5.46 298 6.12 301 -1.9 100 -1.9 0 0 977.4 NA 0.0000 9999 950 0 0 0
2019/09/08 01:44:00 BASE 5.28 297 6.12 301 -1.9 100 -1.9 0 0 977.4 NA 0.0000 9999 1250 0 0 0
2019/09/08 01:45:00 BASE 5.32 297 6.12 301 -1.9 100 -1.9 0 0 977.4 NA 0.0000 9999 1210 0 0 0
2019/09/08 01:46:00 BASE 4.99 298 6.12 301 -1.9 100 -1.9 0 0 977.3 NA 0.0000 9999 1250 0 0 0
2019/09/08 01:47:00 BASE 4.75 299 6.12 301 -1.9 100 -1.9 0 0 977.3 NA 0.0000 9999 720 0 0 0
2019/09/08 01:48:00 BASE 5.09 299 6.12 301 -1.9 100 -1.9 0 0 977.3 NA 0.0000 9999 620 0 0 0
2019/09/08 01:49:00 BASE 5.50 299 6.12 301 -1.9 100 -1.9 0 0 977.3 NA 0.0000 9999 1350 0 0 0
2019/09/08 01:50:00 BASE 5.62 301 6.12 301 -2.0 100 -2.0 0 0 977.3 NA 0.0000 9999 1510 0 0 0
2019/09/08 01:51:00 BASE 5.40 303 6.12 301 -2.0 100 -2.0 0 0 977.3 NA 0.0000 9999 620 0 0 0
2019/09/08 01:52:00 BASE 5.20 305 5.86 303 -2.0 100 -2.0 0 0 977.3 NA 0.0000 9999 660 0 0 0
2019/09/08 01:53:00 BASE 5.50 306 6.02 303 -2.0 100 -2.0 0 0 977.3 NA 0.0000 9999 430 0 0 0
2019/09/08 01:54:00 BASE 5.61 306 6.02 303 -2.0 100 -2.0 0 0 977.3 NA 0.0000 9999 390 0 0 0
2019/09/08 01:55:00 BASE 5.64 306 6.07 305 -2.0 100 -2.0 0 0 977.3 NA 0.0000 9999 260 0 0 0
2019/09/08 01:56:00 BASE 5.67 306 6.07 305 -2.0 100 -2.0 0 0 977.2 NA 0.0000 9999 260 0 0 0
2019/09/08 01:57:00 BASE 5.41 309 6.07 305 -2.0 100 -2.0 0 0 977.2 NA 0.0000 9999 620 0 0 0
2019/09/08 01:58:00 BASE 5.39 312 6.07 313 -2.0 100 -2.0 0 0 977.2 NA 0.0000 9999 950 0 0 0
2019/09/08 01:59:00 BASE 5.49 316 6.07 313 -2.0 100 -2.0 0 0 977.2 NA 0.0000 9999 1350 0 0 0
2019/09/08 02:00:00 BASE 5.59 316 6.07 313 -2.0 100 -2.0 0 0 977.2 NA 0.0000 9999 750 0 0 0
2019/09/08 02:01:00 BASE 5.75 316 6.38 315 -2.0 100 -2.0 0 0 977.1 NA 0.0000 9999 1180 0 0 0
2019/09/08 02:02:00 BASE 5.79 317 6.38 315 -2.0 100 -2.0 0 0 977.1 NA 0.0000 9999 1350 0 0 0
2019/09/08 02:03:00 BASE 5.65 318 6.38 315 -2.0 100 -2.0 0 0 977.1 NA 0.0000 9999 1180 0 0 0
2019/09/08 02:04:00 BASE 5.82 317 6.48 315 -2.0 100 -2.0 0 0 977.1 NA 0.0000 9999 1020 0 0 0
2019/09/08 02:05:00 BASE 5.87 318 6.48 315 -2.0 100 -2.0 0 0 977.1 NA 0.0000 9999 1350 0 0 0
2019/09/08 02:06:00 BASE 5.65 321 6.48 315 -2.0 100 -2.0 0 0 977.1 NA 0.0000 9999 1210 0 0 0
2019/09/08 02:07:00 BASE 5.36 321 6.48 315 -2.0 100 -2.0 0 0 977.1 NA 0.0000 9999 1410 0 0 0
2019/09/08 02:08:00 BASE 5.09 320 6.48 315 -2.0 100 -2.0 0 0 977.1 NA 0.0000 9999 1380 0 0 0
2019/09/08 02:09:00 BASE 5.10 319 6.48 315 -2.0 100 -2.0 0 0 977.1 NA 0.0000 9999 1410 0 0 0
2019/09/08 02:10:00 BASE 5.24 319 6.48 315 -2.0 100 -2.0 0 0 977.1 NA 0.0000 9999 360 1480 0 0
2019/09/08 02:11:00 BASE 5.12 320 6.48 315 -2.0 100 -2.0 0 0 977.1 NA 0.0000 9999 1380 0 0 0
2019/09/08 02:12:00 BASE 5.03 322 6.48 315 -2.0 100 -2.0 0 0 977.1 NA 0.0000 9999 330 1410 0 0
2019/09/08 02:13:00 BASE 5.02 322 6.48 315 -2.0 100 -2.0 0 0 977.1 NA 0.0000 9999 750 0 0 0
2019/09/08 02:14:00 BASE 5.09 321 6.02 320 -2.0 100 -2.0 0 0 977.1 NA 0.0000 9999 620 0 0 0
2019/09/08 02:15:00 BASE 5.29 321 6.17 317 -2.0 100 -2.0 0 0 977.1 NA 0.0000 9999 660 0 0 0
2019/09/08 02:16:00 BASE 5.46 320 6.17 317 -2.0 100 -2.0 0 0 977.1 NA 0.0000 9999 660 0 0 0
2019/09/08 02:17:00 BASE 5.17 320 6.17 317 -2.0 100 -2.0 0 0 977.1 NA 0.0000 9999 690 0 0 0
2019/09/08 02:18:00 BASE 4.65 322 6.17 317 -2.0 100 -2.0 0 0 977.1 NA 0.0000 9999 360 0 0 0
2019/09/08 02:19:00 BASE 4.88 323 6.17 317 -2.0 100 -2.0 0 0 977.1 NA 0.0000 9999 360 0 0 0
2019/09/08 02:20:00 BASE 5.16 323 6.17 317 -2.0 100 -2.0 0 0 977.1 NA 0.0000 9999 330 720 0 0
2019/09/08 02:21:00 BASE 4.83 324 6.17 317 -2.1 100 -2.1 0 0 977.1 NA 0.0000 9999 360 1540 0 0
2019/09/08 02:22:00 BASE 4.56 325 6.17 317 -2.1 100 -2.1 0 0 977.1 NA 0.0000 9999 330 820 0 0
2019/09/08 02:23:00 BASE 4.70 327 6.17 317 -2.1 100 -2.1 0 0 977.0 NA 0.0000 9999 330 850 0 0
2019/09/08 02:24:00 BASE 4.73 327 6.17 317 -2.1 100 -2.1 0 0 977.0 NA 0.0000 9999 330 790 0 0
2019/09/08 02:25:00 BASE 4.65 324 6.02 318 -2.1 100 -2.1 0 0 977.0 NA 0.0000 9999 390 1540 0 0
2019/09/08 02:26:00 BASE 4.37 323 5.56 322 -2.1 100 -2.1 0 0 977.0 NA 0.0000 9999 360 1770 0 0
2019/09/08 02:27:00 BASE 4.14 325 5.56 322 -2.1 100 -2.1 0 0 977.0 NA 0.0000 9999 390 0 0 0
2019/09/08 02:28:00 BASE 4.22 323 5.56 322 -2.1 100 -2.1 0 0 977.0 NA 0.0000 9999 390 0 0 0
2019/09/08 02:29:00 BASE 4.38 322 5.35 323 -2.1 100 -2.1 0 0 977.0 NA 0.0000 9999 1050 0 0 0
2019/09/08 02:30:00 BASE 4.50 325 5.09 327 -2.1 100 -2.1 0 0 976.9 NA 0.0000 9999 390 0 0 0
2019/09/08 02:31:00 BASE 4.51 328 5.09 327 -2.1 100 -2.1 0 0 976.8 NA 0.0000 UP 9999 360 0 0 0
2019/09/08 02:32:00 BASE 4.48 331 5.09 327 -2.1 100 -2.1 0 0 976.8 NA 0.0000 UP 9999 1080 0 0 0
2019/09/08 02:33:00 BASE 4.58 332 5.04 331 -2.1 100 -2.1 0 0 976.8 NA 0.0000 UP 9999 360 0 0 0
2019/09/08 02:34:00 BASE 4.61 334 5.04 331 -2.1 100 -2.1 0 0 976.8 NA 0.0000 UP 9999 360 1710 0 0
2019/09/08 02:35:00 BASE 4.43 335 5.04 331 -2.1 100 -2.1 0 0 976.8 NA 0.0000 UP 9999 330 1710 0 0
2019/09/08 02:36:00 BASE 4.47 335 5.04 331 -2.1 100 -2.1 0 0 976.7 NA 0.0000 UP 9999 330 1640 0 0
2019/09/08 02:37:00 BASE 4.82 335 5.25 333 -2.1 100 -2.1 0 0 976.7 NA 0.0000 UP 9999 300 1710 0 0
2019/09/08 02:38:00 BASE 4.88 334 5.25 333 -2.1 100 -2.1 0 0 976.7 NA 0.0000 UP 9999 300 1840 0 0
2019/09/08 02:39:00 BASE 4.61 330 5.25 333 -2.2 100 -2.2 0 0 976.7 NA 0.0000 UP 9999 230 0 0 0
2019/09/08 02:40:00 BASE 4.69 326 5.25 333 -2.2 100 -2.2 0 0 976.7 NA 0.0000 UP 9999 260 0 0 0
2019/09/08 02:41:00 BASE 4.72 324 5.25 333 -2.2 100 -2.2 0 0 976.7 NA 0.0000 UP 8000 260 0 0 0
2019/09/08 02:42:00 BASE 4.39 324 5.25 333 -2.2 100 -2.2 0 0 976.7 NA 0.0000 UP 9000 0 0 0 4270
2019/09/08 02:43:00 BASE 4.19 323 5.25 333 -2.2 100 -2.2 0 0 976.8 NA 0.0000 UP 9000 0 0 0 4300
2019/09/08 02:44:00 BASE 3.99 323 5.25 333 -2.2 100 -2.2 0 0 976.8 NA 0.0000 UP 7000 300 0 0 0
2019/09/08 02:45:00 BASE 3.78 325 5.25 333 -2.2 100 -2.2 0 0 976.7 NA 0.0000 UP BR 9000 330 0 0 0
2019/09/08 02:46:00 BASE 3.72 328 5.25 333 -2.2 100 -2.2 0 0 976.7 NA 0.0000 UP BR 9999 300 4100 0 0
2019/09/08 02:47:00 BASE 3.63 329 4.99 329 -2.1 100 -2.1 0 0 976.7 NA 0.0000 UP BR 8000 300 4170 0 0
2019/09/08 02:48:00 BASE 3.58 327 4.99 329 -2.1 100 -2.1 0 0 976.7 NA 0.0000 UP BR 9000 330 3900 0 0
2019/09/08 02:49:00 BASE 3.55 325 4.99 329 -2.1 100 -2.1 0 0 976.7 NA 0.0000 UP BR 9000 330 3740 0 0
2019/09/08 02:50:00 BASE 3.43 323 4.84 321 -2.1 100 -2.1 0 0 976.7 NA 0.0000 UP BR 9999 300 3670 0 0
2019/09/08 02:51:00 BASE 3.30 322 4.42 327 -2.1 100 -2.1 0 0 976.7 NA 0.0000 UP BR 9999 300 3580 0 0
2019/09/08 02:52:00 BASE 3.13 321 4.37 325 -2.1 100 -2.1 0 0 976.7 NA 0.0000 UP BR 7000 3380 0 0 0
2019/09/08 02:53:00 BASE 3.04 320 4.06 327 -2.1 100 -2.1 0 0 976.7 NA 0.0000 UP BR 7000 3280 0 0 0
2019/09/08 02:54:00 BASE 3.01 321 4.06 327 -2.1 100 -2.1 0 0 976.7 NA 0.0000 UP BR 9999 330 3450 0 0
2019/09/08 02:55:00 BASE 3.08 318 3.86 328 -2.1 100 -2.1 0 0 976.7 NA 0.0000 UP BR 9000 2100 0 0 0
2019/09/08 02:56:00 BASE 3.24 315 3.86 328 -2.1 100 -2.1 0 0 976.7 NA 0.0000 UP BR 9000 3450 0 0 0
2019/09/08 02:57:00 BASE 3.28 314 3.81 325 -2.1 100 -2.1 0 0 976.7 NA 0.0000 UP BR 9000 3480 0 0 0
2019/09/08 02:58:00 BASE 3.10 315 3.81 325 -2.1 100 -2.1 0 0 976.7 NA 0.0000 UP BR 9000 1570 2530 0 0
2019/09/08 02:59:00 BASE 2.78 316 3.70 316 -2.1 100 -2.1 0 0 976.7 NA 0.0000 UP BR 9000 360 3640 0 0
2019/09/08 03:00:00 BASE 2.69 317 3.65 309 -2.1 100 -2.1 0 0 976.7 NA 0.0000 UP BR 9999 1570 2920 0 0
2019/09/08 03:01:00 BASE 2.77 317 3.65 309 -2.1 100 -2.1 0 0 976.7 NA 0.0000 UP BR 9999 1510 2760 0 0
2019/09/08 03:02:00 BASE 2.77 316 3.65 309 -2.1 100 -2.1 0 0 976.7 NA 0.0000 UP BR 9999 1380 3940 0 0
2019/09/08 03:03:00 BASE 2.54 317 3.65 309 -2.1 100 -2.1 0 0 976.7 NA 0.0000 UP 9999 3940 0 0 0
2019/09/08 03:04:00 BASE 2.60 315 3.65 309 -2.1 100 -2.1 0 0 976.7 NA 0.0000 UP 9999 2720 3380 0 0
2019/09/08 03:05:00 BASE 2.78 313 3.55 312 -2.1 100 -2.1 0 0 976.7 NA 0.0000 9999 2660 3710 0 0
2019/09/08 03:06:00 BASE 2.87 316 3.55 312 -2.1 100 -2.1 0 0 976.7 NA 0.0000 9999 2690 3670 0 0
2019/09/08 03:07:00 BASE 3.07 315 3.45 310 -2.2 100 -2.2 0 0 976.7 NA 0.0000 9999 2590 3770 0 0
2019/09/08 03:08:00 BASE 3.26 312 3.70 314 -2.2 100 -2.2 0 0 976.7 NA 0.0000 9999 2460 4100 0 0
2019/09/08 03:09:00 BASE 3.41 314 3.70 314 -2.2 100 -2.2 0 0 976.7 NA 0.0000 9999 2460 0 0 0
2019/09/08 03:10:00 BASE 3.34 314 3.70 314 -2.2 100 -2.2 0 0 976.7 NA 0.0000 9999 2400 0 0 0
2019/09/08 03:11:00 BASE 3.37 314 3.76 315 -2.2 100 -2.2 0 0 976.7 NA 0.0000 9999 2430 4100 0 0
2019/09/08 03:12:00 BASE 3.42 311 3.76 315 -2.2 100 -2.2 0 0 976.7 NA 0.0000 9999 2790 4000 0 0
2019/09/08 03:13:00 BASE 3.18 307 3.76 315 -2.3 100 -2.3 0 0 976.7 NA 0.0000 9999 2430 4100 0 0
2019/09/08 03:14:00 BASE 3.19 306 3.76 315 -2.3 100 -2.3 0 0 976.7 NA 0.0000 9999 2430 4070 0 0
2019/09/08 03:15:00 BASE 3.40 304 3.81 304 -2.3 100 -2.3 0 0 976.7 NA 0.0000 9999 2430 4100 0 0
2019/09/08 03:16:00 BASE 3.12 304 3.81 304 -2.4 100 -2.4 0 0 976.7 NA 0.0000 9999 2400 3970 0 0
2019/09/08 03:17:00 BASE 2.69 304 3.81 304 -2.4 100 -2.4 0 0 976.7 NA 0.0000 9999 1150 2360 3970 0
2019/09/08 03:18:00 BASE 2.69 304 3.81 304 -2.4 100 -2.4 0 0 976.7 NA 0.0000 9999 2360 3940 0 0
2019/09/08 03:19:00 BASE 2.87 306 3.81 304 -2.4 100 -2.4 0 0 976.7 NA 0.0000 9999 2300 3940 0 0
2019/09/08 03:20:00 BASE 3.15 306 3.81 304 -2.4 100 -2.4 0 0 976.7 NA 0.0000 9999 2230 4200 0 0
2019/09/08 03:21:00 BASE 3.45 304 3.81 304 -2.4 100 -2.4 0 0 976.7 NA 0.0000 9999 1050 2230 0 0
2019/09/08 03:22:00 BASE 3.43 303 3.81 304 -2.4 100 -2.4 0 0 976.7 NA 0.0000 9999 1050 2300 0 0
2019/09/08 03:23:00 BASE 3.36 303 3.81 304 -2.4 100 -2.4 0 0 976.7 NA 0.0000 9999 1120 2230 0 0
2019/09/08 03:24:00 BASE 3.39 302 3.81 306 -2.4 100 -2.4 0 0 976.7 NA 0.0000 9999 1080 2260 0 0
2019/09/08 03:25:00 BASE 3.47 301 4.01 301 -2.4 100 -2.4 0 0 976.7 NA 0.0000 9999 1050 0 0 0
2019/09/08 03:26:00 BASE 3.55 301 4.01 304 -2.4 100 -2.4 0 0 976.7 NA 0.0000 9999 1050 0 0 0
2019/09/08 03:27:00 BASE 3.50 300 4.01 304 -2.4 100 -2.4 0 0 976.7 NA 0.0000 9999 1050 0 0 0
2019/09/08 03:28:00 BASE 3.34 298 4.01 304 -2.4 100 -2.4 0 0 976.7 NA 0.0000 9999 430 1050 0 0
2019/09/08 03:29:00 BASE 3.30 294 4.01 291 -2.4 100 -2.4 0 0 976.7 NA 0.0000 9999 360 1050 0 0
2019/09/08 03:30:00 BASE 3.17 290 4.01 291 -2.4 100 -2.4 0 0 976.7 NA 0.0000 9999 390 1020 0 0
2019/09/08 03:31:00 BASE 3.06 286 4.01 291 -2.4 100 -2.4 0 0 976.8 NA 0.0000 9999 980 0 0 0
2019/09/08 03:32:00 BASE 3.19 286 4.01 291 -2.3 100 -2.3 0 0 976.8 NA 0.0000 9999 260 1020 0 0
2019/09/08 03:33:00 BASE 3.39 289 4.06 292 -2.3 100 -2.3 0 0 976.8 NA 0.0000 9999 230 980 0 0
2019/09/08 03:34:00 BASE 3.49 288 4.06 292 -2.3 100 -2.3 0 0 976.8 NA 0.0000 9999 200 1120 0 0
2019/09/08 03:35:00 BASE 3.46 286 4.06 292 -2.3 100 -2.3 0 0 976.8 NA 0.0000 9999 230 1150 0 0
2019/09/08 03:36:00 BASE 3.19 285 4.06 292 -2.3 100 -2.3 0 0 976.8 NA 0.0000 9999 1120 0 0 0
2019/09/08 03:37:00 BASE 2.78 285 4.06 292 -2.3 100 -2.3 0 0 976.8 NA 0.0000 5000 1120 0 0 0
2019/09/08 03:38:00 BASE 2.79 285 4.06 292 -2.3 100 -2.3 0 0 976.8 NA 0.0000 BR 4000 1150 0 0 0
2019/09/08 03:39:00 BASE 2.77 284 4.06 292 -2.3 100 -2.3 0 0 976.8 NA 0.0000 BR 4000 1120 0 0 0
2019/09/08 03:40:00 BASE 2.57 281 4.06 292 -2.3 100 -2.3 0 0 976.8 NA 0.0000 BR 5000 1120 0 0 0
2019/09/08 03:41:00 BASE 2.74 280 4.06 292 -2.3 100 -2.3 0 0 976.8 NA 0.0000 BR 9999 260 1080 0 0
2019/09/08 03:42:00 BASE 3.01 279 4.06 292 -2.3 100 -2.3 0 0 976.8 NA 0.0000 BR 9999 230 1150 0 0
2019/09/08 03:43:00 BASE 3.05 277 3.81 286 -2.3 100 -2.3 0 0 976.8 NA 0.0000 BR 9999 230 1120 0 0
2019/09/08 03:44:00 BASE 2.96 277 3.81 286 -2.3 100 -2.3 0 0 976.8 NA 0.0000 BR 9999 200 1120 0 0
2019/09/08 03:45:00 BASE 3.02 279 3.50 267 -2.3 100 -2.3 0 0 976.8 NA 0.0000 BR 9999 160 1120 0 0
2019/09/08 03:46:00 BASE 3.01 280 3.50 267 -2.3 100 -2.3 0 0 976.8 NA 0.0000 BR 9999 1150 0 0 0
2019/09/08 03:47:00 BASE 2.81 280 3.50 267 -2.3 100 -2.3 0 0 976.8 NA 0.0000 BR 9999 200 1150 0 0
2019/09/08 03:48:00 BASE 2.73 280 3.50 267 -2.3 100 -2.3 0 0 976.8 NA 0.0000 BR 9999 160 1150 0 0
2019/09/08 03:49:00 BASE 2.73 281 3.50 267 -2.3 100 -2.3 0 0 976.8 NA 0.0000 BR 4600 1210 0 0 0
2019/09/08 03:50:00 BASE 2.62 283 3.50 267 -2.3 100 -2.3 0 0 976.8 NA 0.0000 BR 2800 1210 0 0 0
2019/09/08 03:51:00 BASE 2.49 285 3.50 267 -2.3 100 -2.3 0 0 976.8 NA 0.0000 BR 2400 0 0 0 430
2019/09/08 03:52:00 BASE 2.34 281 3.45 277 -2.3 100 -2.3 0 0 976.8 NA 0.0000 BR 2000 0 0 0 390
2019/09/08 03:53:00 BASE 2.12 276 3.45 277 -2.3 100 -2.3 0 0 976.7 NA 0.0000 BR 1900 1180 0 0 0
2019/09/08 03:54:00 BASE 1.93 272 3.45 277 -2.3 100 -2.3 0 0 976.7 NA 0.0000 BR 2100 1150 0 0 0
2019/09/08 03:55:00 BASE 1.76 271 3.34 292 -2.3 100 -2.3 0 0 976.7 NA 0.0000 BR 2200 1150 0 0 0
2019/09/08 03:56:00 BASE 1.92 273 3.09 278 -2.3 100 -2.3 0 0 976.7 NA 0.0000 BR 2400 1120 0 0 0
2019/09/08 03:57:00 BASE 2.18 276 3.09 278 -2.4 100 -2.4 0 0 976.7 NA 0.0000 BR 2400 1080 0 0 0
2019/09/08 03:58:00 BASE 2.17 279 2.98 286 -2.4 100 -2.4 0 0 976.7 NA 0.0000 BR 3100 1150 0 0 0
2019/09/08 03:59:00 BASE 1.95 276 2.98 286 -2.4 100 -2.4 0 0 976.7 NA 0.0000 BR 4100 1150 0 0 0
2019/09/08 04:00:00 BASE 1.85 274 2.68 282 -2.4 100 -2.4 0 0 976.8 NA 0.0000 BR 4900 1150 0 0 0
2019/09/08 04:01:00 BASE 2.11 278 2.57 281 -2.4 100 -2.4 0 0 976.8 NA 0.0000 BR 5000 1180 0 0 0
2019/09/08 04:02:00 BASE 2.36 279 2.62 280 -2.4 100 -2.4 0 0 976.8 NA 0.0000 BR 5000 1180 0 0 0
2019/09/08 04:03:01 BASE 2.41 278 2.62 271 -2.4 100 -2.4 0 0 976.8 NA 0.0000 BR 8000 1180 0 0 0
2019/09/08 04:04:01 BASE 2.36 282 2.62 271 -2.4 100 -2.4 0 0 976.8 NA 0.0000 BR 9999 1150 0 0 0
2019/09/08 04:05:01 BASE 2.29 286 2.68 288 -2.4 100 -2.4 0 0 976.8 NA 0.0000 BR 9999 1150 0 0 0
2019/09/08 04:06:01 BASE 2.37 286 3.19 282 -2.4 100 -2.4 0 0 976.8 NA 0.0000 BR 9999 1120 0 0 0
2019/09/08 04:07:01 BASE 2.52 286 3.19 282 -2.4 100 -2.4 0 0 976.8 NA 0.0000 BR 9999 230 1050 0 0
2019/09/08 04:08:01 BASE 2.45 287 3.19 282 -2.4 100 -2.4 0 0 976.8 NA 0.0000 BR 9999 200 1080 0 0
2019/09/08 04:09:01 BASE 2.43 291 3.19 282 -2.4 100 -2.4 0 0 976.8 NA 0.0000 BR 9999 0 0 0 1350
2019/09/08 04:10:01 BASE 2.51 292 3.19 282 -2.4 100 -2.4 0 0 976.8 NA 0.0000 BR 9999 0 0 0 1250
2019/09/08 04:11:01 BASE 2.56 293 3.19 282 -2.4 100 -2.4 0 0 976.8 NA 0.0000 7000 0 0 0 1210
2019/09/08 04:12:01 BASE 2.79 292 3.19 291 -2.4 100 -2.4 0 0 976.8 NA 0.0000 4400 0 0 0 590
2019/09/08 04:13:01 BASE 2.62 289 3.19 291 -2.4 100 -2.4 0 0 976.8 NA 0.0000 BR 3200 0 0 0 560
2019/09/08 04:14:01 BASE 2.38 286 3.19 291 -2.3 100 -2.3 0 0 976.8 NA 0.0000 BR 2800 0 0 0 590
2019/09/08 04:15:01 BASE 2.59 281 3.19 291 -2.3 100 -2.3 0 0 976.8 NA 0.0000 BR 2500 0 0 0 560
2019/09/08 04:16:01 BASE 2.62 284 3.19 291 -2.3 100 -2.3 0 0 976.8 NA 0.0000 BR 2500 0 0 0 520
2019/09/08 04:17:01 BASE 2.54 286 3.19 291 -2.3 100 -2.3 0 0 976.8 NA 0.0000 BR 2300 0 0 0 590
2019/09/08 04:18:01 BASE 2.73 285 3.40 278 -2.3 100 -2.3 0 0 976.8 NA 0.0000 BR 2300 0 0 0 560
2019/09/08 04:19:01 BASE 3.02 288 3.45 287 -2.3 100 -2.3 0 0 976.8 NA 0.0000 BR 3000 0 0 0 690
2019/09/08 04:20:01 BASE 3.10 287 3.60 272 -2.3 100 -2.3 0 0 976.8 NA 0.0000 BR 3400 0 0 0 660
2019/09/08 04:21:01 BASE 3.28 281 3.91 278 -2.3 100 -2.3 0 0 976.8 NA 0.0000 BR 3300 0 0 0 620
2019/09/08 04:22:01 BASE 3.62 277 3.96 279 -2.3 100 -2.3 0 0 976.8 NA 0.0000 BR 3100 0 0 0 620
2019/09/08 04:23:01 BASE 3.47 277 3.96 279 -2.4 100 -2.4 0 0 976.8 NA 0.0000 BR 3200 0 0 0 590
2019/09/08 04:24:01 BASE 3.20 278 4.22 281 -2.4 100 -2.4 0 0 976.8 NA 0.0000 BR 3300 0 0 0 620
2019/09/08 04:25:01 BASE 3.38 280 4.22 281 -2.4 100 -2.4 0 0 976.8 NA 0.0000 BR 3600 0 0 0 620
2019/09/08 04:26:01 BASE 3.48 280 4.22 275 -2.4 100 -2.4 0 0 976.8 NA 0.0000 BR 3900 0 0 0 690
2019/09/08 04:27:01 BASE 3.21 280 4.22 275 -2.4 100 -2.4 0 0 976.8 NA 0.0000 BR 4100 0 0 0 660
2019/09/08 04:28:01 BASE 3.29 280 4.22 275 -2.5 100 -2.5 0 0 976.8 NA 0.0000 BR 4000 0 0 0 660
2019/09/08 04:29:01 BASE 3.46 283 4.22 275 -2.5 100 -2.5 0 0 976.8 NA 0.0000 BR 3700 0 0 0 1180
2019/09/08 04:30:01 BASE 3.35 283 4.22 275 -2.5 100 -2.5 0 0 976.8 NA 0.0000 BR 3700 0 0 0 1080
2019/09/08 04:31:01 BASE 3.37 278 4.22 275 -2.5 100 -2.5 0 0 976.8 NA 0.0000 BR 4400 0 0 0 660
2019/09/08 04:32:01 BASE 3.80 276 4.37 279 -2.5 100 -2.5 0 0 976.8 NA 0.0000 BR 5000 0 0 0 1020
2019/09/08 04:33:01 BASE 3.76 279 4.37 279 -2.5 100 -2.5 0 0 976.8 NA 0.0000 BR 6000 0 0 0 1120
2019/09/08 04:34:01 BASE 3.45 285 4.37 279 -2.5 100 -2.5 0 0 976.8 NA 0.0000 BR 7000 0 0 0 1150
2019/09/08 04:35:01 BASE 3.65 293 4.37 279 -2.5 100 -2.5 0 0 976.8 NA 0.0000 BR 9000 0 0 0 1280
2019/09/08 04:36:01 BASE 3.86 294 4.37 298 -2.5 100 -2.5 0 0 976.8 NA 0.0000 BR 9999 0 0 0 1250
2019/09/08 04:37:01 BASE 3.93 293 4.37 298 -2.5 100 -2.5 0 0 976.8 NA 0.0000 BR 9999 0 0 0 1020
2019/09/08 04:38:01 BASE 3.50 291 4.37 298 -2.5 100 -2.5 0 0 976.8 NA 0.0000 BR 9999 0 0 0 1050
2019/09/08 04:39:01 BASE 3.27 293 4.37 298 -2.5 100 -2.5 0 0 976.8 NA 0.0000 BR 9999 260 0 0 0
2019/09/08 04:40:01 BASE 3.65 296 4.37 298 -2.5 100 -2.5 0 0 976.8 NA 0.0000 BR 9999 230 0 0 0
2019/09/08 04:41:01 BASE 3.70 296 4.37 298 -2.5 100 -2.5 0 0 976.7 NA 0.0000 BR 9999 300 0 0 0
2019/09/08 04:42:01 BASE 3.51 296 4.37 298 -2.6 100 -2.6 0 0 976.7 NA 0.0000 9999 330 0 0 0
2019/09/08 04:43:01 BASE 3.30 298 4.37 298 -2.6 100 -2.6 0 0 976.8 NA 0.0000 9999 300 0 0 0
2019/09/08 04:44:01 BASE 3.11 299 4.37 298 -2.6 100 -2.6 0 0 976.7 NA 0.0000 9999 330 0 0 0
2019/09/08 04:45:01 BASE 3.12 301 4.37 298 -2.6 100 -2.6 0 0 976.7 NA 0.0000 9999 230 0 0 0
2019/09/08 04:46:00 BASE 3.29 307 4.32 291 -2.6 100 -2.6 0 0 976.7 NA 0.0000 9999 230 0 0 0
2019/09/08 04:47:00 BASE 3.30 307 4.01 299 -2.6 100 -2.6 0 0 976.7 NA 0.0000 9999 300 1210 0 0
2019/09/08 04:48:00 BASE 3.20 304 4.01 299 -2.6 100 -2.6 0 0 976.7 NA 0.0000 9999 300 980 0 0
2019/09/08 04:49:00 BASE 3.38 303 4.01 299 -2.6 100 -2.6 0 0 976.7 NA 0.0000 9999 230 0 0 0
2019/09/08 04:50:00 BASE 3.47 303 3.96 297 -2.6 100 -2.6 0 0 976.7 NA 0.0000 9999 200 0 0 0
2019/09/08 04:51:00 BASE 3.34 299 3.96 297 -2.6 100 -2.6 0 0 976.7 NA 0.0000 9999 230 0 0 0
2019/09/08 04:52:00 BASE 3.09 296 3.81 305 -2.6 100 -2.6 0 0 976.7 NA 0.0000 9999 300 0 0 0
2019/09/08 04:53:00 BASE 2.95 296 3.81 305 -2.6 100 -2.6 0 0 976.7 NA 0.0000 9999 230 0 0 0
2019/09/08 04:54:00 BASE 2.87 293 3.81 305 -2.6 100 -2.6 0 0 976.7 NA 0.0000 9000 0 0 0 1410
2019/09/08 04:55:00 BASE 2.58 295 3.81 305 -2.6 100 -2.6 0 0 976.7 NA 0.0000 6000 0 0 0 1440
2019/09/08 04:56:00 BASE 2.30 299 3.81 305 -2.6 100 -2.6 0 0 976.7 NA 0.0000 4800 560 0 0 0
2019/09/08 04:57:00 BASE 2.28 299 3.81 305 -2.6 100 -2.6 0 0 976.7 NA 0.0000 BR 4600 720 0 0 0
2019/09/08 04:58:00 BASE 2.37 297 3.81 305 -2.6 100 -2.6 0 0 976.7 NA 0.0000 BR 5000 850 0 0 0
2019/09/08 04:59:00 BASE 2.47 297 3.81 305 -2.6 100 -2.6 0 0 976.7 NA 0.0000 BR 6000 590 0 0 0
2019/09/08 05:00:00 BASE 2.63 297 3.34 294 -2.6 100 -2.6 0 0 976.7 NA 0.0000 BR 9999 620 0 0 0
2019/09/08 05:01:00 BASE 2.72 298 3.14 296 -2.6 100 -2.6 0 0 976.7 NA 0.0000 BR 9999 460 1120 0 0
2019/09/08 05:02:00 BASE 2.83 296 3.50 293 -2.6 100 -2.6 0 0 976.7 NA 0.0000 BR 9999 360 0 0 0
2019/09/08 05:03:00 BASE 2.83 290 3.50 293 -2.6 100 -2.6 0 0 976.7 NA 0.0000 BR 9999 300 0 0 0
2019/09/08 05:04:00 BASE 2.73 284 3.50 293 -2.6 100 -2.6 0 0 976.7 NA 0.0000 BR 9999 300 0 0 0
2019/09/08 05:05:00 BASE 2.66 282 3.50 293 -2.6 100 -2.6 0 0 976.7 NA 0.0000 BR 9999 300 0 0 0
2019/09/08 05:06:00 BASE 2.73 282 3.50 293 -2.6 100 -2.6 0 0 976.7 NA 0.0000 BR 9999 330 0 0 0
2019/09/08 05:07:00 BASE 3.14 284 3.65 280 -2.6 100 -2.6 0 0 976.7 NA 0.0000 9999 260 0 0 0
2019/09/08 05:08:00 BASE 3.39 286 3.65 279 -2.6 100 -2.6 0 0 976.7 NA 0.0000 9999 360 0 0 0
2019/09/08 05:09:00 BASE 3.05 288 3.65 279 -2.6 100 -2.6 0 0 976.7 NA 0.0000 9999 300 1180 0 0
2019/09/08 05:10:00 BASE 2.77 289 3.65 279 -2.6 100 -2.6 0 0 976.7 NA 0.0000 9999 260 720 0 0
2019/09/08 05:11:00 BASE 3.03 287 3.65 279 -2.6 100 -2.6 0 0 976.7 NA 0.0000 9999 300 720 0 0
2019/09/08 05:12:00 BASE 3.05 282 3.65 279 -2.6 100 -2.6 0 0 976.7 NA 0.0000 9999 300 1080 0 0
2019/09/08 05:13:00 BASE 2.94 277 3.65 279 -2.6 100 -2.6 0 0 976.8 NA 0.0000 9999 300 820 0 0
2019/09/08 05:14:00 BASE 2.86 281 3.65 279 -2.6 100 -2.6 0 0 976.8 NA 0.0000 9999 430 0 0 0
2019/09/08 05:15:00 BASE 2.77 285 3.65 279 -2.6 100 -2.6 0 0 976.8 NA 0.0000 9999 300 0 0 0
2019/09/08 05:16:00 BASE 2.68 282 3.65 279 -2.6 100 -2.6 0 0 976.8 NA 0.0000 9999 300 1280 0 0
2019/09/08 05:17:00 BASE 2.48 281 3.65 279 -2.6 100 -2.6 0 0 976.8 NA 0.0000 9999 260 1310 0 0
2019/09/08 05:18:00 BASE 2.60 283 3.55 290 -2.6 100 -2.6 0 0 976.8 NA 0.0000 9999 260 1350 0 0
2019/09/08 05:19:00 BASE 2.75 283 3.55 290 -2.6 100 -2.6 0 0 976.8 NA 0.0000 9999 300 0 0 0
2019/09/08 05:20:00 BASE 2.66 285 3.55 290 -2.6 100 -2.6 0 0 976.9 NA 0.0000 9999 300 0 0 0
2019/09/08 05:21:00 BASE 2.50 286 3.45 284 -2.6 100 -2.6 0 0 976.9 NA 0.0000 9999 230 0 0 0
2019/09/08 05:22:00 BASE 2.62 286 3.45 284 -2.6 100 -2.6 0 0 977.0 NA 0.0000 9999 230 0 0 0
2019/09/08 05:23:00 BASE 2.86 284 3.45 284 -2.6 100 -2.6 0 0 977.0 NA 0.0000 9999 230 0 0 0
2019/09/08 05:24:00 BASE 2.64 279 3.45 284 -2.6 100 -2.6 0 0 977.0 NA 0.0000 9999 260 0 0 0
2019/09/08 05:25:00 BASE 2.62 276 3.40 287 -2.6 100 -2.6 0 0 977.0 NA 0.0000 9999 230 0 0 0
2019/09/08 05:26:00 BASE 2.62 285 3.40 287 -2.6 100 -2.6 0 0 977.0 NA 0.0000 9999 160 0 0 0
2019/09/08 05:27:00 BASE 2.57 293 3.40 287 -2.6 100 -2.6 0 0 977.0 NA 0.0000 9999 160 0 0 0
2019/09/08 05:28:00 BASE 2.86 295 3.40 287 -2.6 100 -2.6 0 0 977.0 NA 0.0000 9999 0 0 0 1280
2019/09/08 05:29:00 BASE 2.95 297 3.40 287 -2.6 100 -2.6 0 0 977.0 NA 0.0000 9999 0 0 0 1310
2019/09/08 05:30:00 BASE 2.93 297 3.40 287 -2.6 100 -2.6 0 0 977.1 NA 0.0000 9999 0 0 0 1020
2019/09/08 05:31:00 BASE 2.89 293 3.40 287 -2.6 100 -2.6 0 0 977.1 NA 0.0000 9999 0 0 0 1210
2019/09/08 05:32:00 BASE 2.79 291 3.40 287 -2.6 100 -2.6 0 0 977.1 NA 0.0000 9999 200 0 0 0
2019/09/08 05:33:00 BASE 2.71 293 3.29 291 -2.6 100 -2.6 0 0 977.1 NA 0.0000 8000 0 0 0 1350
2019/09/08 05:34:00 BASE 2.59 296 3.29 291 -2.6 100 -2.6 0 0 977.1 NA 0.0000 7000 0 0 0 1350
2019/09/08 05:35:00 BASE 2.70 298 3.29 291 -2.6 100 -2.6 0 0 977.1 NA 0.0000 8000 0 0 0 1180
2019/09/08 05:36:00 BASE 2.99 298 3.40 295 -2.5 100 -2.5 0 0 977.1 NA 0.0000 BR 9000 0 0 0 1080
2019/09/08 05:37:00 BASE 3.05 298 3.40 295 -2.5 100 -2.5 0 0 977.1 NA 0.0000 BR 8000 0 0 0 850
2019/09/08 05:38:00 BASE 3.20 299 3.65 298 -2.5 100 -2.5 0 0 977.1 NA 0.0000 BR 8000 0 0 0 820
2019/09/08 05:39:00 BASE 3.27 298 3.65 298 -2.5 100 -2.5 0 0 977.1 NA 0.0000 BR 8000 0 0 0 820
2019/09/08 05:40:00 BASE 3.13 291 3.65 298 -2.5 100 -2.5 0 0 977.1 NA 0.0000 BR 6000 0 0 0 720
2019/09/08 05:41:00 BASE 2.91 285 3.65 298 -2.5 100 -2.5 0 0 977.1 NA 0.0000 BR 5000 0 0 0 850
2019/09/08 05:42:00 BASE 2.72 281 3.65 298 -2.4 100 -2.4 0 0 977.1 NA 0.0000 BR 6000 0 0 0 790
2019/09/08 05:43:00 BASE 2.87 273 3.65 298 -2.4 100 -2.4 0 0 977.1 NA 0.0000 BR 7000 0 0 0 750
2019/09/08 05:44:00 BASE 2.64 271 3.65 298 -2.4 100 -2.4 0 0 977.1 NA 0.0000 BR 8000 0 0 0 1150
2019/09/08 05:45:00 BASE 2.30 274 3.65 298 -2.4 100 -2.4 0 0 977.1 NA 0.0000 BR 7000 0 0 0 1120
2019/09/08 05:46:00 BASE 2.33 273 3.65 298 -2.4 100 -2.4 0 0 977.1 NA 0.0000 BR 6000 0 0 0 1020
2019/09/08 05:47:00 BASE 2.37 271 3.65 298 -2.4 100 -2.4 0 0 977.1 NA 0.0000 BR 7000 0 0 0 1080
2019/09/08 05:48:00 BASE 2.36 272 3.60 272 -2.4 100 -2.4 0 0 977.1 NA 0.0000 BR 7000 0 0 0 1180
2019/09/08 05:49:00 BASE 2.53 279 3.60 272 -2.4 100 -2.4 0 0 977.1 NA 0.0000 BR 6000 0 0 0 1050
2019/09/08 05:50:00 BASE 2.68 282 3.60 272 -2.4 100 -2.4 0 0 977.1 NA 0.0000 BR 6000 0 0 0 1120
2019/09/08 05:51:00 BASE 2.22 277 3.60 272 -2.4 100 -2.4 0 0 977.1 NA 0.0000 BR 9000 200 0 0 0
2019/09/08 05:52:01 BASE 1.85 275 3.60 272 -2.5 100 -2.5 0 0 977.1 NA 0.0000 BR 9999 230 0 0 0
2019/09/08 05:53:01 BASE 1.98 278 3.29 289 -2.4 100 -2.4 0 0 977.1 NA 0.0000 BR 9999 230 0 0 0
2019/09/08 05:54:01 BASE 2.34 280 3.29 289 -2.4 100 -2.4 0 0 977.2 NA 0.0000 BR 9999 230 0 0 0
2019/09/08 05:55:01 BASE 2.40 285 3.29 289 -2.4 100 -2.4 0 0 977.2 NA 0.0000 BR 9999 260 0 0 0
2019/09/08 05:56:01 BASE 2.23 288 3.29 289 -2.4 100 -2.4 0 0 977.2 NA 0.0000 BR 9999 300 0 0 0
2019/09/08 05:57:01 BASE 2.19 289 3.29 289 -2.4 100 -2.4 0 0 977.2 NA 0.0000 9999 330 0 0 0
2019/09/08 05:58:01 BASE 2.06 290 3.29 289 -2.4 100 -2.4 0 0 977.2 NA 0.0000 9999 300 0 0 0
2019/09/08 05:59:01 BASE 2.03 290 3.29 289 -2.4 100 -2.4 0 0 977.3 NA 0.0000 9999 260 0 0 0
2019/09/08 06:00:01 BASE 2.11 291 2.88 280 -2.4 100 -2.4 0 0 977.3 NA 0.0000 9000 260 0 0 0
2019/09/08 06:01:01 BASE 2.25 290 2.88 280 -2.4 100 -2.4 0 0 977.3 NA 0.0000 8000 230 0 0 0
2019/09/08 06:02:01 BASE 2.53 285 3.24 285 -2.4 100 -2.4 0 0 977.2 NA 0.0000 9000 260 0 0 0
2019/09/08 06:03:01 BASE 2.70 277 3.55 268 -2.4 100 -2.4 0 0 977.2 NA 0.0000 9000 230 0 0 0
2019/09/08 06:04:01 BASE 2.70 274 3.55 270 -2.4 100 -2.4 0 0 977.2 NA 0.0000 9999 200 0 0 0
2019/09/08 06:05:01 BASE 2.57 272 3.55 270 -2.4 100 -2.4 0 0 977.2 NA 0.0000 9999 0 0 0 950
2019/09/08 06:06:01 BASE 2.33 270 3.55 270 -2.4 100 -2.4 0 0 977.2 NA 0.0000 9999 230 0 0 0
2019/09/08 06:07:01 BASE 2.27 269 3.55 270 -2.5 100 -2.5 0 0 977.2 NA 0.0000 9999 230 0 0 0
2019/09/08 06:08:01 BASE 2.16 266 3.55 270 -2.5 100 -2.5 0 0 977.2 NA 0.0000 9999 200 0 0 0
2019/09/08 06:09:01 BASE 2.17 266 3.55 270 -2.5 100 -2.5 0 0 977.2 NA 0.0000 9000 0 0 0 1210
2019/09/08 06:10:01 BASE 2.33 271 3.55 270 -2.5 100 -2.5 0 0 977.2 NA 0.0000 BR 6000 0 0 0 1280
2019/09/08 06:11:01 BASE 2.33 280 3.55 270 -2.5 100 -2.5 0 0 977.2 NA 0.0000 BR 5000 0 0 0 1180
2019/09/08 06:12:01 BASE 2.35 282 3.55 270 -2.5 100 -2.5 0 0 977.2 NA 0.0000 BR 3800 0 0 0 1250
2019/09/08 06:13:01 BASE 2.21 283 3.55 270 -2.5 100 -2.5 0 0 977.2 NA 0.0000 BR 4000 0 0 0 1210
2019/09/08 06:14:01 BASE 2.30 283 3.24 269 -2.5 100 -2.5 0 0 977.2 NA 0.0000 BR 4800 0 0 0 1510
2019/09/08 06:15:01 BASE 2.48 285 2.98 295 -2.5 100 -2.5 0 0 977.2 NA 0.0000 BR 7000 230 790 0 0
2019/09/08 06:16:01 BASE 2.54 286 2.98 295 -2.4 100 -2.4 0 0 977.2 NA 0.0000 BR 9999 260 0 0 0
2019/09/08 06:17:01 BASE 2.42 287 2.98 295 -2.4 100 -2.4 0 0 977.2 NA 0.0000 UP BR 9999 330 0 0 0
2019/09/08 06:18:01 BASE 2.15 295 2.98 295 -2.5 100 -2.5 0 0 977.2 NA 0.0000 UP BR 9000 590 0 0 0
2019/09/08 06:19:01 BASE 2.08 305 2.98 295 -2.5 100 -2.5 0 0 977.2 NA 0.0000 UP BR 9000 560 0 0 0
2019/09/08 06:20:01 BASE 2.09 310 2.98 295 -2.5 100 -2.5 0 0 977.2 NA 0.0000 UP BR 9999 820 0 0 0
2019/09/08 06:21:01 BASE 2.09 313 2.98 295 -2.5 100 -2.5 0 0 977.2 NA 0.0000 UP BR 9999 920 0 0 0
2019/09/08 06:22:01 BASE 2.13 315 2.98 295 -2.5 100 -2.5 0 0 977.2 NA 0.0000 UP BR 9999 750 0 0 0
2019/09/08 06:23:01 BASE 2.19 319 2.98 295 -2.5 100 -2.5 0 0 977.3 NA 0.0000 UP BR 9999 790 0 0 0
2019/09/08 06:24:01 BASE 2.24 319 2.98 295 -2.5 100 -2.5 0 0 977.3 NA 0.0000 UP 9999 1050 0 0 0
2019/09/08 06:25:01 BASE 2.50 313 2.88 289 -2.5 100 -2.5 0 0 977.3 NA 0.0000 UP 9000 590 0 0 0
2019/09/08 06:26:01 BASE 2.69 310 2.83 307 -2.5 100 -2.5 0 0 977.3 NA 0.0000 UP 9999 260 920 0 0
2019/09/08 06:27:01 BASE 2.79 313 3.04 314 -2.5 100 -2.5 0 0 977.3 NA 0.0000 UP 9999 260 1250 0 0
2019/09/08 06:28:01 BASE 2.91 317 3.14 320 -2.5 100 -2.5 0 0 977.3 NA 0.0000 UP 9000 230 0 0 0
2019/09/08 06:29:01 BASE 3.01 320 3.19 325 -2.5 100 -2.5 0 0 977.3 NA 0.0000 UP 7000 200 0 0 0
2019/09/08 06:30:01 BASE 3.11 321 3.76 310 -2.5 100 -2.5 0 0 977.2 NA 0.0000 UP 9000 200 0 0 0
2019/09/08 06:31:01 BASE 3.40 312 3.91 301 -2.5 100 -2.5 0 0 977.2 NA 0.0000 UP BR 8000 0 0 0 920
2019/09/08 06:32:01 BASE 3.46 299 3.91 301 -2.5 100 -2.5 0 0 977.3 NA 0.0000 UP BR 7000 0 0 0 1150
2019/09/08 06:33:01 BASE 3.10 287 3.91 301 -2.5 100 -2.5 0 0 977.3 NA 0.0000 UP BR 7000 230 0 0 0
2019/09/08 06:34:01 BASE 3.23 282 3.91 301 -2.5 100 -2.5 0 0 977.3 NA 0.0000 UP BR 9000 0 0 0 890
2019/09/08 06:35:01 BASE 3.44 281 3.91 301 -2.5 100 -2.5 0 0 977.3 NA 0.0000 UP BR 9000 0 0 0 1250
2019/09/08 06:36:01 BASE 3.12 277 3.91 301 -2.5 100 -2.5 0 0 977.3 NA 0.0000 UP BR 7000 0 0 0 1250
2019/09/08 06:37:01 BASE 3.01 275 3.91 271 -2.5 100 -2.5 0 0 977.3 NA 0.0000 UP BR 7000 260 0 0 0
2019/09/08 06:38:01 BASE 2.94 275 3.91 271 -2.5 100 -2.5 0 0 977.2 NA 0.0000 UP BR 7000 300 0 0 0
2019/09/08 06:39:01 BASE 2.79 275 3.91 271 -2.5 100 -2.5 0 0 977.2 NA 0.0000 UP BR 8000 300 790 0 0
2019/09/08 06:40:01 BASE 3.04 275 3.91 271 -2.5 100 -2.5 0 0 977.3 NA 0.0000 UP BR 9999 260 0 0 0
2019/09/08 06:41:01 BASE 2.95 271 3.91 271 -2.5 100 -2.5 0 0 977.2 NA 0.0000 UP BR 9999 300 0 0 0
2019/09/08 06:42:01 BASE 2.57 264 3.91 271 -2.5 100 -2.5 0 0 977.3 NA 0.0000 UP BR 9999 430 0 0 0
2019/09/08 06:43:01 BASE 2.44 262 3.91 271 -2.5 100 -2.5 0 0 977.3 NA 0.0000 UP BR 9999 360 920 0 0
2019/09/08 06:44:01 BASE 2.47 263 3.91 271 -2.5 100 -2.5 0 0 977.3 NA 0.0000 UP BR 9999 390 1080 0 0
2019/09/08 06:45:01 BASE 2.38 264 3.91 271 -2.5 100 -2.5 0 0 977.3 NA 0.0000 UP 9999 360 0 0 0
2019/09/08 06:46:01 BASE 2.01 268 3.91 271 -2.5 100 -2.5 0 0 977.3 NA 0.0000 UP 9999 300 0 0 0
2019/09/08 06:47:01 BASE 1.98 267 3.60 272 -2.5 100 -2.5 0 0 977.3 NA 0.0000 UP 7000 0 0 0 1870
2019/09/08 06:48:01 BASE 2.35 263 3.60 272 -2.5 100 -2.5 0 0 977.3 NA 0.0000 UP BR 5000 0 0 0 2260
2019/09/08 06:49:01 BASE 2.56 259 3.55 271 -2.5 100 -2.5 0 0 977.3 NA 0.0000 -SN BR 5000 0 0 0 2030
2019/09/08 06:50:01 BASE 2.73 258 3.24 254 -2.5 100 -2.5 0 0 977.3 NA 0.0000 -SN BR 6000 200 0 0 0
2019/09/08 06:51:01 BASE 2.96 256 3.29 254 -2.5 100 -2.5 0 0 977.3 NA 0.0000 -SN BR 7000 230 0 0 0
2019/09/08 06:52:01 BASE 2.99 256 3.29 254 -2.5 100 -2.5 0 0 977.3 NA 0.0000 -SN BR 7000 230 0 0 0
2019/09/08 06:53:01 BASE 2.82 254 3.29 254 -2.5 100 -2.5 0 0 977.3 NA 0.0000 -SN BR 8000 0 0 0 1940
2019/09/08 06:54:01 BASE 2.61 251 3.29 254 -2.5 100 -2.5 0 0 977.3 NA 0.0000 -SN BR 7000 0 0 0 1740
2019/09/08 06:55:01 BASE 2.70 248 3.55 242 -2.5 100 -2.5 0 0 977.3 NA 0.0000 -SN BR 7000 0 0 0 1380
2019/09/08 06:56:01 BASE 3.15 249 3.81 252 -2.5 100 -2.5 0 0 977.3 NA 0.0000 -SN BR 7000 0 0 0 1480
2019/09/08 06:57:01 BASE 3.46 251 4.06 253 -2.5 100 -2.5 0 0 977.3 NA 0.0000 -SN BR 8000 260 0 0 0
2019/09/08 06:58:01 BASE 3.44 253 4.06 253 -2.5 100 -2.5 0 0 977.3 NA 0.0000 -SN BR 5000 0 0 0 1870
2019/09/08 06:59:01 BASE 2.93 257 4.06 253 -2.5 100 -2.5 0 0 977.3 NA 0.0000 -SN BR 4700 230 0 0 0
2019/09/08 07:00:01 BASE 2.55 256 4.06 253 -2.5 100 -2.5 0 0 977.3 NA 0.0000 -SN BR 6000 0 0 0 1740
2019/09/08 07:01:01 BASE 2.61 253 4.06 253 -2.5 100 -2.5 0 0 977.4 NA 0.0000 -SN BR 4400 0 0 0 1280
2019/09/08 07:02:01 BASE 3.05 255 4.06 253 -2.5 100 -2.5 0 0 977.4 NA 0.0000 -SN BR 4800 0 0 0 1180
2019/09/08 07:03:01 BASE 3.52 261 4.06 253 -2.5 100 -2.5 0 0 977.4 NA 0.0000 -SN BR 6000 0 0 0 1210
2019/09/08 07:04:01 BASE 3.51 257 4.06 260 -2.5 100 -2.5 0 0 977.4 NA 0.0000 -SN BR 8000 0 0 0 1350
2019/09/08 07:05:01 BASE 3.38 253 4.06 260 -2.5 100 -2.5 0 0 977.4 NA 0.0000 -SN BR 9000 0 0 0 1740
2019/09/08 07:06:01 BASE 3.43 257 4.06 260 -2.5 100 -2.5 0 0 977.4 NA 0.0000 -SN BR 9999 0 0 0 1350
2019/09/08 07:07:00 BASE 3.44 259 4.06 260 -2.5 100 -2.5 0 0 977.4 NA 0.0000 -SN BR 9999 0 0 0 1150
2019/09/08 07:08:00 BASE 3.45 260 4.06 260 -2.5 100 -2.5 0 0 977.4 NA 0.0000 -SN BR 9999 0 0 0 980
2019/09/08 07:09:00 BASE 3.83 256 4.48 243 -2.5 100 -2.5 0 0 977.4 NA 0.0000 -SN BR 9999 0 0 0 1280
2019/09/08 07:10:00 BASE 4.09 254 4.48 261 -2.5 100 -2.5 0 0 977.4 NA 0.0000 -SN BR 9999 0 0 0 2000
2019/09/08 07:11:00 BASE 3.96 254 4.48 261 -2.5 100 -2.5 0 0 977.4 NA 0.0000 -SN BR 7000 0 0 0 2070
2019/09/08 07:12:00 BASE 3.65 256 4.48 261 -2.5 100 -2.5 0 0 977.4 NA 0.0000 -SN BR 9000 330 0 0 0
2019/09/08 07:13:00 BASE 3.70 257 4.48 261 -2.5 100 -2.5 0 0 977.4 NA 0.0000 -SN 9999 330 0 0 0
2019/09/08 07:14:00 BASE 3.82 257 4.48 261 -2.5 100 -2.5 0 0 977.3 NA 0.0000 -SN 9999 330 0 0 0
2019/09/08 07:15:00 BASE 3.63 261 4.48 261 -2.5 100 -2.5 0 0 977.4 NA 0.0000 -SN 9999 360 0 0 0
2019/09/08 07:16:00 BASE 3.96 263 5.20 262 -2.5 100 -2.5 0 0 977.3 NA 0.0000 -SN 9999 390 0 0 0
2019/09/08 07:17:00 BASE 4.68 261 5.50 249 -2.5 100 -2.5 0 0 977.4 NA 0.0000 -SN 9999 360 0 0 0
2019/09/08 07:18:00 BASE 5.01 257 5.50 249 -2.5 100 -2.5 0 0 977.4 NA 0.0000 -SN 9999 360 0 0 0
2019/09/08 07:19:00 BASE 4.99 257 5.71 250 -2.5 100 -2.5 0 0 977.4 NA 0.0000 -SN 9999 330 0 0 0
2019/09/08 07:20:00 BASE 4.66 260 5.71 250 -2.5 100 -2.5 0 0 977.4 NA 0.0000 -SN 9999 330 0 0 0
2019/09/08 07:21:00 BASE 4.90 262 6.22 254 -2.5 100 -2.5 0 0 977.4 NA 0.0000 -SN 9999 330 0 0 0
2019/09/08 07:22:00 BASE 5.03 259 6.22 254 -2.5 100 -2.5 0 0 977.4 NA 0.0000 -SN 9999 330 0 0 0
2019/09/08 07:23:00 BASE 4.57 253 6.22 254 -2.5 100 -2.5 0 0 977.4 NA 0.0000 9999 330 0 0 0
2019/09/08 07:24:00 BASE 4.47 247 6.22 254 -2.5 100 -2.5 0 0 977.5 NA 0.0000 9999 260 0 0 0
2019/09/08 07:25:00 BASE 4.83 245 6.22 254 -2.5 100 -2.5 0 0 977.5 NA 0.0000 9999 360 850 0 0
2019/09/08 07:26:00 BASE 5.23 245 6.22 254 -2.5 100 -2.5 0 0 977.5 NA 0.0000 9999 520 1710 0 0
2019/09/08 07:27:00 BASE 5.30 243 6.22 254 -2.5 100 -2.5 0 0 977.5 NA 0.0000 9999 520 1610 0 0
2019/09/08 07:28:00 BASE 5.15 244 6.22 254 -2.6 100 -2.6 0 0 977.5 NA 0.0000 9999 460 1770 0 0
2019/09/08 07:29:00 BASE 4.74 246 6.22 254 -2.6 100 -2.6 0 0 977.5 NA 0.0000 9999 460 1670 0 0
2019/09/08 07:30:00 BASE 4.46 249 6.22 254 -2.6 100 -2.6 0 0 977.5 NA 0.0000 9999 490 1710 0 0
2019/09/08 07:31:00 BASE 4.48 251 5.92 243 -2.6 100 -2.6 0 0 977.4 NA 0.0000 9999 430 0 0 0
2019/09/08 07:32:01 BASE 4.99 253 5.92 243 -2.6 100 -2.6 0 0 977.5 NA 0.0000 9999 360 0 0 0
2019/09/08 07:33:01 BASE 5.29 253 5.92 243 -2.6 100 -2.6 0 0 977.5 NA 0.0000 9999 390 0 0 0
2019/09/08 07:34:01 BASE 5.26 252 6.02 252 -2.6 100 -2.6 0 0 977.5 NA 0.0000 9999 360 0 0 0
2019/09/08 07:35:01 BASE 5.24 252 6.02 252 -2.6 100 -2.6 0 0 977.6 NA 0.0000 9999 490 0 0 0
2019/09/08 07:36:01 BASE 5.23 249 6.17 248 -2.7 100 -2.7 0 0 977.6 NA 0.0000 9999 490 0 0 0
2019/09/08 07:37:01 BASE 5.28 249 6.17 248 -2.7 100 -2.7 0 0 977.6 NA 0.0000 9999 490 0 0 0
2019/09/08 07:38:01 BASE 5.35 249 6.17 248 -2.7 100 -2.7 0 0 977.6 NA 0.0000 9999 460 0 0 0
2019/09/08 07:39:01 BASE 5.67 249 7.20 255 -2.7 100 -2.7 0 0 977.6 NA 0.0000 9999 560 0 0 0
2019/09/08 07:40:01 BASE 6.07 250 7.20 255 -2.7 100 -2.7 0 0 977.7 NA 0.0000 9999 590 0 0 0
2019/09/08 07:41:01 BASE 6.15 248 7.20 255 -2.7 100 -2.7 0 0 977.7 NA 0.0000 9999 490 0 0 0
2019/09/08 07:42:01 BASE 6.18 245 7.20 255 -2.7 100 -2.7 0 0 977.7 NA 0.0000 9999 520 0 0 0
2019/09/08 07:43:01 BASE 6.43 240 7.41 249 -2.8 100 -2.8 0 0 977.7 NA 0.0000 9999 390 0 0 0
2019/09/08 07:44:01 BASE 6.27 242 7.41 249 -2.8 100 -2.8 0 0 977.8 NA 0.0000 9999 360 0 0 0
2019/09/08 07:45:01 BASE 6.38 245 7.72 250 -2.8 100 -2.8 0 0 977.8 NA 0.0000 9999 430 0 0 0
2019/09/08 07:46:01 BASE 6.79 242 7.72 233 -2.8 100 -2.8 0 0 977.8 NA 0.0000 9999 390 0 0 0
2019/09/08 07:47:01 BASE 7.20 242 8.39 240 -2.8 100 -2.8 0 0 977.9 NA 0.0000 9999 330 0 0 0
2019/09/08 07:48:01 BASE 7.80 244 8.49 244 -2.8 100 -2.8 0 0 977.9 NA 0.0000 9999 300 0 0 0
2019/09/08 07:49:01 BASE 7.58 243 8.49 244 -2.8 100 -2.8 0 0 977.9 NA 0.0000 9999 260 0 0 0
2019/09/08 07:50:01 BASE 7.34 241 8.54 237 -2.8 100 -2.8 0 0 977.9 NA 0.0000 9999 260 0 0 0
2019/09/08 07:51:01 BASE 7.84 239 9.21 234 -2.9 100 -2.9 0 0 977.9 NA 0.0000 -SN 9999 230 0 0 0
2019/09/08 07:52:01 BASE 7.68 238 9.21 234 -2.9 100 -2.9 0 0 977.9 NA 0.0000 -SN 9999 330 0 0 0
2019/09/08 07:53:01 BASE 7.36 237 9.21 234 -3.0 100 -3.0 0 0 977.9 NA 0.0000 -SN 9999 360 0 0 0
2019/09/08 07:54:01 BASE 7.79 238 9.21 234 -3.0 100 -3.0 0 0 978.0 NA 0.0000 -SN 9999 460 0 0 0
2019/09/08 07:55:01 BASE 7.90 237 9.21 234 -3.1 100 -3.1 0 0 978.0 NA 0.0000 -SN 9999 390 0 0 0
2019/09/08 07:56:01 BASE 7.19 238 9.21 234 -3.1 100 -3.1 0 0 977.9 NA 0.0000 -SN 9999 390 0 0 0
2019/09/08 07:57:01 BASE 6.96 244 9.21 234 -3.2 100 -3.2 0 0 978.0 NA 0.0000 -SN 9999 360 0 0 0
2019/09/08 07:58:01 BASE 7.50 248 9.21 234 -3.2 100 -3.2 0 0 978.0 NA 0.0000 -SN 9999 360 0 0 0
2019/09/08 07:59:01 BASE 7.71 248 9.21 234 -3.2 100 -3.2 0 0 978.0 NA 0.0000 -SN 9999 390 0 0 0
2019/09/08 08:00:01 BASE 7.91 247 9.21 234 -3.3 100 -3.3 0 0 978.1 NA 0.0000 -SN 9999 430 0 0 0
2019/09/08 08:01:01 BASE 7.76 246 9.11 245 -3.3 100 -3.3 0 0 978.1 NA 0.0000 9999 430 0 0 0
2019/09/08 08:02:01 BASE 7.39 245 9.11 245 -3.3 100 -3.3 0 0 978.1 NA 0.0000 9999 490 0 0 0
2019/09/08 08:03:01 BASE 7.50 248 9.11 245 -3.4 100 -3.4 0 0 978.1 NA 0.0000 9999 560 0 0 0
2019/09/08 08:04:01 BASE 7.15 247 9.11 245 -3.4 100 -3.4 0 0 978.0 NA 0.0000 9999 520 0 0 0
2019/09/08 08:05:01 BASE 6.87 247 9.11 245 -3.4 100 -3.4 0 0 978.1 NA 0.0000 9999 460 0 0 0
2019/09/08 08:06:01 BASE 7.34 248 9.11 245 -3.4 100 -3.4 0 0 978.1 NA 0.0000 9999 520 0 0 0
2019/09/08 08:07:01 BASE 7.09 246 9.11 245 -3.4 100 -3.4 0 0 978.1 NA 0.0000 9999 660 0 0 0
2019/09/08 08:08:01 BASE 6.92 248 9.11 245 -3.4 100 -3.4 0 0 978.1 NA 0.0000 9999 690 0 0 0
2019/09/08 08:09:01 BASE 7.37 251 9.11 245 -3.5 100 -3.5 0 0 978.1 NA 0.0000 9999 820 0 0 0
2019/09/08 08:10:01 BASE 7.00 250 8.64 248 -3.5 100 -3.5 0 0 978.1 NA 0.0000 9999 750 0 0 0
2019/09/08 08:11:01 BASE 6.12 247 8.64 248 -3.5 100 -3.5 0 0 978.1 NA 0.0000 9999 690 0 0 0
2019/09/08 08:12:01 BASE 6.07 251 8.64 248 -3.5 100 -3.5 0 0 978.1 NA 0.0000 9999 750 0 0 0
2019/09/08 08:13:01 BASE 5.73 256 8.49 251 -3.5 100 -3.5 0 0 978.1 NA 0.0000 9999 720 0 0 0
2019/09/08 08:14:01 BASE 6.19 258 8.49 251 -3.5 100 -3.5 0 0 978.1 NA 0.0000 9999 750 0 0 0
2019/09/08 08:15:01 BASE 7.23 253 8.49 251 -3.5 100 -3.5 0 0 978.2 NA 0.0000 9999 390 0 0 0
2019/09/08 08:16:01 BASE 7.05 250 8.18 261 -3.6 100 -3.6 0 0 978.2 NA 0.0000 9999 390 0 0 0
2019/09/08 08:17:01 BASE 6.96 254 8.18 261 -3.6 100 -3.6 0 0 978.2 NA 0.0000 9999 620 0 0 0
2019/09/08 08:18:01 BASE 7.24 257 8.18 261 -3.7 100 -3.7 0 0 978.2 NA 0.0000 9999 520 0 0 0
2019/09/08 08:19:01 BASE 7.01 256 8.18 261 -3.7 100 -3.7 0 0 978.2 NA 0.0000 9999 390 0 0 0
2019/09/08 08:20:01 BASE 6.38 257 8.18 261 -3.8 100 -3.8 0 0 978.2 NA 0.0000 9999 390 0 0 0
2019/09/08 08:21:01 BASE 6.18 258 8.18 261 -3.8 100 -3.8 0 0 978.2 NA 0.0000 9999 460 0 0 0
2019/09/08 08:22:01 BASE 6.30 258 8.18 261 -3.8 100 -3.8 0 0 978.2 NA 0.0000 9999 720 0 0 0
2019/09/08 08:23:01 BASE 6.91 259 8.18 261 -3.8 100 -3.8 0 0 978.2 NA 0.0000 9999 1120 0 0 0
2019/09/08 08:24:01 BASE 7.28 260 8.08 268 -3.8 100 -3.8 0 0 978.2 NA 0.0000 9999 1280 0 0 0
2019/09/08 08:25:01 BASE 6.71 255 8.08 268 -3.8 100 -3.8 0 0 978.3 NA 0.0000 9999 1020 0 0 0
2019/09/08 08:26:01 BASE 6.70 255 8.08 268 -3.9 100 -3.9 0 0 978.3 NA 0.0000 9999 1080 0 0 0
2019/09/08 08:27:01 BASE 7.07 258 8.08 268 -3.9 100 -3.9 0 0 978.3 NA 0.0000 9999 1020 0 0 0
2019/09/08 08:28:01 BASE 6.72 257 8.08 268 -3.9 100 -3.9 0 0 978.3 NA 0.0000 9999 920 0 0 0
2019/09/08 08:29:01 BASE 6.55 261 8.08 268 -3.9 100 -3.9 0 0 978.3 NA 0.0000 9999 720 0 0 0
2019/09/08 08:30:01 BASE 6.52 262 8.08 268 -3.9 100 -3.9 0 0 978.3 NA 0.0000 9999 660 0 0 0
2019/09/08 08:31:01 BASE 6.40 259 8.08 268 -3.9 100 -3.9 0 0 978.3 NA 0.0000 9999 820 1410 0 0
2019/09/08 08:32:01 BASE 6.46 260 8.08 268 -3.9 100 -3.9 0 0 978.3 NA 0.0000 9999 750 1440 0 0
2019/09/08 08:33:01 BASE 6.62 258 7.97 261 -3.9 100 -3.9 0 0 978.3 NA 0.0000 9999 750 1410 0 0
2019/09/08 08:34:01 BASE 6.39 259 7.97 261 -4.0 100 -4.0 0 0 978.4 NA 0.0000 9999 460 1480 0 0
2019/09/08 08:35:01 BASE 6.45 260 7.97 261 -4.0 100 -4.0 0 0 978.4 NA 0.0000 9999 620 0 0 0
2019/09/08 08:36:01 BASE 6.56 255 7.77 258 -4.0 100 -4.0 0 0 978.4 NA 0.0000 9999 690 0 0 0
2019/09/08 08:37:01 BASE 6.31 252 7.77 258 -4.0 100 -4.0 0 0 978.4 NA 0.0000 9999 660 0 0 0
2019/09/08 08:38:01 BASE 6.43 254 7.77 258 -4.0 100 -4.0 0 0 978.4 NA 0.0000 9999 590 0 0 0
2019/09/08 08:39:01 BASE 6.64 254 7.82 247 -4.1 100 -4.1 0 0 978.5 NA 0.0000 9999 520 0 0 0
2019/09/08 08:40:00 BASE 6.70 252 7.92 255 -4.1 100 -4.1 0 0 978.5 NA 0.0000 9999 750 2030 0 0
2019/09/08 08:41:00 BASE 6.47 249 7.92 255 -4.1 100 -4.1 0 0 978.5 NA 0.0000 9999 950 2030 3450 0
2019/09/08 08:42:01 BASE 6.32 245 7.92 255 -4.1 100 -4.1 0 0 978.5 NA 0.0000 9999 690 1210 0 0
2019/09/08 08:43:00 BASE 6.61 243 7.92 255 -4.2 100 -4.2 0 0 978.6 NA 0.0000 9999 590 0 0 0
2019/09/08 08:44:01 BASE 6.75 243 7.92 255 -4.2 100 -4.2 0 0 978.6 NA 0.0000 9999 660 0 0 0
2019/09/08 08:45:01 BASE 6.61 248 7.92 255 -4.2 100 -4.2 0 0 978.7 NA 0.0000 9999 720 1350 0 0
2019/09/08 08:46:01 BASE 6.82 254 8.13 257 -4.3 100 -4.3 0 0 978.7 NA 0.0000 9999 360 1120 0 0
2019/09/08 08:47:01 BASE 7.14 256 8.18 251 -4.3 100 -4.3 0 0 978.8 NA 0.0000 9999 360 0 0 0
2019/09/08 08:48:01 BASE 7.16 252 8.18 251 -4.3 100 -4.3 0 0 978.8 NA 0.0000 9999 360 0 0 0
2019/09/08 08:49:00 BASE 6.98 250 8.18 251 -4.3 100 -4.3 0 0 978.8 NA 0.0000 9999 460 0 0 0
2019/09/08 08:50:00 BASE 7.03 250 8.18 251 -4.3 100 -4.3 0 0 978.9 NA 0.0000 9999 260 0 0 0
2019/09/08 08:51:00 BASE 7.35 252 8.18 251 -4.3 100 -4.3 0 0 978.9 NA 0.0000 9999 360 0 0 0
2019/09/08 08:52:01 BASE 7.44 253 8.18 251 -4.4 100 -4.4 0 0 978.9 NA 0.0000 9999 360 0 0 0
2019/09/08 08:53:01 BASE 7.23 257 8.18 251 -4.4 100 -4.4 0 0 978.9 NA 0.0000 9999 520 0 0 0
2019/09/08 08:54:01 BASE 6.96 259 8.18 251 -4.4 100 -4.5 0 0 978.9 NA 0.0000 9999 490 0 0 0
2019/09/08 08:55:00 BASE 7.11 254 8.23 245 -4.5 100 -4.5 0 0 978.9 NA 0.0000 9999 490 0 0 0
2019/09/08 08:56:01 BASE 6.96 250 8.23 245 -4.5 100 -4.5 0 0 978.9 NA 0.0000 9999 330 0 0 0
2019/09/08 08:57:00 BASE 6.46 251 8.23 245 -4.5 100 -4.5 0 0 978.9 NA 0.0000 9999 590 0 0 0
2019/09/08 08:58:01 BASE 6.37 253 8.23 245 -4.5 100 -4.5 0 0 979.0 NA 0.0000 9999 590 0 0 0
2019/09/08 08:59:00 BASE 6.35 254 8.23 245 -4.5 100 -4.5 0 0 979.0 NA 0.0000 9999 360 0 0 0
2019/09/08 09:00:00 BASE 6.74 256 8.23 245 -4.5 100 -4.5 0 0 979.0 NA 0.0000 9999 390 0 0 0
2019/09/08 09:01:00 BASE 7.31 257 8.28 254 -4.6 100 -4.6 0 0 979.1 NA 0.0000 9999 330 0 0 0
2019/09/08 09:02:01 BASE 6.98 258 8.28 254 -4.6 100 -4.6 0 0 979.1 NA 0.0000 9999 360 0 0 0
2019/09/08 09:03:00 BASE 6.97 259 8.64 247 -4.6 100 -4.6 0 0 979.1 NA 0.0000 9999 360 0 0 0
2019/09/08 09:04:01 BASE 7.67 255 8.64 257 -4.6 100 -4.6 0 0 979.2 NA 0.0000 9999 330 0 0 0
2019/09/08 09:05:00 BASE 7.49 249 8.64 257 -4.6 100 -4.6 0 0 979.2 NA 0.0000 9999 200 0 0 0
2019/09/08 09:06:01 BASE 7.05 246 8.64 257 -4.6 100 -4.6 0 0 979.3 NA 0.0000 9999 560 0 0 0
2019/09/08 09:07:00 BASE 6.64 246 8.64 257 -4.7 100 -4.7 0 0 979.3 NA 0.0000 9999 620 1380 0 0
2019/09/08 09:08:01 BASE 5.97 247 8.64 257 -4.7 100 -4.7 0 0 979.3 NA 0.0000 9999 660 1380 0 0
2019/09/08 09:09:00 BASE 5.45 251 8.64 257 -4.8 100 -4.8 0 0 979.2 NA 0.0000 9999 460 0 0 0
2019/09/08 09:10:00 BASE 5.42 253 8.64 257 -4.8 100 -4.8 0 0 979.2 NA 0.0000 9999 520 1510 0 0
2019/09/08 09:11:00 BASE 5.39 252 8.64 257 -4.8 100 -4.8 0 0 979.2 NA 0.0000 9999 950 0 0 0
2019/09/08 09:12:01 BASE 5.37 252 8.64 257 -4.8 100 -4.8 0 0 979.3 NA 0.0000 9999 750 1640 0 0
2019/09/08 09:13:00 BASE 5.75 254 8.64 257 -4.8 100 -4.8 0 0 979.3 NA 0.0000 9999 920 0 0 0
2019/09/08 09:14:01 BASE 5.99 251 7.97 247 -4.8 100 -4.8 0 0 979.3 NA 0.0000 9999 820 0 0 0
2019/09/08 09:15:00 BASE 6.04 247 7.72 250 -4.9 100 -4.9 0 0 979.4 NA 0.0000 9999 790 0 0 0
2019/09/08 09:16:00 BASE 5.61 249 7.72 250 -4.9 100 -4.9 0 0 979.3 NA 0.0000 9999 660 0 0 0
2019/09/08 09:17:00 BASE 5.24 256 7.72 250 -4.9 100 -4.9 0 0 979.3 NA 0.0000 9999 690 0 0 0
2019/09/08 09:18:01 BASE 5.34 263 7.72 250 -4.9 100 -4.9 0 0 979.4 NA 0.0000 9999 620 0 0 0
2019/09/08 09:19:00 BASE 5.56 263 7.72 250 -4.9 100 -4.9 0 0 979.5 NA 0.0000 9999 560 0 0 0
2019/09/08 09:20:00 BASE 5.90 257 7.72 250 -4.9 100 -4.9 0 0 979.5 NA 0.0000 9999 620 0 0 0
2019/09/08 09:21:00 BASE 6.30 254 7.72 250 -4.9 100 -4.9 0 0 979.6 NA 0.0000 9999 490 0 0 0
2019/09/08 09:22:00 BASE 6.81 254 7.82 254 -4.9 100 -4.9 0 0 979.6 NA 0.0000 9999 520 0 0 0
2019/09/08 09:23:01 BASE 7.03 254 7.82 254 -4.9 100 -4.9 0 0 979.5 NA 0.0000 9999 360 0 0 0
2019/09/08 09:24:00 BASE 6.31 256 7.82 254 -5.0 100 -5.0 0 0 979.5 NA 0.0000 9999 490 0 0 0
2019/09/08 09:25:01 BASE 5.11 263 7.82 254 -5.0 100 -5.0 0 0 979.5 NA 0.0000 9999 390 0 0 0
2019/09/08 09:26:01 BASE 4.90 267 7.82 254 -5.1 100 -5.1 0 0 979.5 NA 0.0000 9999 460 0 0 0
2019/09/08 09:27:00 BASE 5.15 269 7.82 254 -5.1 100 -5.1 0 0 979.4 NA 0.0000 9999 460 0 0 0
2019/09/08 09:28:00 BASE 5.26 267 7.82 254 -5.1 100 -5.1 0 0 979.4 NA 0.0000 9999 330 0 0 0
2019/09/08 09:29:00 BASE 5.58 266 7.82 254 -5.1 100 -5.1 0 0 979.5 NA 0.0000 9999 230 0 0 0
2019/09/08 09:30:00 BASE 5.28 270 7.82 254 -5.1 100 -5.1 0 0 979.5 NA 0.0000 9999 330 0 0 0
2019/09/08 09:31:00 BASE 5.09 274 7.82 254 -5.1 100 -5.1 0 0 979.4 NA 0.0000 9999 360 0 0 0
2019/09/08 09:32:00 BASE 4.89 280 7.51 253 -5.2 100 -5.2 0 0 979.5 NA 0.0000 9999 390 0 0 0
2019/09/08 09:33:00 BASE 4.84 277 6.58 263 -5.2 100 -5.2 0 0 979.5 NA 0.0000 9999 460 0 0 0
2019/09/08 09:34:00 BASE 4.78 270 6.58 263 -5.2 100 -5.2 0 0 979.5 NA 0.0000 9999 490 0 0 0
2019/09/08 09:35:00 BASE 4.89 266 6.58 263 -5.2 100 -5.2 0 0 979.6 NA 0.0000 9999 460 0 0 0
2019/09/08 09:36:00 BASE 5.38 263 6.48 269 -5.2 100 -5.2 0 0 979.6 NA 0.0000 9999 560 0 0 0
2019/09/08 09:37:00 BASE 5.23 264 6.48 269 -5.2 100 -5.2 0 0 979.6 NA 0.0000 9999 460 0 0 0
2019/09/08 09:38:01 BASE 5.44 261 6.48 269 -5.1 100 -5.1 0 0 979.7 NA 0.0000 9999 390 0 0 0
2019/09/08 09:39:00 BASE 6.24 256 7.25 262 -5.1 100 -5.1 0 0 979.7 NA 0.0000 9999 330 0 0 0
2019/09/08 09:40:00 BASE 6.15 262 7.25 262 -5.1 100 -5.1 0 0 979.7 NA 0.0000 9999 230 0 0 0
2019/09/08 09:41:00 BASE 5.54 271 7.25 262 -5.2 100 -5.2 0 0 979.6 NA 0.0000 9999 300 0 0 0
2019/09/08 09:42:00 BASE 5.71 270 7.25 262 -5.2 100 -5.2 0 0 979.7 NA 0.0000 9999 300 0 0 0
2019/09/08 09:43:00 BASE 5.51 266 7.25 262 -5.2 100 -5.2 0 0 979.6 NA 0.0000 9999 260 0 0 0
2019/09/08 09:44:00 BASE 4.83 268 7.25 262 -5.2 100 -5.2 0 0 979.6 NA 0.0000 9999 330 0 0 0
2019/09/08 09:45:00 BASE 4.92 265 7.25 262 -5.2 100 -5.2 0 0 979.6 NA 0.0000 9999 360 0 0 0
2019/09/08 09:46:00 BASE 5.60 267 7.25 262 -5.2 100 -5.2 0 0 979.6 NA 0.0000 9999 260 0 0 0
2019/09/08 09:47:00 BASE 5.81 269 7.82 269 -5.2 100 -5.2 0 0 979.6 NA 0.0000 9999 260 0 0 0
2019/09/08 09:48:00 BASE 5.70 266 7.82 269 -5.2 100 -5.2 0 0 979.6 NA 0.0000 9999 260 0 0 0
2019/09/08 09:49:00 BASE 5.85 267 7.82 269 -5.2 100 -5.2 0 0 979.7 NA 0.0000 9999 230 0 0 0
2019/09/08 09:50:00 BASE 5.85 266 7.82 269 -5.2 100 -5.2 0 0 979.7 NA 0.0000 9999 230 0 0 0
2019/09/08 09:51:00 BASE 5.22 272 7.82 269 -5.2 100 -5.2 0 0 979.6 NA 0.0000 9999 230 0 0 0
2019/09/08 09:52:00 BASE 4.94 274 7.82 269 -5.2 100 -5.2 0 0 979.7 NA 0.0000 9999 230 0 0 0
2019/09/08 09:53:00 BASE 5.17 272 7.82 269 -5.2 100 -5.2 0 0 979.7 NA 0.0000 9999 200 0 0 0
2019/09/08 09:54:00 BASE 6.06 271 7.82 269 -5.2 100 -5.2 0 0 979.7 NA 0.0000 9999 230 0 0 0
2019/09/08 09:55:00 BASE 6.70 265 7.82 269 -5.1 100 -5.1 0 0 979.7 NA 0.0000 9999 0 0 0 820
2019/09/08 09:56:00 BASE 6.48 261 7.82 267 -5.1 100 -5.1 0 0 979.7 NA 0.0000 9999 230 0 0 0
2019/09/08 09:57:00 BASE 7.03 260 8.18 261 -5.1 100 -5.1 0 0 979.8 NA 0.0000 9999 330 0 0 0
2019/09/08 09:58:00 BASE 7.33 259 8.23 256 -5.2 100 -5.2 0 0 979.8 NA 0.0000 9999 260 0 0 0
2019/09/08 09:59:00 BASE 7.21 257 8.23 256 -5.2 100 -5.2 0 0 979.8 NA 0.0000 9999 230 0 0 0
2019/09/08 10:00:00 BASE 7.63 253 9.57 254 -5.2 100 -5.2 0 0 979.9 NA 0.0000 9999 330 0 0 0
2019/09/08 10:01:00 BASE 8.25 252 9.57 254 -5.2 100 -5.2 0 0 979.9 NA 0.0000 9999 200 0 0 0
2019/09/08 10:02:00 BASE 8.08 250 9.57 254 -5.3 100 -5.3 0 0 979.9 NA 0.0000 9999 230 0 0 0
2019/09/08 10:03:00 BASE 6.98 250 9.57 254 -5.3 100 -5.3 0 0 979.8 NA 0.0000 9999 230 0 0 0
2019/09/08 10:04:00 BASE 6.49 257 9.57 254 -5.3 100 -5.3 0 0 979.8 NA 0.0000 9999 230 0 0 0
2019/09/08 10:05:00 BASE 6.65 262 9.57 254 -5.3 100 -5.3 0 0 979.9 NA 0.0000 9999 0 0 0 820
2019/09/08 10:06:00 BASE 6.73 259 9.57 254 -5.3 100 -5.3 0 0 979.9 NA 0.0000 9999 0 0 0 850
2019/09/08 10:07:00 BASE 6.42 262 9.57 254 -5.3 100 -5.3 0 0 979.9 NA 0.0000 9999 0 0 0 890
2019/09/08 10:08:00 BASE 6.29 264 9.57 254 -5.3 100 -5.3 0 0 979.9 NA 0.0000 9999 0 0 0 920
2019/09/08 10:09:00 BASE 6.30 259 9.57 254 -5.3 100 -5.3 0 0 980.0 NA 0.0000 9999 230 0 0 0
2019/09/08 10:10:00 BASE 6.46 256 9.05 251 -5.3 100 -5.3 0 0 980.0 NA 0.0000 9999 230 0 0 0
2019/09/08 10:11:00 BASE 6.86 255 8.64 259 -5.3 100 -5.3 0 0 980.0 NA 0.0000 9999 230 0 0 0
2019/09/08 10:12:00 BASE 6.74 257 8.64 259 -5.3 100 -5.3 0 0 980.0 NA 0.0000 9999 260 0 0 0
2019/09/08 10:13:00 BASE 6.49 260 8.64 259 -5.3 100 -5.3 0 0 980.0 NA 0.0000 9999 0 0 0 950
2019/09/08 10:14:00 BASE 6.33 262 8.64 259 -5.4 100 -5.4 0 0 980.0 NA 0.0000 9999 0 0 0 1080
2019/09/08 10:15:00 BASE 5.94 263 7.72 251 -5.4 100 -5.4 0 0 980.1 NA 0.0000 9999 0 0 0 980
2019/09/08 10:16:00 BASE 5.50 264 7.67 258 -5.4 100 -5.4 0 0 980.0 NA 0.0000 9999 230 0 0 0
2019/09/08 10:17:00 BASE 5.63 260 7.67 258 -5.4 100 -5.4 0 0 980.1 NA 0.0000 9999 230 0 0 0
2019/09/08 10:18:00 BASE 5.85 259 7.67 258 -5.4 100 -5.4 0 0 980.1 NA 0.0000 9999 330 0 0 0
2019/09/08 10:19:00 BASE 6.02 262 7.67 258 -5.4 100 -5.4 0 0 980.1 NA 0.0000 9999 360 0 0 0
2019/09/08 10:20:00 BASE 6.04 263 7.46 260 -5.5 100 -5.5 0 0 980.1 NA 0.0000 9999 360 0 0 0
2019/09/08 10:21:00 BASE 5.57 266 7.46 260 -5.5 100 -5.5 0 0 980.1 NA 0.0000 9999 390 1250 0 0
2019/09/08 10:22:00 BASE 5.14 269 7.46 260 -5.6 100 -5.6 0 0 980.1 NA 0.0000 9999 460 1380 0 0
2019/09/08 10:23:00 BASE 5.50 268 7.15 263 -5.6 100 -5.6 0 0 980.2 NA 0.0000 9999 430 0 0 0
2019/09/08 10:24:00 BASE 6.26 268 7.15 263 -5.7 100 -5.7 0 0 980.2 NA 0.0000 9999 360 0 0 0
2019/09/08 10:25:00 BASE 6.36 265 7.15 258 -5.7 100 -5.7 0 0 980.3 NA 0.0000 9999 430 0 0 0
2019/09/08 10:26:00 BASE 6.62 262 7.41 263 -5.7 100 -5.7 0 0 M NA 0.0000 9999 360 0 0 0
2019/09/08 10:27:00 BASE 5.92 266 7.41 263 -5.7 100 -5.7 0 0 980.4 NA 0.0000 9999 390 0 0 0
2019/09/08 10:28:00 BASE 5.67 263 7.41 254 -5.7 100 -5.7 0 0 980.4 NA 0.0000 9999 390 0 0 0
2019/09/08 10:29:00 BASE 6.53 261 7.51 272 -5.8 100 -5.8 0 0 980.5 NA 0.0000 9999 430 0 0 0
2019/09/08 10:30:00 BASE 6.16 263 7.51 272 -5.8 100 -5.8 0 0 980.5 NA 0.0000 9999 490 0 0 0
2019/09/08 10:31:00 BASE 5.57 259 7.51 272 -5.8 100 -5.8 0 0 980.6 NA 0.0000 9999 520 0 0 0
2019/09/08 10:32:00 BASE 6.25 256 7.72 260 -5.8 100 -5.8 0 0 980.6 NA 0.0000 9999 430 0 0 0
2019/09/08 10:33:00 BASE 6.79 261 7.72 260 -5.8 100 -5.8 0 0 980.6 NA 0.0000 9999 390 0 0 0
2019/09/08 10:34:00 BASE 6.50 265 7.72 260 -5.8 100 -5.8 0 0 980.6 NA 0.0000 9999 360 0 0 0
2019/09/08 10:35:00 BASE 5.88 266 7.72 260 -5.8 100 -5.8 0 0 980.6 NA 0.0000 9999 430 0 0 0
2019/09/08 10:36:00 BASE 5.60 268 7.72 260 -5.8 100 -5.8 0 0 980.6 NA 0.0000 9999 430 0 0 0
2019/09/08 10:37:00 BASE 5.98 266 7.72 260 -5.8 100 -5.8 0 0 980.6 NA 0.0000 9999 460 0 0 0
2019/09/08 10:38:00 BASE 6.28 260 7.72 260 -5.8 100 -5.8 0 0 980.6 NA 0.0000 9999 430 0 0 0
2019/09/08 10:39:00 BASE 5.83 259 7.72 260 -5.8 100 -5.8 0 0 980.6 NA 0.0000 9999 430 0 0 0
2019/09/08 10:40:00 BASE 5.90 259 7.72 260 -5.9 100 -5.9 0 0 980.7 NA 0.0000 9999 390 0 0 0
2019/09/08 10:41:00 BASE 6.19 260 7.72 260 -5.9 100 -5.9 0 0 980.7 NA 0.0000 9999 360 0 0 0
2019/09/08 10:42:00 BASE 5.81 265 7.61 257 -5.9 100 -5.9 0 0 980.7 NA 0.0000 9999 330 0 0 0
2019/09/08 10:43:00 BASE 5.59 268 7.61 257 -5.9 100 -5.9 0 0 980.7 NA 0.0000 9999 360 0 0 0
2019/09/08 10:44:00 BASE 5.92 264 7.61 257 -5.9 100 -5.9 0 0 980.7 NA 0.0000 9999 490 0 0 0
2019/09/08 10:45:00 BASE 6.00 262 7.61 257 -5.9 100 -5.9 0 0 980.8 NA 0.0000 9999 460 0 0 0
2019/09/08 10:46:00 BASE 5.10 263 7.61 257 -5.9 100 -5.9 0 0 980.8 NA 0.0000 9999 520 0 0 0
2019/09/08 10:47:00 BASE 5.48 263 7.61 257 -6.0 100 -6.0 0 0 980.8 NA 0.0000 9999 520 1640 0 0
2019/09/08 10:48:00 BASE 6.30 263 7.61 257 -6.0 100 -6.0 0 0 980.9 NA 0.0000 9999 460 1440 0 0
2019/09/08 10:49:00 BASE 5.69 267 7.61 257 -6.1 100 -6.1 0 0 980.9 NA 0.0000 9999 390 0 0 0
2019/09/08 10:50:00 BASE 5.09 272 7.31 264 -6.1 100 -6.1 0 0 980.9 NA 0.0000 9999 490 0 0 0
2019/09/08 10:51:00 BASE 4.80 272 7.31 264 -6.1 100 -6.1 0 0 980.9 NA 0.0000 9999 460 0 0 0
2019/09/08 10:52:00 BASE 4.96 271 7.31 264 -6.2 100 -6.2 0 0 980.9 NA 0.0000 9999 0 0 0 790
2019/09/08 10:53:00 BASE 5.41 270 7.31 264 -6.1 100 -6.1 0 0 980.9 NA 0.0000 9999 230 0 0 0
2019/09/08 10:54:00 BASE 5.50 272 7.31 264 -6.1 100 -6.1 0 0 980.9 NA 0.0000 9999 330 0 0 0
2019/09/08 10:55:00 BASE 5.61 277 7.46 275 -6.1 100 -6.1 0 0 980.9 NA 0.0000 9999 230 0 0 0
2019/09/08 10:56:00 BASE 5.39 274 7.46 275 -6.1 100 -6.1 0 0 981.0 NA 0.0000 9999 330 0 0 0
2019/09/08 10:57:00 BASE 5.43 265 7.46 275 -6.1 100 -6.1 0 0 981.0 NA 0.0000 9999 490 0 0 0
2019/09/08 10:58:00 BASE 6.10 259 7.46 275 -6.2 100 -6.2 0 0 981.0 NA 0.0000 9999 430 1480 0 0
2019/09/08 10:59:00 BASE 6.49 258 7.61 258 -6.2 100 -6.2 0 0 981.1 NA 0.0000 9999 460 0 0 0
2019/09/08 11:00:00 BASE 6.52 261 7.92 254 -6.2 100 -6.2 0 0 981.1 NA 0.0000 9999 430 0 0 0
2019/09/08 11:01:00 BASE 6.34 260 7.92 254 -6.2 100 -6.2 0 0 981.2 NA 0.0000 9999 360 0 0 0
2019/09/08 11:02:00 BASE 6.26 258 7.92 254 -6.2 100 -6.2 1 0 981.2 NA 0.0000 9999 360 0 0 0
2019/09/08 11:03:00 BASE 6.05 263 7.92 254 -6.2 100 -6.2 1 0 981.2 NA 0.0000 9999 360 1610 0 0
2019/09/08 11:04:00 BASE 5.48 269 7.92 254 -6.2 100 -6.2 1 0 981.1 NA 0.0000 9999 260 0 0 0
2019/09/08 11:05:00 BASE 5.24 267 7.92 254 -6.2 100 -6.2 1 0 981.2 NA 0.0000 9999 300 0 0 0
2019/09/08 11:06:00 BASE 5.68 264 7.92 254 -6.2 100 -6.2 1 0 981.2 NA 0.0000 9999 300 0 0 0
2019/09/08 11:07:00 BASE 5.89 264 7.92 254 -6.2 100 -6.2 1 0 981.2 NA 0.0000 9999 200 0 0 0
2019/09/08 11:08:00 BASE 5.90 271 7.92 254 -6.2 100 -6.2 1 0 981.2 NA 0.0000 9999 0 0 0 820
2019/09/08 11:09:00 BASE 6.00 275 7.92 254 -6.2 100 -6.2 1 0 981.3 NA 0.0000 9999 200 0 0 0
2019/09/08 11:10:00 BASE 5.37 270 7.46 254 -6.2 100 -6.2 1 0 981.3 NA 0.0000 9999 0 0 0 750
2019/09/08 11:11:00 BASE 5.11 271 7.31 278 -6.2 100 -6.2 2 0 981.3 NA 0.0000 9999 0 0 0 790
2019/09/08 11:12:00 BASE 5.77 274 7.31 278 -6.2 100 -6.2 2 0 981.4 NA 0.0000 9999 0 0 0 790
2019/09/08 11:13:00 BASE 5.72 274 7.31 278 -6.2 100 -6.2 2 0 981.4 NA 0.0000 9999 0 0 0 690
2019/09/08 11:14:00 BASE 5.64 275 7.31 278 -6.2 100 -6.2 2 0 981.4 NA 0.0000 9999 0 0 0 690
2019/09/08 11:15:00 BASE 6.10 270 7.31 265 -6.2 100 -6.2 2 0 981.4 NA 0.0000 9999 0 0 0 660
2019/09/08 11:16:00 BASE 5.85 270 7.31 265 -6.3 100 -6.3 3 0 981.4 NA 0.0000 9999 200 0 0 0
2019/09/08 11:17:00 BASE 5.45 266 7.31 265 -6.3 100 -6.3 4 0 981.4 NA 0.0000 9999 430 1640 0 0
2019/09/08 11:18:00 BASE 5.44 260 7.31 265 -6.3 100 -6.3 4 0 981.5 NA 0.0000 9999 490 1640 0 0
2019/09/08 11:19:00 BASE 5.85 264 7.72 264 -6.3 100 -6.3 5 0 981.5 NA 0.0000 9999 520 1640 0 0
2019/09/08 11:20:00 BASE 5.85 265 7.72 264 -6.4 100 -6.4 6 0 981.5 NA 0.0000 9999 1610 0 0 0
2019/09/08 11:21:00 BASE 5.33 263 7.72 264 -6.4 100 -6.4 6 0 981.5 NA 0.0000 9999 430 1670 0 0
2019/09/08 11:22:00 BASE 5.78 265 7.72 264 -6.4 100 -6.4 6 0 981.6 NA 0.0000 9999 300 1710 0 0
2019/09/08 11:23:00 BASE 5.86 270 7.72 264 -6.5 100 -6.5 6 0 981.5 NA 0.0000 9999 260 0 0 0
2019/09/08 11:24:00 BASE 5.79 271 7.72 264 -6.5 100 -6.5 6 0 981.6 NA 0.0000 9999 230 0 0 0
2019/09/08 11:25:00 BASE 5.98 271 7.72 264 -6.5 100 -6.5 6 0 981.6 NA 0.0000 9999 360 0 0 0
2019/09/08 11:26:00 BASE 5.92 273 7.72 264 -6.5 100 -6.5 6 0 981.7 NA 0.0000 9999 330 0 0 0
2019/09/08 11:27:00 BASE 5.74 273 7.72 264 -6.5 100 -6.5 6 0 981.7 NA 0.0000 9999 230 0 0 0
2019/09/08 11:28:00 BASE 5.51 271 7.72 264 -6.5 100 -6.5 6 0 981.7 NA 0.0000 9999 200 0 0 0
2019/09/08 11:29:00 BASE 5.57 269 7.61 267 -6.5 100 -6.5 7 0 981.8 NA 0.0000 9999 0 0 0 720
2019/09/08 11:30:00 BASE 6.32 265 7.72 250 -6.5 100 -6.5 8 0 981.8 NA 0.0000 9999 490 0 0 0
2019/09/08 11:31:00 BASE 6.76 260 7.72 250 -6.5 100 -6.5 8 0 981.9 NA 0.0000 9999 590 0 0 0
2019/09/08 11:32:00 BASE 6.21 261 7.72 250 -6.5 100 -6.5 8 0 981.9 NA 0.0000 9999 790 0 0 0
2019/09/08 11:33:00 BASE 6.37 266 7.97 265 -6.6 100 -6.6 9 0 981.9 NA 0.0000 9999 720 0 0 0
2019/09/08 11:34:00 BASE 6.61 266 7.97 265 -6.6 100 -6.6 10 0 981.9 NA 0.0000 9999 720 1870 0 0
2019/09/08 11:35:00 BASE 6.47 269 7.97 265 -6.7 100 -6.7 10 0 982.0 NA 0.0000 9999 790 1970 0 0
2019/09/08 11:36:00 BASE 6.43 270 7.97 265 -6.7 100 -6.7 10 0 982.0 NA 0.0000 9999 850 2000 0 0
2019/09/08 11:37:00 BASE 6.00 267 7.97 265 -6.7 100 -6.7 10 0 982.0 NA 0.0000 9999 820 2100 0 0
2019/09/08 11:38:00 BASE 5.78 268 7.97 265 -6.8 100 -6.8 11 0 982.0 NA 0.0000 9999 890 2000 0 0
2019/09/08 11:39:00 BASE 5.89 270 7.97 265 -6.8 100 -6.8 11 0 982.0 NA 0.0000 9999 890 1840 0 0
2019/09/08 11:40:00 BASE 5.86 270 7.97 265 -6.8 100 -6.8 10 0 982.1 NA 0.0000 9999 950 1770 0 0
2019/09/08 11:41:00 BASE 5.96 271 7.97 265 -6.8 100 -6.8 10 0 982.0 NA 0.0000 9999 820 1840 0 0
2019/09/08 11:42:00 BASE 6.18 276 7.97 265 -6.8 100 -6.8 11 0 982.1 NA 0.0000 9999 890 1970 0 0
2019/09/08 11:43:00 BASE 6.16 275 7.72 269 -6.9 100 -6.9 12 0 982.1 NA 0.0000 9999 950 2100 0 0
2019/09/08 11:44:00 BASE 5.79 274 7.72 269 -6.9 100 -6.9 13 0 982.1 NA 0.0000 9999 2260 0 0 0
2019/09/08 11:45:00 BASE 5.72 272 7.72 269 -6.9 100 -6.9 14 0 982.1 NA 0.0000 9999 2200 0 0 0
2019/09/08 11:46:00 BASE 5.99 269 7.72 269 -7.0 100 -7.0 15 0 982.1 NA 0.0000 9999 2130 0 0 0
2019/09/08 11:47:00 BASE 5.93 271 7.72 269 -7.0 100 -7.0 16 0 982.2 NA 0.0000 9999 2100 0 0 0
2019/09/08 11:48:00 BASE 5.68 270 7.72 269 -7.0 100 -7.0 16 0 982.2 NA 0.0000 9999 2200 0 0 0
2019/09/08 11:49:00 BASE 5.84 269 7.72 269 -7.0 100 -7.0 17 0 982.2 NA 0.0000 9999 2300 0 0 0
2019/09/08 11:50:00 BASE 5.98 264 7.72 269 -7.0 100 -7.0 17 0 982.2 NA 0.0000 9999 2300 0 0 0
2019/09/08 11:51:00 BASE 5.20 263 7.15 267 -7.0 100 -7.0 17 0 982.2 NA 0.0000 9999 1080 1670 2260 0
2019/09/08 11:52:00 BASE 4.37 267 7.15 267 -7.0 100 -7.0 17 0 982.3 NA 0.0000 9999 1020 1610 2330 0
2019/09/08 11:53:00 BASE 4.75 270 7.15 267 -7.1 100 -7.1 18 0 982.3 NA 0.0000 9999 950 1640 2300 0
2019/09/08 11:54:01 BASE 4.82 275 7.15 267 -7.1 100 -7.1 18 0 982.3 NA 0.0000 9999 950 2260 0 0
2019/09/08 11:55:00 BASE 4.18 273 7.15 267 -7.1 100 -7.1 18 0 982.3 NA 0.0000 9999 920 2300 0 0
2019/09/08 11:56:01 BASE 4.51 270 7.15 267 -7.1 100 -7.1 19 0 982.3 NA 0.0000 9999 2260 0 0 0
2019/09/08 11:57:00 BASE 4.90 273 7.05 265 -7.1 100 -7.1 19 0 982.3 NA 0.0000 9999 850 2230 0 0
2019/09/08 11:58:01 BASE 5.30 271 7.05 265 -7.1 100 -7.1 19 0 982.3 NA 0.0000 9999 2300 0 0 0
2019/09/08 11:59:01 BASE 5.29 268 6.64 263 -7.1 100 -7.1 18 0 982.3 NA 0.0000 9999 2170 0 0 0
2019/09/08 12:00:00 BASE 4.52 270 6.48 267 -7.1 100 -7.1 19 0 982.4 NA 0.0000 9999 2430 0 0 0
2019/09/08 12:01:00 BASE 4.17 276 6.48 267 -7.2 100 -7.2 20 0 982.4 NA 0.0000 9999 2360 0 0 0
2019/09/08 12:02:01 BASE 4.04 274 6.48 267 -7.2 100 -7.2 21 0 982.4 NA 0.0000 9999 2330 0 0 0
2019/09/08 12:03:00 BASE 4.06 274 6.48 267 -7.2 100 -7.2 23 0 982.4 NA 0.0000 9999 2300 0 0 0
2019/09/08 12:04:00 BASE 4.50 271 6.48 267 -7.2 100 -7.2 24 0 982.5 NA 0.0000 9999 2300 0 0 0
2019/09/08 12:05:00 BASE 4.72 259 6.48 267 -7.2 100 -7.2 25 0 982.5 NA 0.0000 9999 2430 0 0 0
2019/09/08 12:06:01 BASE 4.53 258 6.48 267 -7.2 100 -7.2 27 0 982.5 NA 0.0000 9999 2460 0 0 0
2019/09/08 12:07:00 BASE 4.37 264 6.48 267 -7.2 100 -7.2 29 0 982.5 NA 0.0000 9999 2260 0 0 0
2019/09/08 12:08:01 BASE 3.84 270 5.71 273 -7.3 100 -7.3 31 0 982.5 NA 0.0000 9999 2360 0 0 0
2019/09/08 12:09:00 BASE 3.72 276 5.50 251 -7.3 100 -7.3 33 0 982.5 NA 0.0000 9999 2460 0 0 0
2019/09/08 12:10:00 BASE 3.84 275 5.50 251 -7.3 100 -7.3 33 0 982.5 NA 0.0000 9999 2430 0 0 0
2019/09/08 12:11:00 BASE 3.91 278 5.50 251 -7.3 100 -7.3 34 0 982.5 NA 0.0000 9999 2460 0 0 0
2019/09/08 12:12:00 BASE 4.02 279 5.50 251 -7.3 100 -7.3 36 0 982.6 NA 0.0000 9999 2460 21200 0 0
2019/09/08 12:13:00 BASE 4.05 277 5.50 251 -7.3 100 -7.3 37 0 982.6 NA 0.0000 9999 2460 0 0 0
2019/09/08 12:14:00 BASE 4.72 277 6.17 275 -7.2 100 -7.2 36 0 982.7 NA 0.0000 9999 2560 0 0 0
2019/09/08 12:15:00 BASE 4.68 274 6.17 275 -7.2 100 -7.2 37 0 982.7 NA 0.0000 9999 2620 0 0 0
2019/09/08 12:16:01 BASE 4.93 273 6.17 275 -7.2 100 -7.2 38 0 982.7 NA 0.0000 9999 2620 0 0 0
2019/09/08 12:17:01 BASE 4.97 278 6.17 275 -7.2 100 -7.2 38 0 982.7 NA 0.0000 9999 2560 0 0 0
2019/09/08 12:18:00 BASE 4.52 281 6.17 275 -7.3 100 -7.3 39 0 982.7 NA 0.0000 9999 2530 0 0 0
2019/09/08 12:19:00 BASE 4.28 281 6.17 275 -7.3 100 -7.3 39 0 982.7 NA 0.0000 9999 2530 0 0 0
2019/09/08 12:20:00 BASE 4.42 279 6.17 275 -7.3 100 -7.3 37 0 982.7 NA 0.0000 9999 2560 0 0 0
2019/09/08 12:21:00 BASE 4.72 279 6.17 275 -7.3 100 -7.3 36 0 982.7 NA 0.0000 9999 2490 0 0 0
2019/09/08 12:22:01 BASE 4.58 283 6.17 275 -7.3 100 -7.3 37 0 982.7 NA 0.0000 9999 2530 0 0 0
2019/09/08 12:23:00 BASE 4.32 283 6.17 275 -7.3 100 -7.3 37 0 982.7 NA 0.0000 9999 2560 0 0 0
2019/09/08 12:24:00 BASE 3.69 279 6.12 278 -7.3 100 -7.3 37 0 982.8 NA 0.0000 9999 2590 0 0 0
2019/09/08 12:25:00 BASE 3.56 280 6.12 278 -7.4 100 -7.4 37 0 982.8 NA 0.0000 9999 2530 0 0 0
2019/09/08 12:26:00 BASE 3.57 275 5.71 294 -7.4 100 -7.4 37 0 982.8 NA 0.0000 9999 2490 0 0 0
2019/09/08 12:27:00 BASE 3.25 278 5.71 294 -7.4 100 -7.4 38 0 982.9 NA 0.0000 9999 2530 0 0 0
2019/09/08 12:28:00 BASE 3.41 284 5.71 294 -7.4 100 -7.4 39 0 982.9 NA 0.0000 9999 2590 0 0 0
2019/09/08 12:29:00 BASE 3.58 281 5.71 294 -7.4 100 -7.4 39 0 982.9 NA 0.0000 9999 2530 0 0 0
2019/09/08 12:30:00 BASE 3.62 281 5.71 294 -7.3 100 -7.3 40 0 982.9 NA 0.0000 9999 2530 0 0 0
2019/09/08 12:31:00 BASE 4.96 284 6.69 281 -7.3 100 -7.3 41 0 982.9 NA 0.0000 9999 2460 0 0 0
2019/09/08 12:32:00 BASE 5.77 285 6.69 281 -7.4 100 -7.4 44 0 982.9 NA 0.0000 9999 2560 0 0 0
2019/09/08 12:33:00 BASE 5.58 287 6.69 281 -7.5 100 -7.5 48 0 982.9 NA 0.0000 9999 2530 0 0 0
2019/09/08 12:34:00 BASE 5.54 285 6.69 281 -7.5 100 -7.5 51 0 983.0 NA 0.0000 9999 2260 0 0 0
2019/09/08 12:35:00 BASE 5.21 287 6.69 281 -7.6 100 -7.6 52 0 982.9 NA 0.0000 9999 2590 0 0 0
2019/09/08 12:36:00 BASE 5.37 293 6.69 281 -7.7 100 -7.7 55 0 982.9 NA 0.0000 9999 1080 2590 0 0
2019/09/08 12:37:00 BASE 5.44 290 6.69 281 -7.7 100 -7.7 60 0 983.0 NA 0.0000 9999 2230 2760 0 0
2019/09/08 12:38:00 BASE 4.64 286 6.69 281 -7.7 100 -7.7 62 0 983.1 NA 0.0000 9999 2070 0 0 0
2019/09/08 12:39:00 BASE 4.29 290 6.69 281 -7.7 100 -7.7 62 0 983.0 NA 0.0000 9999 1120 2070 0 0
2019/09/08 12:40:00 BASE 4.86 298 6.69 281 -7.7 100 -7.7 60 0 983.0 NA 0.0000 9999 1080 2230 0 0
2019/09/08 12:41:00 BASE 5.35 305 6.43 285 -7.8 100 -7.8 59 0 983.0 NA 0.0000 9999 1120 2260 2790 0
2019/09/08 12:42:01 BASE 5.25 306 6.43 285 -7.8 100 -7.8 61 0 983.1 NA 0.0000 9999 1150 2720 0 0
2019/09/08 12:43:00 BASE 5.39 308 6.48 306 -7.8 100 -7.8 64 0 983.1 NA 0.0000 9999 1120 0 0 0
2019/09/08 12:44:01 BASE 5.43 299 6.48 306 -7.8 100 -7.8 69 0 983.1 NA 0.0000 9999 1180 0 0 0
2019/09/08 12:45:00 BASE 4.84 292 6.48 306 -7.9 100 -7.9 75 0 983.2 NA 0.0000 9999 1310 2690 0 0
2019/09/08 12:46:00 BASE 4.74 297 6.48 306 -7.9 100 -7.9 76 0 983.2 NA 0.0000 9999 1480 2400 0 0
2019/09/08 12:47:00 BASE 5.07 288 6.48 306 -8.0 100 -8.0 74 0 983.3 NA 0.0000 9999 1540 2430 0 0
2019/09/08 12:48:00 BASE 4.60 283 6.48 306 -8.0 100 -8.0 74 0 983.3 NA 0.0000 9999 1350 2360 0 0
2019/09/08 12:49:00 BASE 3.88 286 6.48 306 -8.0 100 -8.0 75 0 983.3 NA 0.0000 9999 1350 2300 20900 0
2019/09/08 12:50:00 BASE 4.09 302 6.48 306 -8.0 100 -8.0 78 0 983.2 NA 0.0000 9999 1410 2360 0 0
2019/09/08 12:51:00 BASE 5.06 322 6.48 306 -7.9 100 -7.9 79 0 983.2 NA 0.0000 9999 1280 0 0 0
2019/09/08 12:52:00 BASE 5.45 320 6.48 306 -7.9 100 -7.9 79 0 983.3 NA 0.0000 9999 1210 0 0 0
2019/09/08 12:53:00 BASE 5.36 314 6.22 319 -7.8 100 -7.8 80 0 983.3 NA 0.0000 9999 1120 0 0 0
2019/09/08 12:54:00 BASE 5.43 313 6.43 318 -7.8 100 -7.8 82 0 983.3 NA 0.0000 9999 950 0 0 0
2019/09/08 12:55:00 BASE 5.71 316 6.48 314 -7.8 100 -7.8 86 0 983.3 NA 0.0000 9999 1050 0 0 0
2019/09/08 12:56:01 BASE 5.72 313 6.48 314 -7.8 100 -7.8 91 0 M NA 0.0000 9999 1350 2690 0 0
2019/09/08 12:57:01 BASE 4.85 310 6.48 314 -7.8 100 -7.8 91 0 983.4 NA 0.0000 9999 1310 0 0 0
2019/09/08 12:58:00 BASE 4.42 303 6.48 314 -7.8 100 -7.8 93 0 983.5 NA 0.0000 9999 1480 2690 0 0
2019/09/08 12:59:00 BASE 3.71 296 6.48 314 -7.9 100 -7.9 97 0 983.5 NA 0.0000 9999 1510 2660 0 0
2019/09/08 13:00:00 BASE 3.41 296 6.48 314 -7.9 100 -7.9 103 0 983.5 NA 0.0000 9999 1510 2790 0 0
2019/09/08 13:01:00 BASE 3.54 297 6.48 314 -7.9 100 -7.9 108 0 983.5 NA 0.0000 9999 1480 2820 0 0
2019/09/08 13:02:00 BASE 3.47 300 6.48 314 -7.9 100 -7.9 109 0 983.5 NA 0.0000 9999 1440 2850 0 0
2019/09/08 13:03:00 BASE 3.51 301 6.48 314 -7.9 100 -7.9 108 0 983.5 NA 0.0000 9999 1310 2850 0 0
2019/09/08 13:04:00 BASE 4.14 301 6.48 314 -7.8 100 -7.8 107 0 983.6 NA 0.0000 9999 1310 0 0 0
2019/09/08 13:05:00 BASE 5.03 302 5.71 301 -7.9 100 -7.9 107 0 983.6 NA 0.0000 9999 1250 2990 0 0
2019/09/08 13:06:00 BASE 5.13 299 5.71 301 -7.9 100 -7.9 104 0 983.7 NA 0.0000 9999 1310 2890 0 0
2019/09/08 13:07:00 BASE 4.29 287 5.71 301 -7.9 100 -7.9 97 0 983.7 NA 0.0000 9999 1410 2890 0 0
2019/09/08 13:08:00 BASE 3.58 282 5.71 301 -7.9 100 -7.9 92 0 983.7 NA 0.0000 9999 2760 0 0 0
2019/09/08 13:09:00 BASE 4.05 288 5.71 301 -7.9 100 -7.9 91 0 983.7 NA 0.0000 9999 1350 2790 0 0
2019/09/08 13:10:00 BASE 4.56 295 5.71 301 -8.0 100 -8.0 89 0 983.7 NA 0.0000 9999 1380 2790 0 0
2019/09/08 13:11:00 BASE 4.30 299 5.71 301 -8.0 100 -8.0 86 0 983.7 NA 0.0000 9999 1380 3020 0 0
2019/09/08 13:12:00 BASE 4.19 297 5.71 301 -8.0 100 -8.0 84 0 983.7 NA 0.0000 9999 1380 3020 0 0
2019/09/08 13:13:00 BASE 4.75 298 5.71 301 -7.9 100 -7.9 83 0 983.7 NA 0.0000 9999 3050 0 0 0
2019/09/08 13:14:00 BASE 5.46 304 6.07 303 -7.9 100 -7.9 80 0 983.7 NA 0.0000 9999 1210 3150 0 0
2019/09/08 13:15:00 BASE 5.66 302 6.07 303 -7.9 100 -7.9 75 0 983.8 NA 0.0000 9999 1350 3150 0 0
2019/09/08 13:16:00 BASE 5.27 301 6.07 303 -7.9 100 -7.9 73 0 983.9 NA 0.0000 9999 1380 3220 0 0
2019/09/08 13:17:00 BASE 5.07 300 6.07 303 -8.0 100 -8.0 71 0 983.9 NA 0.0000 9999 1280 3180 0 0
2019/09/08 13:18:00 BASE 5.07 294 6.07 303 -8.0 100 -8.0 67 0 983.9 NA 0.0000 9999 1510 3220 0 0
2019/09/08 13:19:00 BASE 4.62 293 6.07 303 -8.1 100 -8.1 65 0 983.9 NA 0.0000 9999 1510 3180 0 0
2019/09/08 13:20:00 BASE 4.40 295 6.07 303 -8.1 100 -8.1 65 0 984.0 NA 0.0000 9999 1610 3250 0 0
2019/09/08 13:21:00 BASE 4.09 289 6.07 303 -8.2 100 -8.2 66 0 984.0 NA 0.0000 9999 3250 0 0 0
2019/09/08 13:22:00 BASE 3.39 284 6.07 303 -8.2 100 -8.2 63 0 984.0 NA 0.0000 9999 0 0 0 0
2019/09/08 13:23:00 BASE 3.98 293 6.07 303 -8.3 100 -8.3 62 0 984.0 NA 0.0000 9999 1480 0 0 0
2019/09/08 13:24:00 BASE 5.27 304 6.02 296 -8.3 100 -8.3 67 0 984.0 NA 0.0000 9999 1310 0 0 0
2019/09/08 13:25:00 BASE 5.39 308 5.97 303 -8.3 100 -8.3 81 0 984.0 NA 0.0000 9999 1440 0 0 0
2019/09/08 13:26:00 BASE 5.00 307 5.97 303 -8.4 100 -8.4 99 0 984.0 NA 0.0000 9999 1510 0 0 0
2019/09/08 13:27:00 BASE 4.78 303 5.97 303 -8.4 100 -8.4 110 0 984.1 NA 0.0000 9999 1510 0 0 0
2019/09/08 13:28:00 BASE 4.63 301 5.97 303 -8.4 100 -8.4 120 0 984.1 NA 0.0000 9999 1510 0 0 0
2019/09/08 13:29:00 BASE 4.51 306 5.97 303 -8.5 100 -8.5 138 0 984.1 NA 0.0000 9999 1610 0 0 0
2019/09/08 13:30:00 BASE 4.09 307 5.97 303 -8.5 100 -8.5 127 0 984.1 NA 0.0000 9999 1510 0 0 0
2019/09/08 13:31:00 BASE 4.03 298 5.97 303 -8.5 100 -8.5 130 0 984.1 NA 0.0000 9999 1510 0 0 0
2019/09/08 13:32:00 BASE 4.37 293 5.97 303 -8.5 100 -8.5 122 0 984.1 NA 0.0000 9999 1610 0 0 0
2019/09/08 13:33:00 BASE 4.37 284 5.97 303 -8.5 100 -8.5 147 0 984.1 NA 0.0000 9999 1710 0 0 0
2019/09/08 13:34:00 BASE 3.97 278 5.45 296 -8.6 100 -8.6 254 0 984.1 NA 0.0000 9999 1800 0 0 0
2019/09/08 13:35:00 BASE 3.72 277 5.35 295 -8.6 100 -8.6 233 0 984.1 NA 0.0000 9999 1610 0 0 0
2019/09/08 13:36:00 BASE 3.94 271 5.35 295 -8.6 100 -8.6 334 0 984.1 NA 0.0000 9999 1510 0 0 0
2019/09/08 13:37:00 BASE 4.63 287 5.40 306 -8.6 100 -8.6 343 0 984.1 NA 0.0000 9999 1480 0 0 0
2019/09/08 13:38:00 BASE 5.09 304 5.40 306 -8.5 100 -8.5 350 0 984.1 NA 0.0000 9999 1350 0 0 0
2019/09/08 13:39:00 BASE 5.05 301 5.76 297 -8.4 100 -8.4 302 0 984.1 NA 0.0000 9999 1410 0 0 0
2019/09/08 13:40:00 BASE 5.22 297 6.17 298 -8.4 100 -8.4 128 0 984.1 NA 0.0000 9999 1350 0 0 0
2019/09/08 13:41:00 BASE 5.04 297 6.17 298 -8.4 100 -8.4 102 0 984.1 NA 0.0000 9999 1410 0 0 0
2019/09/08 13:42:00 BASE 4.60 304 6.17 298 -8.4 100 -8.4 98 0 984.1 NA 0.0000 9999 1440 0 0 0
2019/09/08 13:43:00 BASE 4.32 307 6.17 298 -8.5 100 -8.5 88 0 984.1 NA 0.0000 9999 1480 0 0 0
2019/09/08 13:44:00 BASE 3.90 304 6.17 298 -8.6 100 -8.6 93 0 984.1 NA 0.0000 9999 0 0 0 0
2019/09/08 13:45:00 BASE 4.07 303 6.17 298 -8.7 100 -8.7 134 0 984.1 NA 0.0000 9999 1410 0 0 0
2019/09/08 13:46:00 BASE 4.61 301 6.17 298 -8.7 100 -8.7 135 0 984.1 NA 0.0000 9999 0 0 0 0
2019/09/08 13:47:00 BASE 4.60 302 6.17 298 -8.7 99 -8.8 113 0 984.1 NA 0.0000 9999 0 0 0 0
2019/09/08 13:48:00 BASE 4.64 305 6.17 298 -8.7 99 -8.8 156 0 984.1 NA 0.0000 9999 0 0 0 0
2019/09/08 13:49:00 BASE 4.92 307 6.17 298 -8.7 99 -8.9 264 0 984.1 NA 0.0000 9999 0 0 0 0
2019/09/08 13:50:00 BASE 4.72 310 5.50 309 -8.7 99 -8.8 298 0 984.1 NA 0.0000 9999 0 0 0 0
2019/09/08 13:51:00 BASE 4.40 315 5.50 309 -8.7 99 -8.8 292 0 984.1 NA 0.0000 9999 0 0 0 0
2019/09/08 13:52:00 BASE 4.73 315 5.50 309 -8.6 99 -8.8 288 0 984.1 NA 0.0000 9999 0 0 0 0
2019/09/08 13:53:00 BASE 5.03 313 5.50 309 -8.6 99 -8.7 283 0 984.1 NA 0.0000 9999 0 0 0 0
2019/09/08 13:54:00 BASE 4.87 322 5.50 309 -8.6 99 -8.7 285 0 984.1 NA 0.0000 9999 0 0 0 0
2019/09/08 13:55:00 BASE 4.72 327 5.50 309 -8.5 99 -8.7 286 0 984.1 NA 0.0000 9999 0 0 0 0
2019/09/08 13:56:00 BASE 4.78 320 5.50 309 -8.5 99 -8.6 287 0 984.1 NA 0.0000 9999 0 0 0 0
2019/09/08 13:57:00 BASE 4.64 320 5.50 309 -8.5 99 -8.7 287 0 984.2 NA 0.0000 9999 0 0 0 0
2019/09/08 13:58:00 BASE 4.45 322 5.50 309 -8.5 99 -8.6 285 0 984.2 NA 0.0000 9999 0 0 0 0
2019/09/08 13:59:00 BASE 4.63 321 5.35 315 -8.5 99 -8.7 283 0 984.2 NA 0.0000 9999 0 0 0 0
2019/09/08 14:00:00 BASE 4.66 322 5.35 315 -8.5 99 -8.7 281 0 984.2 NA 0.0000 9999 0 0 0 0
2019/09/08 14:01:00 BASE 4.41 324 5.35 315 -8.5 98 -8.8 278 0 984.2 NA 0.0000 9999 0 0 0 0
2019/09/08 14:02:00 BASE 4.41 324 5.35 315 -8.5 98 -8.8 283 0 984.2 NA 0.0000 9999 0 0 0 0
2019/09/08 14:03:00 BASE 4.58 317 5.30 333 -8.5 98 -8.8 282 0 984.2 NA 0.0000 9999 0 0 0 0
2019/09/08 14:04:00 BASE 4.37 315 5.25 330 -8.6 98 -8.8 279 0 984.2 NA 0.0000 9999 0 0 0 0
2019/09/08 14:05:00 BASE 3.93 316 5.20 313 -8.6 98 -8.9 283 0 984.2 NA 0.0000 9999 0 0 0 0
2019/09/08 14:06:00 BASE 4.23 313 5.35 307 -8.6 97 -8.9 283 0 984.2 NA 0.0000 9999 0 0 0 0
2019/09/08 14:07:00 BASE 4.56 309 5.35 307 -8.6 97 -9.0 282 0 984.3 NA 0.0000 9999 0 0 0 0
2019/09/08 14:08:00 BASE 4.29 311 5.35 307 -8.6 96 -9.1 280 0 984.3 NA 0.0000 9999 0 0 0 0
2019/09/08 14:09:00 BASE 4.41 317 5.35 307 -8.6 96 -9.1 280 0 984.2 NA 0.0000 9999 0 0 0 0
2019/09/08 14:10:00 BASE 4.42 322 5.35 307 -8.6 95 -9.2 278 0 984.3 NA 0.0000 9999 0 0 0 0
2019/09/08 14:11:00 BASE 4.27 328 5.35 307 -8.5 95 -9.3 279 0 984.2 NA 0.0000 9999 0 0 0 0
2019/09/08 14:12:00 BASE 4.54 331 5.35 307 -8.5 94 -9.3 284 0 984.3 NA 0.0000 9999 0 0 0 0
2019/09/08 14:13:00 BASE 4.69 327 5.35 307 -8.5 93 -9.4 288 0 984.3 NA 0.0000 9999 0 0 0 0
2019/09/08 14:14:00 BASE 4.50 327 5.35 307 -8.5 93 -9.5 287 0 984.3 NA 0.0000 9999 0 0 0 0
2019/09/08 14:15:00 BASE 4.41 329 5.35 307 -8.5 92 -9.5 291 0 984.3 NA 0.0000 9999 22110 0 0 0
2019/09/08 14:16:00 BASE 4.42 327 5.14 321 -8.5 92 -9.5 287 0 984.3 NA 0.0000 9999 0 0 0 0
2019/09/08 14:17:00 BASE 4.42 325 5.14 321 -8.5 92 -9.5 287 0 984.3 NA 0.0000 9999 0 0 0 0
2019/09/08 14:18:00 BASE 4.79 324 5.45 321 -8.5 92 -9.5 288 0 984.3 NA 0.0000 9999 0 0 0 0
2019/09/08 14:19:00 BASE 4.94 321 5.45 321 -8.5 92 -9.5 291 0 984.4 NA 0.0000 9999 0 0 0 0
2019/09/08 14:20:00 BASE 4.65 313 5.45 321 -8.5 92 -9.5 296 0 984.5 NA 0.0000 9999 0 0 0 0
2019/09/08 14:21:00 BASE 4.65 304 5.45 321 -8.5 92 -9.6 295 0 984.5 NA 0.0000 9999 0 0 0 0
2019/09/08 14:22:00 BASE 4.82 302 5.45 321 -8.5 91 -9.7 296 0 984.5 NA 0.0000 9999 0 0 0 0
2019/09/08 14:23:00 BASE 4.83 301 5.45 321 -8.5 91 -9.7 299 0 984.5 NA 0.0000 9999 0 0 0 0
2019/09/08 14:24:00 BASE 4.46 300 5.45 321 -8.5 90 -9.8 297 0 984.5 NA 0.0000 9999 0 0 0 0
2019/09/08 14:25:00 BASE 4.85 306 6.69 317 -8.5 90 -9.9 293 0 984.4 NA 0.0000 9999 0 0 0 0
2019/09/08 14:26:00 BASE 5.77 315 6.94 319 -8.5 89 -9.9 293 0 984.4 NA 0.0000 9999 0 0 0 0
2019/09/08 14:27:00 BASE 5.96 321 6.94 319 -8.4 89 -9.9 291 0 984.4 NA 0.0000 9999 0 0 0 0
2019/09/08 14:28:00 BASE 5.78 323 6.94 319 -8.4 89 -9.9 288 0 984.5 NA 0.0000 9999 0 0 0 0
2019/09/08 14:29:00 BASE 5.62 322 6.94 319 -8.4 89 -9.9 289 0 984.5 NA 0.0000 9999 0 0 0 0
2019/09/08 14:30:00 BASE 5.34 317 6.94 319 -8.4 89 -9.9 294 0 984.6 NA 0.0000 9999 0 0 0 0
2019/09/08 14:31:00 BASE 5.02 312 6.94 319 -8.4 88 -10.0 296 0 984.6 NA 0.0000 9999 0 0 0 0
2019/09/08 14:32:00 BASE 4.85 306 6.94 319 -8.4 88 -10.0 291 0 984.6 NA 0.0000 9999 0 0 0 0
2019/09/08 14:33:00 BASE 4.85 307 6.94 319 -8.4 88 -10.1 296 0 984.6 NA 0.0000 9999 0 0 0 0
2019/09/08 14:34:00 BASE 5.24 315 6.94 319 -8.4 88 -10.1 299 0 984.6 NA 0.0000 9999 0 0 0 0
2019/09/08 14:35:00 BASE 5.28 314 6.94 319 -8.3 87 -10.1 304 0 984.6 NA 0.0000 9999 0 0 0 0
2019/09/08 14:36:00 BASE 5.18 312 6.28 314 -8.3 87 -10.1 301 0 984.6 NA 0.0000 9999 0 0 0 0
2019/09/08 14:37:00 BASE 5.70 314 6.43 315 -8.3 87 -10.1 302 0 984.6 NA 0.0000 9999 0 0 0 0
2019/09/08 14:38:00 BASE 5.83 318 6.43 315 -8.3 87 -10.1 309 0 984.6 NA 0.0000 9999 0 0 0 0
2019/09/08 14:39:00 BASE 5.54 324 6.43 315 -8.3 87 -10.1 310 0 984.6 NA 0.0000 9999 0 0 0 0
2019/09/08 14:40:00 BASE 5.45 326 6.43 315 -8.3 87 -10.2 310 0 984.6 NA 0.0000 9999 0 0 0 0
2019/09/08 14:41:00 BASE 5.25 323 6.43 315 -8.3 86 -10.2 306 0 984.6 NA 0.0000 9999 0 0 0 0
2019/09/08 14:42:00 BASE 5.04 324 6.43 315 -8.3 86 -10.2 300 0 984.7 NA 0.0000 9999 0 0 0 0
2019/09/08 14:43:00 BASE 5.10 320 6.43 315 -8.3 86 -10.3 301 0 984.7 NA 0.0000 9999 0 0 0 0
2019/09/08 14:44:00 BASE 5.52 312 6.43 315 -8.3 86 -10.2 301 0 984.7 NA 0.0000 9999 0 0 0 0
2019/09/08 14:45:00 BASE 5.86 312 6.43 315 -8.3 86 -10.2 300 0 984.8 NA 0.0000 9999 0 0 0 0
2019/09/08 14:46:03 BASE 5.96 313 6.43 315 -8.3 86 -10.2 300 0 M NA 0.0000 9999 0 0 0 0
2019/09/08 14:47:00 BASE 6.06 321 6.38 317 -8.3 86 -10.3 308 0 984.8 NA 0.0000 9999 0 0 0 0
2019/09/08 14:48:00 BASE 6.02 325 6.38 324 -8.3 86 -10.3 309 0 984.8 NA 0.0000 9999 0 0 0 0
2019/09/08 14:49:00 BASE 5.87 326 6.38 324 -8.3 85 -10.4 312 0 984.8 NA 0.0000 9999 0 0 0 0
2019/09/08 14:50:00 BASE 5.96 327 6.53 326 -8.3 85 -10.4 312 0 984.8 NA 0.0000 9999 0 0 0 0
2019/09/08 14:51:00 BASE 6.43 327 7.05 326 -8.3 85 -10.4 318 0 984.8 NA 0.0000 9999 0 0 0 0
2019/09/08 14:52:00 BASE 6.25 328 7.05 326 -8.3 85 -10.4 317 0 984.9 NA 0.0000 9999 0 0 0 0
2019/09/08 14:53:00 BASE 5.68 326 7.05 326 -8.4 85 -10.4 315 0 984.9 NA 0.0000 9999 0 0 0 0
2019/09/08 14:54:00 BASE 5.20 323 7.05 326 -8.4 86 -10.4 316 0 985.0 NA 0.0000 9999 0 0 0 0
2019/09/08 14:55:00 BASE 5.17 318 7.05 326 -8.4 86 -10.3 311 0 985.0 NA 0.0000 9999 0 0 0 0
2019/09/08 14:56:00 BASE 5.40 316 7.05 326 -8.4 86 -10.2 306 0 985.1 NA 0.0000 9999 0 0 0 0
2019/09/08 14:57:00 BASE 5.25 319 7.05 326 -8.4 87 -10.2 305 0 985.1 NA 0.0000 9999 0 0 0 0
2019/09/08 14:58:00 BASE 5.56 319 7.05 326 -8.3 87 -10.2 306 0 985.0 NA 0.0000 9999 0 0 0 0
2019/09/08 14:59:00 BASE 5.63 310 7.05 326 -8.3 87 -10.1 306 0 985.1 NA 0.0000 9999 0 0 0 0
2019/09/08 15:00:00 BASE 5.18 306 7.05 326 -8.3 87 -10.1 303 0 985.1 NA 0.0000 9999 0 0 0 0
2019/09/08 15:01:00 BASE 5.17 307 6.69 309 -8.3 87 -10.1 298 0 985.1 NA 0.0000 9999 0 0 0 0
2019/09/08 15:02:00 BASE 5.83 308 6.89 308 -8.3 86 -10.2 300 0 985.1 NA 0.0000 9999 0 0 0 0
2019/09/08 15:03:00 BASE 6.49 303 7.31 296 -8.3 86 -10.3 320 0 985.2 NA 0.0000 9999 0 0 0 0
2019/09/08 15:04:00 BASE 6.71 300 7.31 304 -8.3 86 -10.3 318 0 985.2 NA 0.0000 9999 0 0 0 0
2019/09/08 15:05:00 BASE 6.65 302 7.31 304 -8.3 85 -10.3 326 0 985.2 NA 0.0000 9999 0 0 0 0
2019/09/08 15:06:00 BASE 6.79 308 7.61 310 -8.3 85 -10.4 324 0 985.2 NA 0.0000 9999 0 0 0 0
2019/09/08 15:07:00 BASE 6.97 310 7.61 310 -8.3 85 -10.4 325 0 985.2 NA 0.0000 9999 0 0 0 0
2019/09/08 15:08:00 BASE 6.43 305 7.61 310 -8.3 85 -10.4 337 0 985.3 NA 0.0000 9999 0 0 0 0
2019/09/08 15:09:00 BASE 5.91 305 7.61 310 -8.3 85 -10.4 336 0 985.3 NA 0.0000 9999 0 0 0 0
2019/09/08 15:10:00 BASE 5.75 310 7.61 310 -8.3 85 -10.4 336 0 985.3 NA 0.0000 9999 0 0 0 0
2019/09/08 15:11:00 BASE 5.38 311 7.61 310 -8.3 85 -10.4 336 0 985.4 NA 0.0000 9999 0 0 0 0
2019/09/08 15:12:00 BASE 5.52 312 7.61 310 -8.3 85 -10.4 339 0 985.3 NA 0.0000 9999 0 0 0 0
2019/09/08 15:13:00 BASE 6.06 308 7.61 310 -8.3 85 -10.4 341 0 985.4 NA 0.0000 9999 0 0 0 0
2019/09/08 15:14:00 BASE 5.91 299 7.61 310 -8.3 85 -10.4 344 0 985.4 NA 0.0000 9999 0 0 0 0
2019/09/08 15:15:00 BASE 5.43 302 7.61 310 -8.3 85 -10.4 345 0 985.4 NA 0.0000 9999 0 0 0 0
2019/09/08 15:16:00 BASE 5.45 306 7.41 307 -8.4 85 -10.4 343 0 985.5 NA 0.0000 9999 0 0 0 0
2019/09/08 15:17:00 BASE 5.68 302 7.25 311 -8.4 85 -10.5 342 0 985.5 NA 0.0000 9999 0 0 0 0
2019/09/08 15:18:00 BASE 5.55 302 7.25 311 -8.4 85 -10.5 342 0 985.6 NA 0.0000 9999 0 0 0 0
2019/09/08 15:19:00 BASE 5.48 306 7.25 311 -8.4 85 -10.6 342 0 985.6 NA 0.0000 9999 0 0 0 0
2019/09/08 15:20:00 BASE 5.81 309 7.25 311 -8.4 85 -10.6 343 0 985.6 NA 0.0000 9999 1970 0 0 0
2019/09/08 15:21:00 BASE 6.27 311 7.25 311 -8.4 85 -10.6 344 0 985.6 NA 0.0000 9999 0 0 0 0
2019/09/08 15:22:00 BASE 6.43 310 7.15 308 -8.5 85 -10.5 346 0 985.6 NA 0.0000 9999 0 0 0 0
2019/09/08 15:23:00 BASE 6.07 308 6.89 306 -8.5 85 -10.5 348 0 985.7 NA 0.0000 9999 0 0 0 0
2019/09/08 15:24:00 BASE 5.63 311 6.89 306 -8.5 86 -10.5 347 0 985.7 NA 0.0000 9999 0 0 0 0
2019/09/08 15:25:00 BASE 5.64 306 6.89 306 -8.5 86 -10.5 349 0 985.7 NA 0.0000 9999 0 0 0 0
2019/09/08 15:26:00 BASE 5.67 299 6.89 306 -8.6 86 -10.5 349 0 985.7 NA 0.0000 9999 0 0 0 0
2019/09/08 15:27:00 BASE 5.72 304 6.94 310 -8.6 86 -10.5 350 0 985.6 NA 0.0000 9999 0 0 0 0
2019/09/08 15:28:00 BASE 5.77 311 6.94 310 -8.6 86 -10.5 350 0 985.7 NA 0.0000 9999 0 0 0 0
2019/09/08 15:29:00 BASE 6.18 311 7.46 307 -8.5 86 -10.5 348 0 985.6 NA 0.0000 9999 0 0 0 0
2019/09/08 15:30:00 BASE 6.30 309 7.46 307 -8.5 86 -10.5 347 0 985.7 NA 0.0000 9999 0 0 0 0
2019/09/08 15:31:00 BASE 6.06 309 7.46 307 -8.5 86 -10.4 343 0 985.7 NA 0.0000 9999 0 0 0 0
2019/09/08 15:32:00 BASE 6.44 314 8.75 310 -8.5 86 -10.5 342 0 985.6 NA 0.0000 9999 0 0 0 0
2019/09/08 15:33:00 BASE 6.22 312 8.75 310 -8.6 86 -10.5 342 0 985.7 NA 0.0000 9999 0 0 0 0
2019/09/08 15:34:00 BASE 5.49 305 8.75 310 -8.6 86 -10.5 341 0 985.7 NA 0.0000 9999 0 0 0 0
2019/09/08 15:35:00 BASE 5.60 303 8.75 310 -8.7 86 -10.6 348 0 985.7 NA 0.0000 9999 0 0 0 0
2019/09/08 15:36:00 BASE 5.70 301 8.75 310 -8.7 86 -10.6 348 0 985.7 NA 0.0000 9999 0 0 0 0
2019/09/08 15:37:00 BASE 5.81 300 8.75 310 -8.8 86 -10.7 349 0 985.7 NA 0.0000 9999 0 0 0 0
2019/09/08 15:38:00 BASE 6.15 303 8.75 310 -8.8 86 -10.8 352 0 985.7 NA 0.0000 9999 0 0 0 0
2019/09/08 15:39:00 BASE 5.83 304 8.75 310 -8.8 85 -10.8 348 0 985.7 NA 0.0000 9999 0 0 0 0
2019/09/08 15:40:00 BASE 5.42 302 8.75 310 -8.9 85 -10.9 344 0 985.7 NA 0.0000 9999 0 0 0 0
2019/09/08 15:41:00 BASE 5.28 303 8.75 310 -8.9 85 -11.0 343 0 985.8 NA 0.0000 9999 0 0 0 0
2019/09/08 15:42:00 BASE 5.22 307 6.69 304 -8.9 84 -11.1 348 0 985.8 NA 0.0000 9999 0 0 0 0
2019/09/08 15:43:00 BASE 5.34 307 6.69 304 -8.9 84 -11.2 348 0 985.8 NA 0.0000 9999 0 0 0 0
2019/09/08 15:44:00 BASE 5.28 310 6.69 304 -8.9 83 -11.2 346 0 985.9 NA 0.0000 9999 0 0 0 0
2019/09/08 15:45:00 BASE 4.99 312 6.69 304 -8.8 83 -11.2 345 0 985.9 NA 0.0000 9999 0 0 0 0
2019/09/08 15:46:00 BASE 5.21 306 6.69 304 -8.8 83 -11.2 343 0 986.0 NA 0.0000 9999 0 0 0 0
2019/09/08 15:47:00 BASE 5.29 304 6.53 306 -8.8 82 -11.2 349 0 986.0 NA 0.0000 9999 0 0 0 0
2019/09/08 15:48:00 BASE 4.91 306 6.12 305 -8.8 82 -11.3 350 0 986.0 NA 0.0000 9999 0 0 0 0
2019/09/08 15:49:00 BASE 4.72 305 5.97 304 -8.8 82 -11.4 348 0 986.0 NA 0.0000 9999 0 0 0 0
2019/09/08 15:50:00 BASE 4.65 307 5.97 304 -8.8 82 -11.4 349 0 986.0 NA 0.0000 9999 0 0 0 0
2019/09/08 15:51:00 BASE 5.15 310 6.02 304 -8.8 81 -11.4 353 0 986.0 NA 0.0000 9999 0 0 0 0
2019/09/08 15:52:00 BASE 5.39 308 6.02 304 -8.8 81 -11.5 355 0 986.0 NA 0.0000 9999 0 0 0 0
2019/09/08 15:53:00 BASE 5.32 310 6.02 304 -8.8 81 -11.5 353 0 986.1 NA 0.0000 9999 0 0 0 0
2019/09/08 15:54:00 BASE 5.52 310 6.02 304 -8.8 81 -11.5 352 0 986.1 NA 0.0000 9999 0 0 0 0
2019/09/08 15:55:00 BASE 5.28 313 6.02 304 -8.8 81 -11.5 351 0 986.2 NA 0.0000 9999 0 0 0 0
2019/09/08 15:56:00 BASE 5.06 317 6.02 304 -8.8 81 -11.6 351 0 986.2 NA 0.0000 9999 0 0 0 0
2019/09/08 15:57:00 BASE 5.19 314 6.02 304 -8.9 80 -11.6 345 0 986.2 NA 0.0000 9999 0 0 0 0
2019/09/08 15:58:00 BASE 5.30 309 6.02 304 -8.8 80 -11.7 350 0 986.2 NA 0.0000 9999 0 0 0 0
2019/09/08 15:59:00 BASE 5.50 310 6.58 311 -8.8 79 -11.8 359 0 986.2 NA 0.0000 9999 0 0 0 0
2019/09/08 16:00:00 BASE 5.61 314 6.58 311 -8.8 79 -11.8 355 0 986.2 NA 0.0000 9999 0 0 0 0
2019/09/08 16:01:00 BASE 5.51 320 6.58 311 -8.8 79 -11.8 357 0 986.2 NA 0.0000 9999 0 0 0 0
2019/09/08 16:02:00 BASE 5.35 324 6.58 311 -8.8 79 -11.8 346 0 986.2 NA 0.0000 9999 0 0 0 0
2019/09/08 16:03:00 BASE 5.21 325 6.58 311 -8.8 79 -11.8 355 0 986.2 NA 0.0000 9999 0 0 0 0
2019/09/08 16:04:00 BASE 5.23 326 6.58 311 -8.8 80 -11.7 312 0 986.2 NA 0.0000 9999 0 0 0 0
2019/09/08 16:05:00 BASE 5.10 325 6.58 311 -8.8 80 -11.7 223 0 986.2 NA 0.0000 9999 0 0 0 0
2019/09/08 16:06:00 BASE 5.01 326 6.58 311 -8.8 80 -11.6 298 0 986.2 NA 0.0000 9999 0 0 0 0
2019/09/08 16:07:00 BASE 5.07 329 6.58 311 -8.8 81 -11.5 360 0 986.2 NA 0.0000 9999 0 0 0 0
2019/09/08 16:08:00 BASE 5.30 323 6.58 311 -8.8 81 -11.5 362 0 986.2 NA 0.0000 9999 0 0 0 0
2019/09/08 16:09:00 BASE 5.57 321 6.07 321 -8.8 82 -11.4 375 0 986.1 NA 0.0000 9999 0 0 0 0
2019/09/08 16:10:00 BASE 5.57 318 5.92 318 -8.9 82 -11.4 384 0 986.1 NA 0.0000 9999 0 0 0 0
2019/09/08 16:11:00 BASE 5.48 316 5.92 318 -8.9 82 -11.4 375 0 986.1 NA 0.0000 9999 0 0 0 0
2019/09/08 16:12:00 BASE 5.49 319 6.02 318 -8.9 82 -11.4 382 0 986.1 NA 0.0000 9999 0 0 0 0
2019/09/08 16:13:00 BASE 5.38 317 6.58 313 -8.9 82 -11.4 367 0 986.2 NA 0.0000 9999 0 0 0 0
2019/09/08 16:14:00 BASE 5.33 318 6.58 313 -8.9 82 -11.4 337 0 986.2 NA 0.0000 9999 0 0 0 0
2019/09/08 16:15:00 BASE 5.52 322 6.58 313 -8.9 82 -11.4 329 0 986.3 NA 0.0000 9999 0 0 0 0
2019/09/08 16:16:00 BASE 5.65 321 6.58 313 -8.9 82 -11.4 321 0 986.3 NA 0.0000 9999 0 0 0 0
2019/09/08 16:17:00 BASE 5.89 318 6.58 313 -8.9 82 -11.4 324 0 986.4 NA 0.0000 9999 0 0 0 0
2019/09/08 16:18:00 BASE 6.02 314 6.58 313 -8.9 82 -11.4 316 0 986.4 NA 0.0000 9999 0 0 0 0
2019/09/08 16:19:00 BASE 5.66 315 6.58 313 -8.9 82 -11.5 344 0 986.4 NA 0.0000 9999 0 0 0 0
2019/09/08 16:20:00 BASE 5.38 316 6.58 313 -9.0 82 -11.4 351 0 986.4 NA 0.0000 9999 0 0 0 0
2019/09/08 16:21:00 BASE 5.99 317 6.94 326 -9.0 82 -11.4 354 0 986.4 NA 0.0000 9999 0 0 0 0
2019/09/08 16:22:00 BASE 6.37 317 6.94 326 -9.0 83 -11.4 358 0 986.4 NA 0.0000 9999 0 0 0 0
2019/09/08 16:23:00 BASE 5.85 318 6.94 326 -9.0 83 -11.3 339 0 986.5 NA 0.0000 9999 0 0 0 0
2019/09/08 16:24:00 BASE 5.67 319 6.94 326 -8.9 83 -11.3 355 0 986.4 NA 0.0000 9999 0 0 0 0
2019/09/08 16:25:00 BASE 5.65 318 6.94 326 -8.9 83 -11.3 347 0 986.5 NA 0.0000 9999 0 0 0 0
2019/09/08 16:26:00 BASE 5.98 318 6.94 326 -9.0 83 -11.3 345 0 986.5 NA 0.0000 9999 0 0 0 0
2019/09/08 16:27:00 BASE 6.12 316 6.94 326 -9.0 83 -11.3 341 0 986.6 NA 0.0000 9999 0 0 0 0
2019/09/08 16:28:00 BASE 5.82 312 6.94 326 -8.9 83 -11.3 349 0 986.6 NA 0.0000 9999 0 0 0 0
2019/09/08 16:29:00 BASE 5.86 305 6.94 326 -8.9 83 -11.3 352 0 986.6 NA 0.0000 9999 0 0 0 0
2019/09/08 16:30:00 BASE 5.55 301 6.94 326 -8.9 83 -11.3 359 0 986.6 NA 0.0000 9999 0 0 0 0
2019/09/08 16:31:01 BASE 5.76 305 6.89 316 -8.9 83 -11.3 361 0 986.6 NA 0.0000 9999 0 0 0 0
2019/09/08 16:32:00 BASE 6.42 310 6.89 311 -8.9 83 -11.3 369 0 986.6 NA 0.0000 9999 0 0 0 0
2019/09/08 16:33:00 BASE 6.77 309 7.41 304 -8.9 83 -11.3 357 0 986.6 NA 0.0000 9999 0 0 0 0
2019/09/08 16:34:00 BASE 6.61 304 7.41 304 -9.0 83 -11.4 357 0 986.6 NA 0.0000 9999 0 0 0 0
2019/09/08 16:35:00 BASE 6.28 300 7.41 304 -9.0 82 -11.4 343 0 986.6 NA 0.0000 9999 0 0 0 0
2019/09/08 16:36:00 BASE 6.16 301 7.41 304 -9.0 82 -11.5 310 0 986.6 NA 0.0000 9999 0 0 0 0
2019/09/08 16:37:00 BASE 6.47 305 7.56 303 -9.0 82 -11.5 298 0 986.6 NA 0.0000 9999 0 0 0 0
2019/09/08 16:38:00 BASE 7.09 304 7.92 304 -9.0 82 -11.6 288 0 986.6 NA 0.0000 9999 0 0 0 0
2019/09/08 16:39:00 BASE 7.11 304 7.92 304 -9.1 82 -11.6 284 0 986.7 NA 0.0000 9999 0 0 0 0
2019/09/08 16:40:00 BASE 6.63 305 7.92 304 -9.1 82 -11.6 289 0 986.7 NA 0.0000 9999 0 0 0 0
2019/09/08 16:41:00 BASE 6.26 306 7.92 304 -9.2 82 -11.7 310 0 986.7 NA 0.0000 9999 0 0 0 0
2019/09/08 16:42:00 BASE 6.36 309 7.92 304 -9.2 82 -11.7 283 0 986.7 NA 0.0000 9999 0 0 0 0
2019/09/08 16:43:00 BASE 5.98 307 7.92 304 -9.3 82 -11.8 265 0 986.7 NA 0.0000 9999 0 0 0 0
2019/09/08 16:44:00 BASE 5.33 311 7.92 304 -9.3 81 -11.9 260 0 986.7 NA 0.0000 9999 0 0 0 0
2019/09/08 16:45:00 BASE 5.48 314 7.92 304 -9.3 81 -11.9 266 0 986.7 NA 0.0000 9999 0 0 0 0
2019/09/08 16:46:00 BASE 5.47 307 7.92 304 -9.3 81 -11.9 296 0 986.7 NA 0.0000 9999 0 0 0 0
2019/09/08 16:47:00 BASE 4.97 305 7.92 304 -9.3 81 -11.9 293 0 986.8 NA 0.0000 9999 0 0 0 0
2019/09/08 16:48:00 BASE 5.06 310 7.51 301 -9.3 81 -12.0 358 0 986.7 NA 0.0000 9999 0 0 0 0
2019/09/08 16:49:00 BASE 5.86 314 7.31 304 -9.3 81 -11.9 359 0 986.7 NA 0.0000 9999 0 0 0 0
2019/09/08 16:50:00 BASE 5.85 317 7.31 304 -9.3 81 -12.0 352 0 986.7 NA 0.0000 9999 0 0 0 0
2019/09/08 16:51:00 BASE 5.25 322 7.31 304 -9.3 81 -12.0 354 0 986.7 NA 0.0000 9999 0 0 0 0
2019/09/08 16:52:00 BASE 5.00 327 6.58 319 -9.3 81 -12.0 349 0 986.7 NA 0.0000 9999 0 0 0 0
2019/09/08 16:53:00 BASE 4.76 324 6.58 319 -9.3 81 -12.0 346 0 986.7 NA 0.0000 9999 0 0 0 0
2019/09/08 16:54:00 BASE 4.71 316 6.58 319 -9.3 80 -12.1 314 0 986.8 NA 0.0000 9999 0 0 0 0
2019/09/08 16:55:00 BASE 4.60 312 6.58 319 -9.3 80 -12.1 305 0 986.8 NA 0.0000 9999 0 0 0 0
2019/09/08 16:56:00 BASE 4.76 311 6.58 319 -9.3 80 -12.1 320 0 986.8 NA 0.0000 9999 0 0 0 0
2019/09/08 16:57:00 BASE 5.25 311 6.58 319 -9.3 80 -12.1 320 0 986.8 NA 0.0000 9999 0 0 0 0
2019/09/08 16:58:00 BASE 5.56 307 6.58 319 -9.3 80 -12.1 321 0 986.8 NA 0.0000 9999 0 0 0 0
2019/09/08 16:59:00 BASE 5.48 301 6.28 314 -9.3 80 -12.1 306 0 986.9 NA 0.0000 9999 0 0 0 0
2019/09/08 17:00:00 BASE 5.45 305 6.28 316 -9.3 80 -12.1 313 0 986.9 NA 0.0000 9999 0 0 0 0
2019/09/08 17:01:00 BASE 5.80 311 6.33 314 -9.3 80 -12.1 307 0 987.0 NA 0.0000 9999 0 0 0 0
2019/09/08 17:02:00 BASE 5.73 308 6.33 314 -9.3 80 -12.1 306 0 987.0 NA 0.0000 9999 0 0 0 0
2019/09/08 17:03:00 BASE 5.33 299 6.33 314 -9.3 80 -12.1 305 0 987.1 NA 0.0000 9999 0 0 0 0
2019/09/08 17:04:00 BASE 5.24 301 6.33 314 -9.3 80 -12.2 308 0 987.0 NA 0.0000 9999 0 0 0 0
2019/09/08 17:05:00 BASE 5.37 307 6.33 314 -9.4 80 -12.2 306 0 987.0 NA 0.0000 9999 0 0 0 0
2019/09/08 17:06:00 BASE 5.32 312 6.33 314 -9.4 80 -12.2 309 0 987.0 NA 0.0000 9999 0 0 0 0
2019/09/08 17:07:00 BASE 5.26 310 6.33 314 -9.4 80 -12.2 309 0 987.0 NA 0.0000 9999 0 0 0 0
2019/09/08 17:08:00 BASE 4.99 311 6.33 314 -9.4 80 -12.2 305 0 987.0 NA 0.0000 9999 0 0 0 0
2019/09/08 17:09:00 BASE 4.79 319 6.33 314 -9.4 81 -12.1 303 0 987.1 NA 0.0000 9999 0 0 0 0
2019/09/08 17:10:00 BASE 4.82 323 6.33 314 -9.4 81 -12.1 308 0 987.1 NA 0.0000 9999 0 0 0 0
2019/09/08 17:11:00 BASE 5.00 325 6.28 308 -9.4 81 -12.1 311 0 987.0 NA 0.0000 9999 0 0 0 0
2019/09/08 17:12:00 BASE 5.20 325 6.28 308 -9.4 81 -12.1 315 0 987.0 NA 0.0000 9999 0 0 0 0
2019/09/08 17:13:00 BASE 5.08 321 6.28 308 -9.4 81 -12.0 317 0 987.1 NA 0.0000 9999 0 0 0 0
2019/09/08 17:14:00 BASE 5.11 322 6.28 308 -9.4 81 -12.0 318 0 987.1 NA 0.0000 9999 0 0 0 0
2019/09/08 17:15:00 BASE 5.39 324 6.28 308 -9.4 82 -12.0 318 0 987.0 NA 0.0000 9999 0 0 0 0
2019/09/08 17:16:00 BASE 5.69 329 6.28 308 -9.4 82 -11.9 320 0 987.0 NA 0.0000 9999 0 0 0 0
2019/09/08 17:17:00 BASE 5.73 331 6.28 327 -9.4 82 -11.9 323 0 987.1 NA 0.0000 9999 0 0 0 0
2019/09/08 17:18:00 BASE 5.67 332 6.28 327 -9.4 82 -11.9 322 0 987.1 NA 0.0000 9999 0 0 0 0
2019/09/08 17:19:00 BASE 5.50 336 6.28 327 -9.4 82 -11.9 327 0 987.1 NA 0.0000 9999 0 0 0 0
2019/09/08 17:20:00 BASE 5.08 337 6.28 327 -9.4 82 -11.9 327 0 987.1 NA 0.0000 9999 0 0 0 0
2019/09/08 17:21:00 BASE 4.70 337 6.28 327 -9.4 82 -12.0 331 0 987.1 NA 0.0000 9999 0 0 0 0
2019/09/08 17:22:00 BASE 4.46 338 6.28 327 -9.5 82 -11.9 332 0 987.1 NA 0.0000 9999 0 0 0 0
2019/09/08 17:23:00 BASE 4.38 341 6.28 327 -9.5 82 -11.9 331 0 987.1 NA 0.0000 9999 0 0 0 0
2019/09/08 17:24:00 BASE 4.66 339 6.28 327 -9.5 83 -11.9 333 0 987.1 NA 0.0000 9999 0 0 0 0
2019/09/08 17:25:00 BASE 4.56 333 6.28 327 -9.5 83 -11.9 343 0 987.2 NA 0.0000 9999 0 0 0 0
2019/09/08 17:26:00 BASE 4.17 333 6.28 327 -9.5 83 -11.9 339 0 987.2 NA 0.0000 9999 0 0 0 0
2019/09/08 17:27:00 BASE 4.10 335 5.71 334 -9.5 83 -11.9 340 0 987.2 NA 0.0000 9999 0 0 0 0
2019/09/08 17:28:00 BASE 4.34 334 5.61 333 -9.5 82 -11.9 342 0 987.2 NA 0.0000 9999 0 0 0 0
2019/09/08 17:29:00 BASE 4.68 336 5.45 338 -9.5 82 -12.0 339 0 987.2 NA 0.0000 9999 0 0 0 0
2019/09/08 17:30:00 BASE 4.98 337 5.45 338 -9.5 82 -12.0 337 0 987.2 NA 0.0000 9999 0 0 0 0
2019/09/08 17:31:00 BASE 5.18 337 5.56 337 -9.5 82 -12.0 332 0 987.2 NA 0.0000 9999 0 0 0 0
2019/09/08 17:32:00 BASE 5.03 338 5.56 337 -9.5 82 -12.0 327 0 987.2 NA 0.0000 9999 0 0 0 0
2019/09/08 17:33:00 BASE 4.77 340 5.56 337 -9.5 82 -12.0 325 0 987.2 NA 0.0000 9999 0 0 0 0
2019/09/08 17:34:00 BASE 4.71 337 5.56 337 -9.5 82 -12.0 327 0 987.3 NA 0.0000 9999 0 0 0 0
2019/09/08 17:35:00 BASE 4.82 331 5.56 337 -9.5 82 -12.0 332 0 987.3 NA 0.0000 9999 0 0 0 0
2019/09/08 17:36:00 BASE 4.64 322 5.56 337 -9.5 82 -12.0 332 0 987.3 NA 0.0000 9999 0 0 0 0
2019/09/08 17:37:00 BASE 4.32 320 5.56 337 -9.4 82 -12.0 330 0 987.3 NA 0.0000 9999 0 0 0 0
2019/09/08 17:38:00 BASE 4.49 328 5.56 337 -9.4 82 -12.0 325 0 987.3 NA 0.0000 9999 0 0 0 0
2019/09/08 17:39:00 BASE 4.83 327 5.56 337 -9.4 81 -12.0 320 0 987.4 NA 0.0000 9999 0 0 0 0
2019/09/08 17:40:00 BASE 4.80 325 5.56 337 -9.4 81 -12.0 313 0 987.4 NA 0.0000 9999 0 0 0 0
2019/09/08 17:41:00 BASE 4.70 328 5.45 330 -9.4 81 -12.1 317 0 987.4 NA 0.0000 9999 0 0 0 0
2019/09/08 17:42:00 BASE 4.73 330 5.45 330 -9.4 81 -12.1 321 0 987.4 NA 0.0000 9999 0 0 0 0
2019/09/08 17:43:00 BASE 4.90 329 5.45 331 -9.4 81 -12.1 321 0 987.4 NA 0.0000 9999 0 0 0 0
2019/09/08 17:44:00 BASE 5.38 326 6.17 328 -9.4 81 -12.1 325 0 987.4 NA 0.0000 9999 0 0 0 0
2019/09/08 17:45:00 BASE 5.33 322 6.17 328 -9.4 81 -12.1 329 0 987.5 NA 0.0000 9999 0 0 0 0
2019/09/08 17:46:00 BASE 4.75 322 6.17 328 -9.4 81 -12.1 332 0 987.4 NA 0.0000 9999 0 0 0 0
2019/09/08 17:47:00 BASE 4.34 325 6.17 328 -9.4 81 -12.1 329 0 987.5 NA 0.0000 9999 0 0 0 0
2019/09/08 17:48:00 BASE 4.22 330 6.17 328 -9.4 81 -12.1 320 0 987.5 NA 0.0000 9999 0 0 0 0
2019/09/08 17:49:00 BASE 4.17 330 6.17 328 -9.4 81 -12.1 311 0 987.5 NA 0.0000 9999 0 0 0 0
2019/09/08 17:50:00 BASE 4.31 325 6.17 328 -9.4 81 -12.1 312 0 987.6 NA 0.0000 9999 0 0 0 0
2019/09/08 17:51:00 BASE 4.42 324 6.17 328 -9.4 81 -12.1 317 0 987.6 NA 0.0000 9999 0 0 0 0
2019/09/08 17:52:00 BASE 4.73 325 6.17 328 -9.4 81 -12.1 317 0 987.6 NA 0.0000 9999 0 0 0 0
2019/09/08 17:53:00 BASE 4.99 327 6.17 328 -9.4 81 -12.1 321 0 987.6 NA 0.0000 9999 0 0 0 0
2019/09/08 17:54:00 BASE 5.07 329 5.81 323 -9.4 81 -12.0 321 0 987.6 NA 0.0000 9999 0 0 0 0
2019/09/08 17:55:00 BASE 5.22 331 5.81 323 -9.4 81 -12.0 313 0 987.6 NA 0.0000 9999 0 0 0 0
2019/09/08 17:56:00 BASE 5.35 330 5.81 323 -9.4 81 -12.0 307 0 987.6 NA 0.0000 9999 0 0 0 0
2019/09/08 17:57:00 BASE 5.11 325 5.81 323 -9.4 81 -12.1 305 0 987.6 NA 0.0000 9999 0 0 0 0
2019/09/08 17:58:00 BASE 4.16 329 5.81 323 -9.4 81 -12.1 298 0 987.7 NA 0.0000 9999 0 0 0 0
2019/09/08 17:59:00 BASE 4.21 336 6.17 344 -9.4 81 -12.1 284 0 987.6 NA 0.0000 9999 0 0 0 0
2019/09/08 18:00:00 BASE 4.83 328 6.17 344 -9.4 81 -12.0 285 0 987.6 NA 0.0000 9999 0 0 0 0
2019/09/08 18:01:00 BASE 4.98 311 6.17 344 -9.4 81 -12.0 275 0 987.7 NA 0.0000 9999 0 0 0 0
2019/09/08 18:02:00 BASE 5.00 310 6.17 344 -9.4 82 -12.0 279 0 987.7 NA 0.0000 9999 0 0 0 0
2019/09/08 18:03:00 BASE 5.16 318 6.17 344 -9.4 82 -12.0 280 0 987.7 NA 0.0000 9999 0 0 0 0
2019/09/08 18:04:00 BASE 5.31 317 6.17 344 -9.4 82 -12.0 276 0 987.8 NA 0.0000 9999 0 0 0 0
2019/09/08 18:05:00 BASE 5.35 316 6.33 306 -9.4 81 -12.0 273 0 987.7 NA 0.0000 9999 0 0 0 0
2019/09/08 18:06:00 BASE 5.25 302 6.43 291 -9.4 81 -12.1 276 0 987.8 NA 0.0000 9999 0 0 0 0
2019/09/08 18:07:00 BASE 4.80 286 6.43 291 -9.4 81 -12.1 270 0 987.8 NA 0.0000 9999 0 0 0 0
2019/09/08 18:08:00 BASE 4.59 293 6.43 291 -9.4 81 -12.1 264 0 987.8 NA 0.0000 9999 0 0 0 0
2019/09/08 18:09:00 BASE 4.66 310 6.43 291 -9.4 80 -12.1 266 0 987.8 NA 0.0000 9999 0 0 0 0
2019/09/08 18:10:00 BASE 4.53 311 6.43 291 -9.4 80 -12.2 265 0 987.9 NA 0.0000 9999 0 0 0 0
2019/09/08 18:11:00 BASE 4.27 306 6.43 291 -9.4 80 -12.2 265 0 987.9 NA 0.0000 9999 0 0 0 0
2019/09/08 18:12:00 BASE 4.28 306 6.43 291 -9.4 80 -12.2 260 0 987.9 NA 0.0000 9999 0 0 0 0
2019/09/08 18:13:00 BASE 4.70 314 6.43 291 -9.4 80 -12.2 249 0 987.9 NA 0.0000 9999 0 0 0 0
2019/09/08 18:14:00 BASE 5.30 321 6.43 291 -9.4 80 -12.2 243 0 987.9 NA 0.0000 9999 0 0 0 0
2019/09/08 18:15:00 BASE 5.36 320 6.43 291 -9.4 80 -12.1 237 0 987.9 NA 0.0000 9999 0 0 0 0
2019/09/08 18:16:00 BASE 4.66 315 6.12 317 -9.4 81 -12.1 230 0 987.9 NA 0.0000 9999 0 0 0 0
2019/09/08 18:17:00 BASE 4.20 311 6.12 317 -9.4 81 -12.1 221 0 987.9 NA 0.0000 9999 0 0 0 0
2019/09/08 18:18:00 BASE 4.37 317 6.12 317 -9.4 81 -12.1 216 0 987.9 NA 0.0000 9999 0 0 0 0
2019/09/08 18:19:00 BASE 4.86 324 6.12 317 -9.5 81 -12.1 210 0 987.9 NA 0.0000 9999 0 0 0 0
2019/09/08 18:20:00 BASE 4.68 323 6.12 317 -9.5 81 -12.2 206 0 987.9 NA 0.0000 9999 0 0 0 0
2019/09/08 18:21:00 BASE 3.64 320 6.12 317 -9.5 81 -12.2 206 0 987.9 NA 0.0000 9999 0 0 0 0
2019/09/08 18:22:00 BASE 3.20 314 6.12 317 -9.5 80 -12.2 199 0 988.0 NA 0.0000 9999 0 0 0 0
2019/09/08 18:23:00 BASE 3.31 302 6.12 317 -9.5 80 -12.3 205 0 988.0 NA 0.0000 9999 0 0 0 0
2019/09/08 18:24:00 BASE 3.64 290 5.66 322 -9.5 80 -12.3 220 0 988.0 NA 0.0000 9999 0 0 0 0
2019/09/08 18:25:00 BASE 3.83 284 5.66 322 -9.6 80 -12.4 238 0 988.0 NA 0.0000 9999 0 0 0 0
2019/09/08 18:26:00 BASE 3.96 278 5.66 322 -9.6 79 -12.5 245 0 988.0 NA 0.0000 9999 0 0 0 0
2019/09/08 18:27:00 BASE 3.99 280 5.66 322 -9.6 78 -12.6 255 0 988.0 NA 0.0000 9999 0 0 0 0
2019/09/08 18:28:00 BASE 3.81 284 5.66 322 -9.6 77 -12.8 269 0 988.1 NA 0.0000 9999 0 0 0 0
2019/09/08 18:29:00 BASE 3.93 287 4.78 272 -9.5 76 -12.9 249 0 988.1 NA 0.0000 9999 0 0 0 0
2019/09/08 18:30:00 BASE 3.86 295 4.78 272 -9.5 75 -13.0 249 0 988.1 NA 0.0000 9999 7190 0 0 0
2019/09/08 18:31:00 BASE 3.84 300 4.89 290 -9.5 75 -13.1 233 0 988.0 NA 0.0000 9999 7220 0 0 0
2019/09/08 18:32:00 BASE 3.96 292 4.89 290 -9.5 74 -13.2 188 0 988.2 NA 0.0000 9999 7150 0 0 0
2019/09/08 18:33:00 BASE 3.61 283 4.89 290 -9.5 74 -13.3 156 0 988.2 NA 0.0000 9999 7050 0 0 0
2019/09/08 18:34:00 BASE 3.39 280 4.89 290 -9.5 73 -13.4 147 0 988.2 NA 0.0000 9999 7220 0 0 0
2019/09/08 18:35:00 BASE 3.52 285 4.89 290 -9.5 73 -13.5 137 0 988.2 NA 0.0000 9999 6890 0 0 0
2019/09/08 18:36:00 BASE 4.01 295 5.04 300 -9.5 72 -13.6 130 0 988.2 NA 0.0000 9999 6890 0 0 0
2019/09/08 18:37:00 BASE 4.21 299 5.04 300 -9.6 72 -13.7 119 0 988.2 NA 0.0000 9999 6920 0 0 0
2019/09/08 18:38:00 BASE 3.65 298 5.04 300 -9.6 71 -13.8 141 0 988.2 NA 0.0000 9999 0 0 0 0
2019/09/08 18:39:00 BASE 3.17 297 5.04 300 -9.6 71 -14.0 110 0 988.2 NA 0.0000 9999 0 0 0 0
2019/09/08 18:40:00 BASE 2.86 296 5.04 300 -9.6 70 -14.1 112 0 988.2 NA 0.0000 9999 6920 0 0 0
2019/09/08 18:41:00 BASE 3.13 297 5.04 300 -9.7 70 -14.1 117 0 988.2 NA 0.0000 9999 0 0 0 0
2019/09/08 18:42:00 BASE 3.67 294 5.04 300 -9.7 70 -14.1 135 0 988.2 NA 0.0000 9999 6820 0 0 0
2019/09/08 18:43:00 BASE 3.94 292 5.04 300 -9.7 70 -14.1 144 0 988.2 NA 0.0000 9999 6920 0 0 0
2019/09/08 18:44:00 BASE 3.95 297 5.04 300 -9.6 71 -14.0 141 0 988.2 NA 0.0000 9999 6790 0 0 0
2019/09/08 18:45:00 BASE 3.67 306 5.04 300 -9.7 71 -14.0 148 0 988.2 NA 0.0000 9999 6990 0 0 0
2019/09/08 18:46:00 BASE 3.28 315 4.58 289 -9.7 71 -14.0 164 0 988.2 NA 0.0000 9999 7050 0 0 0
2019/09/08 18:47:00 BASE 3.04 316 4.58 289 -9.6 70 -14.0 168 0 988.2 NA 0.0000 9999 0 0 0 0
2019/09/08 18:48:00 BASE 3.19 318 4.58 289 -9.6 70 -14.1 159 0 988.1 NA 0.0000 9999 6960 0 0 0
2019/09/08 18:49:00 BASE 3.40 319 4.58 289 -9.6 70 -14.1 168 0 988.1 NA 0.0000 9999 6890 0 0 0
2019/09/08 18:50:00 BASE 3.47 319 4.58 289 -9.6 70 -14.1 145 0 988.0 NA 0.0000 9999 6920 0 0 0
2019/09/08 18:51:00 BASE 3.46 333 4.58 289 -9.6 70 -14.1 142 0 988.0 NA 0.0000 9999 6690 0 0 0
2019/09/08 18:52:00 BASE 3.41 349 4.58 289 -9.6 71 -13.9 150 0 988.0 NA 0.0000 9999 6730 0 0 0
2019/09/08 18:53:00 BASE 3.63 347 4.32 343 -9.6 71 -13.8 132 0 988.1 NA 0.0000 9999 6730 0 0 0
2019/09/08 18:54:00 BASE 3.90 351 4.37 11 -9.6 72 -13.7 139 0 988.1 NA 0.0000 9999 0 0 0 0
2019/09/08 18:55:00 BASE 3.76 8 4.37 11 -9.7 73 -13.7 157 0 988.1 NA 0.0000 9999 0 0 0 0
2019/09/08 18:56:00 BASE 3.60 10 4.37 11 -9.8 73 -13.6 190 0 988.1 NA 0.0000 9999 0 0 0 0
2019/09/08 18:57:00 BASE 3.80 4 4.58 10 -9.9 74 -13.6 161 0 988.0 NA 0.0000 9999 0 0 0 0
2019/09/08 18:58:00 BASE 4.06 6 4.58 10 -10.0 75 -13.5 189 0 988.1 NA 0.0000 9999 0 0 0 0
2019/09/08 18:59:00 BASE 3.92 10 4.58 10 -10.0 76 -13.5 181 0 988.1 NA 0.0000 9999 0 0 0 0
2019/09/08 19:00:00 BASE 3.64 10 4.58 10 -10.0 77 -13.3 166 0 988.1 NA 0.0000 9999 0 0 0 0
2019/09/08 19:01:00 BASE 3.64 8 4.58 10 -10.0 78 -13.2 194 0 988.2 NA 0.0000 9999 6270 0 0 0
2019/09/08 19:02:00 BASE 3.71 2 4.58 10 -10.0 78 -13.1 178 0 988.1 NA 0.0000 9999 0 0 0 0
2019/09/08 19:03:00 BASE 3.91 353 4.58 10 -10.0 79 -13.0 188 0 988.0 NA 0.0000 9999 0 0 0 0
2019/09/08 19:04:00 BASE 4.02 349 4.58 10 -10.0 79 -12.9 187 0 988.0 NA 0.0000 9999 0 0 0 0
2019/09/08 19:05:00 BASE 3.77 351 4.58 10 -10.0 79 -12.9 175 0 988.0 NA 0.0000 9999 0 0 0 0
2019/09/08 19:06:00 BASE 3.86 358 4.58 10 -10.0 80 -12.9 140 0 987.9 NA 0.0000 9999 6070 0 0 0
2019/09/08 19:07:00 BASE 4.28 2 4.94 3 -10.0 80 -12.8 125 0 987.9 NA 0.0000 9999 6070 0 0 0
2019/09/08 19:08:00 BASE 4.36 356 4.94 3 -10.0 80 -12.8 125 0 988.0 NA 0.0000 9999 0 0 0 0
2019/09/08 19:09:00 BASE 4.07 353 4.94 3 -10.0 80 -12.8 127 0 988.1 NA 0.0000 9999 0 0 0 0
2019/09/08 19:10:00 BASE 3.89 356 4.94 3 -10.0 80 -12.8 154 0 988.2 NA 0.0000 9999 0 0 0 0
2019/09/08 19:11:00 BASE 4.22 359 5.04 348 -10.0 80 -12.8 154 0 988.1 NA 0.0000 9999 0 0 0 0
2019/09/08 19:12:00 BASE 4.47 358 5.09 352 -10.0 81 -12.7 155 0 988.2 NA 0.0000 9999 0 0 0 0
2019/09/08 19:13:00 BASE 4.56 355 5.09 350 -10.1 81 -12.7 156 0 988.2 NA 0.0000 9999 0 0 0 0
2019/09/08 19:14:00 BASE 4.75 348 5.09 350 -10.1 81 -12.7 189 0 988.2 NA 0.0000 9999 0 0 0 0
2019/09/08 19:15:00 BASE 4.59 350 5.09 350 -10.1 81 -12.7 204 0 988.2 NA 0.0000 9999 0 0 0 0
2019/09/08 19:16:00 BASE 4.34 353 5.09 350 -10.1 81 -12.7 207 0 988.2 NA 0.0000 9999 0 0 0 0
2019/09/08 19:17:00 BASE 4.17 348 5.09 350 -10.1 81 -12.7 207 0 988.2 NA 0.0000 9999 0 0 0 0
2019/09/08 19:18:00 BASE 4.13 347 5.09 350 -10.1 81 -12.7 201 0 988.3 NA 0.0000 9999 0 0 0 0
2019/09/08 19:19:00 BASE 3.82 342 5.09 350 -10.1 81 -12.7 205 0 988.3 NA 0.0000 9999 0 0 0 0
2019/09/08 19:20:00 BASE 3.38 334 5.09 350 -10.1 81 -12.7 203 0 988.4 NA 0.0000 9999 0 0 0 0
2019/09/08 19:21:00 BASE 3.46 331 5.09 350 -10.1 81 -12.7 201 0 988.4 NA 0.0000 9999 0 0 0 0
2019/09/08 19:22:00 BASE 3.69 337 5.09 350 -10.1 81 -12.7 195 0 988.4 NA 0.0000 9999 0 0 0 0
2019/09/08 19:23:00 BASE 4.04 347 5.04 353 -10.1 81 -12.7 197 0 988.4 NA 0.0000 9999 0 0 0 0
2019/09/08 19:24:00 BASE 4.24 350 4.73 349 -10.1 81 -12.7 197 0 988.4 NA 0.0000 9999 0 0 0 0
2019/09/08 19:25:00 BASE 4.15 347 4.73 349 -10.1 81 -12.7 193 0 988.4 NA 0.0000 9999 0 0 0 0
2019/09/08 19:26:00 BASE 4.03 342 4.73 349 -10.1 81 -12.7 189 0 988.4 NA 0.0000 9999 0 0 0 0
2019/09/08 19:27:00 BASE 4.02 343 4.73 349 -10.1 81 -12.7 180 0 988.4 NA 0.0000 9999 0 0 0 0
2019/09/08 19:28:00 BASE 4.36 351 5.14 355 -10.1 81 -12.7 171 0 988.4 NA 0.0000 9999 0 0 0 0
2019/09/08 19:29:00 BASE 4.44 354 5.14 355 -10.1 81 -12.7 172 0 988.4 NA 0.0000 9999 0 0 0 0
2019/09/08 19:30:00 BASE 4.20 353 5.14 355 -10.1 81 -12.7 164 0 988.5 NA 0.0000 9999 0 0 0 0
2019/09/08 19:31:00 BASE 4.08 353 5.14 355 -10.1 81 -12.7 157 0 988.5 NA 0.0000 9999 0 0 0 0
2019/09/08 19:32:00 BASE 4.06 357 5.14 355 -10.1 81 -12.7 158 0 988.5 NA 0.0000 9999 0 0 0 0
2019/09/08 19:33:00 BASE 4.59 356 5.35 352 -10.1 81 -12.7 166 0 988.5 NA 0.0000 9999 0 0 0 0
2019/09/08 19:34:00 BASE 5.03 353 5.35 354 -10.1 81 -12.7 182 0 988.5 NA 0.0000 9999 0 0 0 0
2019/09/08 19:35:00 BASE 4.92 352 5.35 354 -10.0 81 -12.6 209 0 988.5 NA 0.0000 9999 6370 0 0 0
2019/09/08 19:36:00 BASE 5.03 353 5.45 347 -10.0 82 -12.5 208 0 988.5 NA 0.0000 9999 6370 0 0 0
2019/09/08 19:37:00 BASE 4.94 353 5.45 347 -9.9 82 -12.4 189 0 988.5 NA 0.0000 9999 6370 0 0 0
2019/09/08 19:38:00 BASE 4.90 344 5.50 332 -9.9 82 -12.4 160 0 988.5 NA 0.0000 9999 6400 0 0 0
2019/09/08 19:39:00 BASE 4.84 331 5.50 332 -9.8 82 -12.3 159 0 988.7 NA 0.0000 9999 6300 0 0 0
2019/09/08 19:40:00 BASE 4.61 324 5.50 332 -9.8 82 -12.3 172 0 988.7 NA 0.0000 9999 6170 0 0 0
2019/09/08 19:41:00 BASE 4.46 317 5.50 332 -9.8 82 -12.3 170 0 988.7 NA 0.0000 9999 6100 0 0 0
2019/09/08 19:42:00 BASE 4.64 312 5.50 332 -9.7 82 -12.2 165 0 988.7 NA 0.0000 9999 6070 0 0 0
2019/09/08 19:43:00 BASE 4.87 303 5.50 332 -9.7 82 -12.2 163 0 988.8 NA 0.0000 9999 5910 0 0 0
2019/09/08 19:44:00 BASE 4.58 296 5.50 332 -9.6 81 -12.2 156 0 988.8 NA 0.0000 9999 6000 0 0 0
2019/09/08 19:45:00 BASE 4.42 297 5.50 332 -9.6 80 -12.3 143 0 988.7 NA 0.0000 9999 0 0 0 0
2019/09/08 19:46:00 BASE 4.37 303 5.50 332 -9.5 79 -12.5 146 0 988.7 NA 0.0000 9999 6040 0 0 0
2019/09/08 19:47:00 BASE 4.48 313 5.50 332 -9.5 78 -12.7 151 0 988.7 NA 0.0000 9999 6140 0 0 0
2019/09/08 19:48:00 BASE 4.83 315 5.61 319 -9.5 76 -12.9 150 0 988.8 NA 0.0000 9999 0 0 0 0
2019/09/08 19:49:00 BASE 4.75 309 5.61 319 -9.5 75 -13.0 158 0 988.9 NA 0.0000 9999 0 0 0 0
2019/09/08 19:50:00 BASE 4.20 311 5.61 319 -9.5 74 -13.2 155 0 988.9 NA 0.0000 9999 0 0 0 0
2019/09/08 19:51:00 BASE 4.01 313 5.61 319 -9.5 73 -13.3 148 0 988.9 NA 0.0000 9999 6140 0 0 0
2019/09/08 19:52:00 BASE 4.05 307 5.61 319 -9.5 73 -13.4 143 0 988.9 NA 0.0000 9999 6300 0 0 0
2019/09/08 19:53:00 BASE 3.75 302 5.61 319 -9.5 72 -13.5 140 0 988.9 NA 0.0000 9999 6270 0 0 0
2019/09/08 19:54:00 BASE 3.84 304 5.61 319 -9.5 72 -13.6 141 0 988.9 NA 0.0000 9999 6200 0 0 0
2019/09/08 19:55:00 BASE 4.01 304 5.61 319 -9.5 72 -13.6 143 0 988.9 NA 0.0000 9999 0 0 0 0
2019/09/08 19:56:00 BASE 3.52 320 5.61 319 -9.5 72 -13.6 144 0 988.9 NA 0.0000 9999 0 0 0 0
2019/09/08 19:57:00 BASE 3.19 346 5.61 319 -9.6 73 -13.6 146 0 988.9 NA 0.0000 9999 0 0 0 0
2019/09/08 19:58:00 BASE 3.12 354 4.99 304 -9.6 73 -13.5 138 0 988.9 NA 0.0000 9999 0 0 0 0
2019/09/08 19:59:00 BASE 2.96 352 4.99 304 -9.7 74 -13.5 134 0 988.9 NA 0.0000 9999 0 0 0 0
2019/09/08 20:00:00 BASE 2.92 351 4.99 304 -9.8 75 -13.5 128 0 988.9 NA 0.0000 9999 0 0 0 0
2019/09/08 20:01:00 BASE 3.31 359 4.99 304 -10.0 75 -13.5 135 0 988.8 NA 0.0000 9999 0 0 0 0
2019/09/08 20:02:00 BASE 3.99 4 4.99 304 -10.0 76 -13.4 142 0 988.7 NA 0.0000 9999 0 0 0 0
2019/09/08 20:03:00 BASE 4.26 3 4.99 304 -10.1 77 -13.4 145 0 988.7 NA 0.0000 9999 0 0 0 0
2019/09/08 20:04:00 BASE 3.96 359 4.58 1 -10.1 78 -13.2 144 0 988.7 NA 0.0000 9999 0 0 0 0
2019/09/08 20:05:00 BASE 3.98 357 4.58 1 -10.1 78 -13.2 142 0 988.7 NA 0.0000 9999 0 0 0 0
2019/09/08 20:06:00 BASE 4.30 353 4.58 354 -10.1 79 -13.1 137 0 988.7 NA 0.0000 9999 0 0 0 0
2019/09/08 20:07:00 BASE 4.37 354 4.58 360 -10.1 79 -13.1 136 0 988.7 NA 0.0000 9999 0 0 0 0
2019/09/08 20:08:00 BASE 4.40 353 4.99 353 -10.1 79 -13.0 135 0 988.7 NA 0.0000 9999 0 0 0 0
2019/09/08 20:09:00 BASE 3.95 348 4.99 353 -10.1 79 -13.0 130 0 988.8 NA 0.0000 9999 0 0 0 0
2019/09/08 20:10:00 BASE 3.28 346 4.99 353 -10.1 80 -13.0 130 0 988.9 NA 0.0000 9999 0 0 0 0
2019/09/08 20:11:00 BASE 2.95 349 4.99 353 -10.1 80 -13.0 124 0 988.9 NA 0.0000 9999 0 0 0 0
2019/09/08 20:12:00 BASE 3.08 350 4.99 353 -10.1 80 -12.9 126 0 988.9 NA 0.0000 9999 0 0 0 0
2019/09/08 20:13:00 BASE 3.61 345 4.99 353 -10.1 80 -12.9 125 0 989.0 NA 0.0000 9999 0 0 0 0
2019/09/08 20:14:00 BASE 3.79 348 4.99 353 -10.1 80 -12.9 123 0 989.0 NA 0.0000 9999 0 0 0 0
2019/09/08 20:15:00 BASE 3.90 351 4.99 353 -10.2 80 -13.0 120 0 989.0 NA 0.0000 9999 0 0 0 0
2019/09/08 20:16:00 BASE 4.11 355 4.99 353 -10.2 80 -13.0 120 0 989.1 NA 0.0000 9999 0 0 0 0
2019/09/08 20:17:00 BASE 4.21 350 4.99 353 -10.3 80 -13.0 118 0 989.1 NA 0.0000 9999 0 0 0 0
2019/09/08 20:18:00 BASE 4.16 355 4.63 360 -10.3 80 -13.0 114 0 989.1 NA 0.0000 9999 0 0 0 0
2019/09/08 20:19:00 BASE 3.94 6 4.63 360 -10.3 80 -13.1 112 0 989.1 NA 0.0000 9999 0 0 0 0
2019/09/08 20:20:00 BASE 3.81 4 4.78 353 -10.3 80 -13.0 108 0 989.1 NA 0.0000 9999 0 0 0 0
2019/09/08 20:21:00 BASE 3.90 353 4.78 353 -10.3 81 -13.0 106 0 989.1 NA 0.0000 9999 0 0 0 0
2019/09/08 20:22:00 BASE 4.11 343 4.78 336 -10.3 81 -13.0 104 0 989.0 NA 0.0000 9999 0 0 0 0
2019/09/08 20:23:00 BASE 3.98 350 4.78 336 -10.3 81 -13.0 102 0 989.1 NA 0.0000 9999 0 0 0 0
2019/09/08 20:24:00 BASE 3.52 347 4.78 336 -10.4 81 -13.0 98 0 989.1 NA 0.0000 9999 0 0 0 0
2019/09/08 20:25:00 BASE 3.23 331 4.78 336 -10.4 81 -13.0 97 0 989.1 NA 0.0000 9999 0 0 0 0
2019/09/08 20:26:00 BASE 3.46 343 4.78 336 -10.4 81 -13.0 95 0 989.1 NA 0.0000 9999 0 0 0 0
2019/09/08 20:27:00 BASE 3.87 0 4.78 336 -10.4 81 -13.0 93 0 989.1 NA 0.0000 9999 0 0 0 0
2019/09/08 20:28:00 BASE 4.14 360 4.78 336 -10.3 81 -13.0 71 0 989.1 NA 0.0000 9999 0 0 0 0
2019/09/08 20:29:00 BASE 4.03 352 4.78 336 -10.3 81 -13.0 72 0 989.2 NA 0.0000 9999 0 0 0 0
2019/09/08 20:30:00 BASE 3.73 343 4.78 336 -10.3 81 -12.9 65 0 989.2 NA 0.0000 9999 0 0 0 0
2019/09/08 20:31:00 BASE 3.89 349 4.78 336 -10.3 81 -12.8 83 0 989.2 NA 0.0000 9999 0 0 0 0
2019/09/08 20:32:00 BASE 4.10 354 4.58 354 -10.3 81 -12.9 82 0 989.2 NA 0.0000 9999 0 0 0 0
2019/09/08 20:33:00 BASE 4.13 351 4.58 354 -10.3 81 -12.9 81 0 989.2 NA 0.0000 9999 0 0 0 0
2019/09/08 20:34:00 BASE 3.99 352 4.58 354 -10.2 81 -12.8 79 0 989.2 NA 0.0000 9999 0 0 0 0
2019/09/08 20:35:00 BASE 4.17 358 5.09 355 -10.3 81 -12.9 77 0 989.3 NA 0.0000 9999 0 0 0 0
2019/09/08 20:36:00 BASE 4.62 359 5.09 355 -10.3 81 -12.9 75 0 989.4 NA 0.0000 9999 0 0 0 0
2019/09/08 20:37:00 BASE 4.39 349 5.09 355 -10.3 81 -12.9 73 0 989.5 NA 0.0000 9999 0 0 0 0
2019/09/08 20:38:00 BASE 3.87 341 5.09 355 -10.2 81 -12.9 71 0 989.5 NA 0.0000 9999 0 0 0 0
2019/09/08 20:39:00 BASE 3.55 353 5.09 355 -10.3 81 -12.9 69 0 989.6 NA 0.0000 9999 0 0 0 0
2019/09/08 20:40:00 BASE 3.55 5 5.09 355 -10.3 81 -12.9 67 0 989.6 NA 0.0000 9999 0 0 0 0
2019/09/08 20:41:00 BASE 3.68 1 5.09 355 -10.3 81 -12.9 66 0 989.6 NA 0.0000 9999 0 0 0 0
2019/09/08 20:42:00 BASE 3.41 3 5.09 355 -10.2 81 -12.9 64 0 989.6 NA 0.0000 9999 0 0 0 0
2019/09/08 20:43:00 BASE 3.20 358 5.09 355 -10.3 81 -12.9 62 0 989.6 NA 0.0000 9999 0 0 0 0
2019/09/08 20:44:00 BASE 3.28 354 5.09 355 -10.3 81 -12.9 60 0 989.6 NA 0.0000 9999 0 0 0 0
2019/09/08 20:45:00 BASE 3.32 357 5.04 350 -10.3 81 -12.9 58 0 989.6 NA 0.0000 9999 0 0 0 0
2019/09/08 20:46:00 BASE 3.32 352 4.73 343 -10.3 81 -12.9 57 0 989.6 NA 0.0000 9999 0 0 0 0
2019/09/08 20:47:00 BASE 3.23 344 4.32 334 -10.3 81 -13.0 55 0 989.7 NA 0.0000 9999 0 0 0 0
2019/09/08 20:48:00 BASE 3.09 347 4.01 351 -10.3 81 -12.9 54 0 989.7 NA 0.0000 9999 0 0 0 0
2019/09/08 20:49:00 BASE 3.07 356 4.01 351 -10.4 81 -13.0 52 0 989.7 NA 0.0000 9999 0 0 0 0
2019/09/08 20:50:00 BASE 3.15 356 4.01 1 -10.4 81 -13.0 50 0 989.7 NA 0.0000 9999 0 0 0 0
2019/09/08 20:51:00 BASE 3.48 359 4.01 1 -10.4 82 -13.0 49 0 989.7 NA 0.0000 9999 0 0 0 0
2019/09/08 20:52:00 BASE 3.79 354 4.01 1 -10.5 82 -13.0 47 0 989.7 NA 0.0000 9999 0 0 0 0
2019/09/08 20:53:00 BASE 3.89 342 4.48 339 -10.5 82 -13.0 45 0 989.7 NA 0.0000 9999 0 0 0 0
2019/09/08 20:54:00 BASE 3.88 344 4.48 339 -10.5 82 -13.0 44 0 989.7 NA 0.0000 9999 0 0 0 0
2019/09/08 20:55:00 BASE 3.76 343 4.48 339 -10.5 82 -12.9 42 0 989.7 NA 0.0000 9999 0 0 0 0
2019/09/08 20:56:00 BASE 3.68 339 4.48 339 -10.4 82 -12.9 41 0 989.7 NA 0.0000 9999 0 0 0 0
2019/09/08 20:57:00 BASE 3.51 342 4.48 339 -10.4 82 -12.9 40 0 989.7 NA 0.0000 9999 0 0 0 0
2019/09/08 20:58:00 BASE 3.11 344 4.48 339 -10.4 82 -12.8 39 0 989.8 NA 0.0000 9999 0 0 0 0
2019/09/08 20:59:00 BASE 2.96 350 4.48 339 -10.4 82 -12.8 37 0 989.8 NA 0.0000 9999 0 0 0 0
2019/09/08 21:00:00 BASE 2.94 359 4.48 339 -10.4 82 -12.9 36 0 989.8 NA 0.0000 9999 0 0 0 0
2019/09/08 21:01:00 BASE 2.77 358 4.48 339 -10.4 82 -12.9 34 0 989.8 NA 0.0000 9999 0 0 0 0
2019/09/08 21:02:00 BASE 2.99 352 4.48 339 -10.5 82 -12.9 33 0 989.7 NA 0.0000 9999 0 0 0 0
2019/09/08 21:03:00 BASE 3.49 346 4.22 340 -10.5 82 -12.9 32 0 989.7 NA 0.0000 9999 0 0 0 0
2019/09/08 21:04:00 BASE 3.81 353 4.22 355 -10.5 82 -12.9 31 0 989.7 NA 0.0000 9999 0 0 0 0
2019/09/08 21:05:00 BASE 3.70 4 4.22 355 -10.5 83 -12.8 30 0 989.7 NA 0.0000 9999 0 0 0 0
2019/09/08 21:06:00 BASE 3.53 10 4.22 355 -10.4 83 -12.8 29 0 989.7 NA 0.0000 9999 0 0 0 0
2019/09/08 21:07:00 BASE 3.37 13 4.22 355 -10.5 83 -12.9 27 0 989.8 NA 0.0000 9999 0 0 0 0
2019/09/08 21:08:00 BASE 3.13 4 4.22 355 -10.5 82 -13.0 26 0 989.8 NA 0.0000 9999 0 0 0 0
2019/09/08 21:09:00 BASE 2.93 2 4.22 355 -10.6 82 -13.0 25 0 989.8 NA 0.0000 9999 0 0 0 0
2019/09/08 21:10:00 BASE 2.91 12 4.22 355 -10.6 82 -13.1 23 0 989.9 NA 0.0000 9999 0 0 0 0
2019/09/08 21:11:00 BASE 2.91 16 4.22 355 -10.6 82 -13.1 22 0 989.9 NA 0.0000 9999 0 0 0 0
2019/09/08 21:12:00 BASE 2.94 13 4.22 355 -10.6 82 -13.1 21 0 990.0 NA 0.0000 9999 0 0 0 0
2019/09/08 21:13:00 BASE 3.05 6 4.22 355 -10.6 82 -13.0 20 0 990.0 NA 0.0000 9999 0 0 0 0
2019/09/08 21:14:00 BASE 2.94 6 3.81 13 -10.6 83 -12.9 19 0 990.1 NA 0.0000 9999 0 0 0 0
2019/09/08 21:15:00 BASE 3.08 8 3.81 13 -10.6 82 -13.0 18 0 990.1 NA 0.0000 9999 0 0 0 0
2019/09/08 21:16:00 BASE 3.42 11 3.65 11 -10.6 82 -13.0 17 0 990.1 NA 0.0000 9999 6730 0 0 0
2019/09/08 21:17:00 BASE 3.74 12 4.22 10 -10.6 82 -13.0 16 0 990.1 NA 0.0000 9999 6690 0 0 0
2019/09/08 21:18:00 BASE 3.76 16 4.22 10 -10.7 82 -13.1 15 0 990.2 NA 0.0000 9999 0 0 0 0
2019/09/08 21:19:00 BASE 3.51 17 4.22 10 -10.7 82 -13.2 14 0 990.2 NA 0.0000 9999 0 0 0 0
2019/09/08 21:20:00 BASE 3.25 16 4.22 10 -10.8 82 -13.2 12 0 990.2 NA 0.0000 9999 0 0 0 0
2019/09/08 21:21:00 BASE 2.95 17 4.22 10 -10.8 82 -13.3 11 0 990.3 NA 0.0000 9999 0 0 0 0
2019/09/08 21:22:00 BASE 2.64 12 4.22 10 -10.8 82 -13.3 10 0 990.3 NA 0.0000 9999 0 0 0 0
2019/09/08 21:23:00 BASE 2.69 9 4.22 10 -10.9 82 -13.3 8 0 990.3 NA 0.0000 9999 0 0 0 0
2019/09/08 21:24:00 BASE 3.06 6 4.22 10 -10.9 82 -13.3 8 0 990.3 NA 0.0000 9999 0 0 0 0
2019/09/08 21:25:00 BASE 3.26 3 4.22 10 -10.9 82 -13.3 7 0 990.3 NA 0.0000 9999 0 0 0 0
2019/09/08 21:26:00 BASE 3.32 1 4.22 10 -10.9 83 -13.3 7 0 990.3 NA 0.0000 9999 0 0 0 0
2019/09/08 21:27:00 BASE 3.17 360 4.01 19 -10.9 83 -13.2 6 0 990.3 NA 0.0000 9999 0 0 0 0
2019/09/08 21:28:00 BASE 3.30 1 3.86 6 -10.8 83 -13.2 6 0 990.3 NA 0.0000 9999 0 0 0 0
2019/09/08 21:29:00 BASE 3.57 1 3.86 6 -10.8 83 -13.1 5 0 990.3 NA 0.0000 9999 0 0 0 0
2019/09/08 21:30:00 BASE 3.47 2 3.86 6 -10.8 83 -13.2 5 0 990.3 NA 0.0000 9999 0 0 0 0
2019/09/08 21:31:00 BASE 3.30 7 3.86 6 -10.8 83 -13.2 5 0 990.3 NA 0.0000 9999 0 0 0 0
2019/09/08 21:32:00 BASE 3.17 8 3.86 6 -10.9 83 -13.3 4 0 990.3 NA 0.0000 9999 0 0 0 0
2019/09/08 21:33:00 BASE 2.97 9 3.86 6 -11.0 82 -13.4 4 0 990.4 NA 0.0000 9999 6100 0 0 0
2019/09/08 21:34:00 BASE 2.95 11 3.86 6 -11.1 82 -13.5 4 0 990.4 NA 0.0000 9999 6140 0 0 0
2019/09/08 21:35:00 BASE 3.24 3 3.86 6 -11.1 82 -13.5 4 0 990.3 NA 0.0000 9999 0 0 0 0
2019/09/08 21:36:00 BASE 3.34 354 3.86 6 -11.1 83 -13.5 3 0 990.3 NA 0.0000 9999 0 0 0 0
2019/09/08 21:37:00 BASE 3.46 356 3.86 6 -11.0 83 -13.4 3 0 990.4 NA 0.0000 9999 0 0 0 0
2019/09/08 21:38:00 BASE 3.57 3 3.91 7 -10.9 83 -13.2 3 0 990.4 NA 0.0000 9999 0 0 0 0
2019/09/08 21:39:00 BASE 3.59 6 3.91 7 -10.8 84 -13.1 3 0 990.4 NA 0.0000 9999 0 0 0 0
2019/09/08 21:40:00 BASE 3.61 1 3.91 7 -10.8 84 -13.0 2 0 990.4 NA 0.0000 9999 0 0 0 0
2019/09/08 21:41:00 BASE 3.57 356 3.91 7 -10.8 83 -13.0 2 0 990.4 NA 0.0000 9999 0 0 0 0
2019/09/08 21:42:00 BASE 3.59 357 3.91 7 -10.8 83 -13.1 2 0 990.4 NA 0.0000 9999 0 0 0 0
2019/09/08 21:43:00 BASE 3.55 354 3.91 347 -10.8 83 -13.1 2 0 990.4 NA 0.0000 9999 0 0 0 0
2019/09/08 21:44:00 BASE 3.62 351 4.17 348 -10.8 83 -13.0 2 0 990.4 NA 0.0000 9999 0 0 0 0
2019/09/08 21:45:00 BASE 3.95 354 4.37 360 -10.7 84 -13.0 1 0 990.4 NA 0.0000 9999 0 0 0 0
2019/09/08 21:46:00 BASE 4.32 360 4.89 3 -10.7 84 -13.0 1 0 990.4 NA 0.0000 9999 0 0 0 0
2019/09/08 21:47:00 BASE 4.26 2 4.89 3 -10.8 84 -13.0 1 0 990.4 NA 0.0000 9999 0 0 0 0
2019/09/08 21:48:00 BASE 4.13 355 4.89 3 -10.8 84 -13.1 1 0 990.4 NA 0.0000 9999 0 0 0 0
2019/09/08 21:49:00 BASE 4.04 350 4.89 3 -10.9 84 -13.1 1 0 990.4 NA 0.0000 9999 0 0 0 0
2019/09/08 21:50:00 BASE 3.96 348 4.89 3 -10.9 84 -13.1 1 0 990.4 NA 0.0000 9999 0 0 0 0
2019/09/08 21:51:00 BASE 4.11 348 4.89 3 -10.9 84 -13.1 1 0 990.4 NA 0.0000 9999 0 0 0 0
2019/09/08 21:52:00 BASE 4.17 348 4.89 3 -10.8 84 -13.0 0 0 990.4 NA 0.0000 9999 0 0 0 0
2019/09/08 21:53:00 BASE 4.35 352 4.89 3 -10.8 84 -13.0 0 0 990.4 NA 0.0000 9999 0 0 0 0
2019/09/08 21:54:00 BASE 4.66 2 5.25 5 -10.8 84 -13.0 0 0 990.3 NA 0.0000 9999 0 0 0 0
2019/09/08 21:55:00 BASE 4.86 3 5.35 6 -10.8 84 -13.1 0 0 990.3 NA 0.0000 9999 0 0 0 0
2019/09/08 21:56:00 BASE 4.85 2 5.35 6 -10.8 84 -13.1 0 0 990.3 NA 0.0000 9999 0 0 0 0
2019/09/08 21:57:00 BASE 4.87 2 5.40 4 -10.9 83 -13.1 0 0 990.3 NA 0.0000 9999 0 0 0 0
2019/09/08 21:58:00 BASE 5.07 1 5.40 4 -10.9 83 -13.2 0 0 990.3 NA 0.0000 9999 0 0 0 0
2019/09/08 21:59:00 BASE 5.27 1 5.61 5 -10.9 83 -13.3 0 0 990.3 NA 0.0000 9999 0 0 0 0
2019/09/08 22:00:00 BASE 5.50 3 6.07 3 -10.9 83 -13.2 0 0 990.3 NA 0.0000 9999 0 0 0 0
2019/09/08 22:01:00 BASE 5.55 2 6.07 3 -10.9 83 -13.2 0 0 990.4 NA 0.0000 9999 0 0 0 0
2019/09/08 22:02:00 BASE 5.56 2 6.07 3 -10.9 83 -13.2 0 0 990.4 NA 0.0000 9999 0 0 0 0
2019/09/08 22:03:00 BASE 5.79 3 6.17 5 -10.9 83 -13.2 0 0 990.4 NA 0.0000 9999 0 0 0 0
2019/09/08 22:04:00 BASE 5.81 3 6.17 5 -11.0 83 -13.3 0 0 990.4 NA 0.0000 9999 0 0 0 0
2019/09/08 22:05:00 BASE 5.83 359 6.33 2 -11.1 83 -13.4 0 0 990.4 NA 0.0000 9999 0 0 0 0
2019/09/08 22:06:00 BASE 5.75 358 6.33 2 -11.1 83 -13.4 0 0 990.4 NA 0.0000 9999 0 0 0 0
2019/09/08 22:07:00 BASE 5.48 355 6.33 2 -11.2 83 -13.4 0 0 990.4 NA 0.0000 9999 0 0 0 0
2019/09/08 22:08:00 BASE 5.61 352 6.33 2 -11.2 83 -13.4 0 0 990.4 NA 0.0000 9999 0 0 0 0
2019/09/08 22:09:00 BASE 5.86 355 6.33 2 -11.2 84 -13.4 0 0 990.4 NA 0.0000 9999 0 0 0 0
2019/09/08 22:10:00 BASE 6.13 358 6.58 360 -11.2 84 -13.4 0 0 990.4 NA 0.0000 9999 0 0 0 0
2019/09/08 22:11:00 BASE 6.40 0 6.89 360 -11.2 84 -13.4 0 0 990.4 NA 0.0000 9999 0 0 0 0
2019/09/08 22:12:00 BASE 6.48 0 6.89 360 -11.2 84 -13.4 0 0 990.4 NA 0.0000 9999 0 0 0 0
2019/09/08 22:13:00 BASE 6.43 1 6.89 360 -11.2 84 -13.4 0 0 990.4 NA 0.0000 9999 0 0 0 0
2019/09/08 22:14:00 BASE 6.44 357 6.89 360 -11.2 84 -13.4 0 0 990.4 NA 0.0000 9999 0 0 0 0
2019/09/08 22:15:00 BASE 6.39 352 6.89 360 -11.2 84 -13.4 0 0 990.5 NA 0.0000 9999 0 0 0 0
2019/09/08 22:16:00 BASE 6.24 353 6.89 360 -11.2 84 -13.4 0 0 990.5 NA 0.0000 9999 0 0 0 0
2019/09/08 22:17:00 BASE 6.10 355 6.89 360 -11.2 84 -13.4 0 0 990.5 NA 0.0000 9999 0 0 0 0
2019/09/08 22:18:00 BASE 6.08 355 6.89 360 -11.2 84 -13.3 0 0 990.4 NA 0.0000 9999 0 0 0 0
2019/09/08 22:19:00 BASE 6.04 356 6.89 360 -11.1 84 -13.3 0 0 990.5 NA 0.0000 9999 0 0 0 0
2019/09/08 22:20:00 BASE 6.04 359 6.89 360 -11.1 84 -13.3 0 0 990.5 NA 0.0000 9999 0 0 0 0
2019/09/08 22:21:00 BASE 6.14 2 6.79 344 -11.1 84 -13.3 0 0 990.5 NA 0.0000 9999 0 0 0 0
2019/09/08 22:22:00 BASE 6.19 4 6.79 344 -11.1 84 -13.3 0 0 990.5 NA 0.0000 9999 0 0 0 0
2019/09/08 22:23:00 BASE 6.19 4 6.79 344 -11.1 84 -13.3 0 0 990.5 NA 0.0000 9999 0 0 0 0
2019/09/08 22:24:00 BASE 6.27 5 6.69 7 -11.2 84 -13.3 0 0 990.5 NA 0.0000 9999 0 0 0 0
2019/09/08 22:25:00 BASE 6.42 6 6.79 5 -11.2 84 -13.4 0 0 990.5 NA 0.0000 9999 0 0 0 0
2019/09/08 22:26:00 BASE 6.52 6 7.10 360 -11.2 84 -13.4 0 0 990.5 NA 0.0000 9999 0 0 0 0
2019/09/08 22:27:00 BASE 6.72 5 7.25 2 -11.2 84 -13.4 0 0 990.6 NA 0.0000 9999 0 0 0 0
2019/09/08 22:28:00 BASE 6.84 4 7.25 2 -11.2 84 -13.4 0 0 990.7 NA 0.0000 9999 0 0 0 0
2019/09/08 22:29:00 BASE 6.63 4 7.25 2 -11.2 83 -13.4 0 0 990.7 NA 0.0000 9999 0 0 0 0
2019/09/08 22:30:00 BASE 6.51 5 7.25 2 -11.2 83 -13.5 0 0 990.7 NA 0.0000 9999 0 0 0 0
2019/09/08 22:31:00 BASE 6.54 6 7.25 2 -11.2 83 -13.5 0 0 990.7 NA 0.0000 9999 0 0 0 0
2019/09/08 22:32:00 BASE 6.44 5 7.25 2 -11.1 83 -13.5 0 0 990.7 NA 0.0000 9999 0 0 0 0
2019/09/08 22:33:00 BASE 6.43 6 7.25 2 -11.1 83 -13.4 0 0 990.7 NA 0.0000 9999 0 0 0 0
2019/09/08 22:34:00 BASE 6.41 6 7.25 2 -11.1 83 -13.4 0 0 990.8 NA 0.0000 9999 0 0 0 0
2019/09/08 22:35:00 BASE 6.19 6 7.25 2 -11.1 83 -13.4 0 0 990.8 NA 0.0000 9999 0 0 0 0
2019/09/08 22:36:00 BASE 5.88 4 7.25 2 -11.1 83 -13.4 0 0 990.9 NA 0.0000 9999 0 0 0 0
2019/09/08 22:37:00 BASE 5.98 3 7.15 4 -11.1 83 -13.4 0 0 990.9 NA 0.0000 9999 0 0 0 0
2019/09/08 22:38:00 BASE 6.15 5 7.10 5 -11.1 83 -13.4 0 0 991.0 NA 0.0000 9999 0 0 0 0
2019/09/08 22:39:00 BASE 6.12 5 7.10 5 -11.1 83 -13.5 0 0 991.0 NA 0.0000 9999 0 0 0 0
2019/09/08 22:40:00 BASE 6.12 5 7.10 5 -11.2 83 -13.5 0 0 991.0 NA 0.0000 9999 0 0 0 0
2019/09/08 22:41:00 BASE 5.75 6 7.10 5 -11.2 83 -13.5 0 0 991.0 NA 0.0000 9999 0 0 0 0
2019/09/08 22:42:00 BASE 5.06 9 7.10 5 -11.2 83 -13.5 0 0 991.0 NA 0.0000 9999 0 0 0 0
2019/09/08 22:43:00 BASE 4.74 11 6.64 7 -11.2 83 -13.5 0 0 991.0 NA 0.0000 9999 0 0 0 0
2019/09/08 22:44:00 BASE 5.23 14 6.53 6 -11.2 83 -13.6 0 0 991.0 NA 0.0000 9999 0 0 0 0
2019/09/08 22:45:00 BASE 5.71 16 6.53 6 -11.3 83 -13.7 0 0 991.0 NA 0.0000 9999 0 0 0 0
2019/09/08 22:46:00 BASE 5.95 16 6.53 6 -11.3 83 -13.7 0 0 991.0 NA 0.0000 9999 0 0 0 0
2019/09/08 22:47:00 BASE 5.91 17 6.53 6 -11.4 83 -13.8 0 0 991.0 NA 0.0000 9999 0 0 0 0
2019/09/08 22:48:00 BASE 5.66 18 6.53 6 -11.4 83 -13.8 0 0 991.0 NA 0.0000 9999 0 0 0 0
2019/09/08 22:49:00 BASE 5.76 19 6.48 18 -11.4 83 -13.7 0 0 991.0 NA 0.0000 9999 0 0 0 0
2019/09/08 22:50:00 BASE 5.74 20 6.48 18 -11.4 83 -13.7 0 0 991.0 NA 0.0000 9999 0 0 0 0
2019/09/08 22:51:00 BASE 5.56 20 6.48 18 -11.4 83 -13.7 0 0 991.1 NA 0.0000 9999 0 0 0 0
2019/09/08 22:52:00 BASE 5.59 19 6.48 18 -11.4 83 -13.7 0 0 991.2 NA 0.0000 9999 0 0 0 0
2019/09/08 22:53:00 BASE 5.58 18 6.48 18 -11.4 83 -13.6 0 0 991.2 NA 0.0000 9999 0 0 0 0
2019/09/08 22:54:00 BASE 5.67 16 6.48 18 -11.3 83 -13.6 0 0 991.1 NA 0.0000 9999 0 0 0 0
2019/09/08 22:55:00 BASE 6.09 12 6.84 4 -11.2 83 -13.5 0 0 991.0 NA 0.0000 9999 0 0 0 0
2019/09/08 22:56:00 BASE 6.28 6 6.84 4 -11.1 83 -13.4 0 0 991.0 NA 0.0000 9999 0 0 0 0
2019/09/08 22:57:00 BASE 6.30 6 6.84 9 -11.0 83 -13.3 0 0 991.0 NA 0.0000 9999 0 0 0 0
2019/09/08 22:58:00 BASE 6.49 6 6.94 3 -10.9 83 -13.3 0 0 991.1 NA 0.0000 9999 0 0 0 0
2019/09/08 22:59:00 BASE 6.38 4 6.94 3 -10.9 83 -13.2 0 0 991.2 NA 0.0000 9999 0 0 0 0
2019/09/08 23:00:00 BASE 6.24 5 6.94 3 -10.7 82 -13.2 0 0 991.1 NA 0.0000 9999 0 0 0 0
2019/09/08 23:01:00 BASE 6.37 6 6.94 3 -10.7 82 -13.2 0 0 991.0 NA 0.0000 9999 0 0 0 0
2019/09/08 23:02:00 BASE 6.16 4 6.94 3 -10.6 81 -13.2 0 0 991.2 NA 0.0000 9999 2720 0 0 0
2019/09/08 23:03:00 BASE 5.41 0 6.94 3 -10.5 80 -13.3 0 0 991.2 NA 0.0000 9999 2620 0 0 0
2019/09/08 23:04:00 BASE 4.83 355 6.94 3 -10.5 79 -13.5 0 0 991.2 NA 0.0000 9999 2560 0 0 0
2019/09/08 23:05:00 BASE 4.80 351 6.94 3 -10.5 77 -13.7 0 0 991.2 NA 0.0000 9999 2590 0 0 0
2019/09/08 23:06:00 BASE 4.64 348 6.94 3 -10.4 75 -14.0 0 0 991.3 NA 0.0000 9999 2620 0 0 0
2019/09/08 23:07:00 BASE 4.31 345 6.94 3 -10.4 73 -14.3 0 0 991.3 NA 0.0000 9999 2590 0 0 0
2019/09/08 23:08:00 BASE 4.93 347 6.69 7 -10.4 71 -14.6 0 0 991.3 NA 0.0000 9999 2560 0 0 0
2019/09/08 23:09:00 BASE 5.32 345 6.69 7 -10.3 69 -14.9 0 0 991.4 NA 0.0000 9999 2560 0 0 0
2019/09/08 23:10:00 BASE 4.30 345 6.69 7 -10.3 68 -15.0 0 0 991.4 NA 0.0000 9999 2560 0 0 0
2019/09/08 23:11:00 BASE 3.16 351 6.64 342 -10.2 68 -15.1 0 0 991.4 NA 0.0000 9999 2590 0 0 0
2019/09/08 23:12:00 BASE 3.11 359 6.64 342 -10.2 67 -15.2 0 0 991.4 NA 0.0000 9999 2620 0 0 0
2019/09/08 23:13:00 BASE 3.54 1 6.64 342 -10.1 66 -15.3 0 0 991.4 NA 0.0000 9999 2560 0 0 0
2019/09/08 23:14:00 BASE 3.45 350 6.64 342 -10.1 65 -15.4 0 0 991.4 NA 0.0000 9999 2590 0 0 0
2019/09/08 23:15:00 BASE 3.22 358 6.64 342 -10.0 63 -15.7 0 0 991.4 NA 0.0000 9999 2590 0 0 0
2019/09/08 23:16:01 BASE 3.16 2 6.64 342 -9.9 61 -16.0 0 0 991.4 NA 0.0000 9999 2560 0 0 0
2019/09/08 23:17:00 BASE 2.94 338 6.64 342 -9.9 60 -16.3 0 0 991.4 NA 0.0000 9999 2590 0 0 0
2019/09/08 23:18:00 BASE 2.51 330 5.97 341 -10.0 58 -16.6 0 0 991.4 NA 0.0000 9999 2660 0 0 0
2019/09/08 23:19:00 BASE 2.45 342 4.63 354 -10.0 58 -16.7 0 0 991.4 NA 0.0000 9999 2620 0 0 0
2019/09/08 23:20:00 BASE 3.14 348 4.68 348 -10.1 58 -16.8 0 0 991.4 NA 0.0000 9999 2590 0 0 0
2019/09/08 23:21:00 BASE 3.81 345 4.68 347 -10.1 57 -16.9 0 0 991.4 NA 0.0000 9999 2590 0 0 0
2019/09/08 23:22:00 BASE 3.13 337 4.68 347 -10.0 57 -16.9 0 0 991.5 NA 0.0000 9999 0 0 0 0
2019/09/08 23:23:00 BASE 2.56 339 4.68 347 -9.8 56 -17.0 0 0 991.5 NA 0.0000 9999 8890 0 0 0
2019/09/08 23:24:00 BASE 2.71 343 4.68 347 -9.7 55 -17.1 0 0 991.5 NA 0.0000 9999 8890 0 0 0
2019/09/08 23:25:00 BASE 2.61 334 4.68 347 -9.7 53 -17.4 0 0 991.5 NA 0.0000 9999 9090 0 0 0
2019/09/08 23:26:00 BASE 2.90 336 4.68 347 -9.7 53 -17.5 0 0 991.5 NA 0.0000 9999 8890 0 0 0
2019/09/08 23:27:00 BASE 3.71 348 4.68 347 -9.7 52 -17.6 0 0 991.4 NA 0.0000 9999 0 0 0 0
2019/09/08 23:28:00 BASE 4.24 344 4.68 347 -9.7 52 -17.6 0 0 991.4 NA 0.0000 9999 0 0 0 0
2019/09/08 23:29:00 BASE 4.19 328 4.68 319 -9.7 52 -17.6 0 0 991.4 NA 0.0000 9999 0 0 0 0
2019/09/08 23:30:00 BASE 4.21 322 4.78 322 -9.8 53 -17.6 0 0 991.5 NA 0.0000 9999 0 0 0 0
2019/09/08 23:31:00 BASE 4.28 325 4.78 322 -9.8 53 -17.6 0 0 991.4 NA 0.0000 9999 6960 0 0 0
2019/09/08 23:32:00 BASE 4.49 328 4.89 328 -9.8 53 -17.5 0 0 991.4 NA 0.0000 9999 7150 0 0 0
2019/09/08 23:33:00 BASE 4.68 327 4.94 326 -9.9 54 -17.5 0 0 991.4 NA 0.0000 9999 7150 0 0 0
2019/09/08 23:34:00 BASE 4.48 330 4.94 326 -10.0 54 -17.5 0 0 991.4 NA 0.0000 9999 7050 0 0 0
2019/09/08 23:35:00 BASE 4.58 337 5.25 338 -10.0 54 -17.5 0 0 991.4 NA 0.0000 9999 7150 0 0 0
2019/09/08 23:36:00 BASE 4.87 340 5.25 338 -10.0 55 -17.3 0 0 991.3 NA 0.0000 9999 7150 0 0 0
2019/09/08 23:37:00 BASE 4.98 343 5.61 343 -9.9 55 -17.2 0 0 991.3 NA 0.0000 9999 7090 0 0 0
2019/09/08 23:38:00 BASE 5.13 346 5.61 343 -9.9 55 -17.2 0 0 991.3 NA 0.0000 9999 6990 0 0 0
2019/09/08 23:39:00 BASE 4.88 352 5.61 343 -9.8 55 -17.1 0 0 991.3 NA 0.0000 9999 6960 0 0 0
2019/09/08 23:40:00 BASE 4.66 358 5.61 343 -9.7 55 -17.1 0 0 991.3 NA 0.0000 9999 6890 0 0 0
2019/09/08 23:41:00 BASE 4.40 358 5.61 343 -9.6 54 -17.2 0 0 991.4 NA 0.0000 9999 6760 0 0 0
2019/09/08 23:42:00 BASE 4.28 358 5.61 343 -9.5 53 -17.4 0 0 991.4 NA 0.0000 9999 6730 0 0 0
2019/09/08 23:43:00 BASE 4.43 355 5.61 343 -9.4 52 -17.4 0 0 991.3 NA 0.0000 9999 6590 0 0 0
2019/09/08 23:44:00 BASE 4.09 351 5.61 343 -9.4 52 -17.5 0 0 991.4 NA 0.0000 9999 6660 0 0 0
2019/09/08 23:45:00 BASE 3.82 354 5.61 343 -9.4 52 -17.5 0 0 991.4 NA 0.0000 9999 6820 0 0 0
2019/09/08 23:46:00 BASE 3.75 350 5.61 343 -9.4 52 -17.5 0 0 991.4 NA 0.0000 9999 6760 0 0 0
2019/09/08 23:47:00 BASE 3.43 343 5.50 344 -9.4 52 -17.5 0 0 991.4 NA 0.0000 9999 6760 0 0 0
2019/09/08 23:48:00 BASE 3.52 346 5.25 349 -9.4 52 -17.4 0 0 991.4 NA 0.0000 9999 6760 0 0 0
2019/09/08 23:49:00 BASE 3.95 352 5.25 349 -9.4 52 -17.4 0 0 991.4 NA 0.0000 9999 6630 0 0 0
2019/09/08 23:50:00 BASE 4.52 360 5.45 2 -9.3 52 -17.4 0 0 991.5 NA 0.0000 9999 6630 0 0 0
2019/09/08 23:51:00 BASE 4.87 3 5.45 2 -9.3 52 -17.4 0 0 991.5 NA 0.0000 9999 6630 0 0 0
2019/09/08 23:52:00 BASE 4.69 3 5.45 2 -9.3 53 -17.3 0 0 991.5 NA 0.0000 9999 6730 0 0 0
2019/09/08 23:53:00 BASE 4.64 3 5.45 2 -9.3 53 -17.2 0 0 991.5 NA 0.0000 9999 6660 0 0 0
2019/09/08 23:54:00 BASE 4.52 359 5.45 2 -9.3 53 -17.1 0 0 991.6 NA 0.0000 9999 6560 0 0 0
2019/09/08 23:55:00 BASE 4.14 3 5.45 2 -9.4 54 -17.0 0 0 991.5 NA 0.0000 9999 6690 0 0 0
2019/09/08 23:56:00 BASE 4.02 7 5.45 2 -9.3 54 -16.9 0 0 991.5 NA 0.0000 9999 6690 0 0 0
2019/09/08 23:57:00 BASE 4.39 2 5.45 2 -9.3 55 -16.7 0 0 991.5 NA 0.0000 9999 6730 0 0 0
2019/09/08 23:58:00 BASE 4.81 7 5.45 2 -9.3 56 -16.5 0 0 991.5 NA 0.0000 9999 6630 0 0 0
2019/09/08 23:59:00 BASE 4.95 12 5.50 14 -9.2 56 -16.3 0 0 991.5 NA 0.0000 9999 6730 0 0 0